[[{"header":{"parameterUnit":"m.s-1","parameterCategory":1,"la1":30.6,"la2":28.766,"lo1":-90.7593,"lo2":-88.6598,"dy":0.0162,"dx":0.0183,"nx":116,"ny":114,"refTime":"2023-02-26T06:00:00:Z","depth":0,"parameterNumber":2,"parameterNumberName":"U-component_of_WINDS"},"data":[0.0,0.0,0.0,0.0,0.0,0.0,0.0,0.0,0.0,0.0,0.0,0.0,0.0,0.0,0.0,0.0,0.0,0.0,0.0,0.0,0.0,0.0,0.0,0.0,0.0,0.0,0.0,0.0,0.0,0.0,0.0,0.0,0.0,0.0,0.0,0.0,0.0,0.0,0.0,0.0,0.0,0.0,0.0,0.0,0.0,0.0,0.0,0.0,0.0,0.0,0.0,0.0,0.0,0.0,0.0,0.0,0.0,0.0,0.0,0.0,0.0,0.0,0.0,0.0,0.0,0.0,0.0,0.0,0.0,0.0,0.0,0.0,0.0,0.0,0.0,0.0,0.0,0.0,0.0,0.0,0.0,0.0,0.0,0.0,0.0,0.0,0.0,0.0,0.0,0.0,0.0,0.0,0.0,0.0,0.0,0.0,0.0,0.0,0.0,0.0,0.0,0.0,0.0,0.0,0.0,0.0,0.0,0.0,0.0,0.0,0.0,0.0,0.0,0.0,0.0,0.0,0.0,0.0,0.0,0.0,0.0,0.0,0.0,0.0,0.0,0.0,0.0,0.0,0.0,0.0,0.0,0.0,0.0,0.0,0.0,0.0,0.0,0.0,0.0,0.0,0.0,0.0,0.0,0.0,0.0,0.0,0.0,0.0,0.0,0.0,0.0,0.0,0.0,0.0,0.0,0.0,0.0,0.0,0.0,0.0,0.0,0.0,0.0,0.0,0.0,0.0,0.0,0.0,0.0,0.0,0.0,0.0,0.0,0.0,0.0,0.0,0.0,0.0,0.0,0.0,0.0,0.0,0.0,0.0,0.0,0.0,0.0,0.0,0.0,0.0,0.0,0.0,0.0,0.0,0.0,0.0,0.0,0.0,0.0,0.0,0.0,0.0,0.0,0.0,0.0,0.0,0.0,0.0,0.0,0.0,0.0,0.0,0.0,0.0,0.0,0.0,0.0,0.0,0.0,0.0,0.0,0.0,0.0,0.0,0.0,0.0,0.0,0.0,0.0,0.0,0.0,0.0,0.0,0.0,0.0,0.0,0.0,0.0,0.0,0.0,0.0,0.0,0.0,0.0,0.0,0.0,0.0,0.0,0.0,0.0,0.0,0.0,0.0,0.0,0.0,0.0,0.0,0.0,0.0,0.0,0.0,0.0,0.0,0.0,0.0,0.0,0.0,0.0,0.0,0.0,0.0,0.0,0.0,0.0,0.0,0.0,0.0,0.0,0.0,0.0,0.0,0.0,0.0,0.0,0.0,0.0,0.0,0.0,0.0,0.0,0.0,0.0,0.0,0.0,0.0,0.0,0.0,0.0,0.0,0.0,0.0,0.0,0.0,0.0,0.0,0.0,0.0,0.0,0.0,0.0,0.0,0.0,0.0,0.0,0.0,0.0,0.0,0.0,0.0,0.0,0.0,0.0,0.0,0.0,0.0,0.0,0.0,0.0,0.0,0.0,0.0,0.0,0.0,0.0,0.0,0.0,0.0,0.0,0.0,0.0,0.0,0.0,0.0,0.0,0.0,0.0,0.0,0.0,0.0,0.0,0.0,0.0,0.0,0.0,0.0,0.0,0.0,0.0,0.0,0.0,0.0,0.0,0.0,0.0,0.0,0.0,0.0,0.0,0.0,0.0,0.0,0.0,0.0,0.0,0.0,0.0,0.0,0.0,0.0,0.0,0.0,0.0,0.0,0.0,0.0,0.0,0.0,0.0,0.0,0.0,0.0,0.0,0.0,0.0,0.0,0.0,0.0,0.0,0.0,0.0,0.0,0.0,0.0,0.0,0.0,0.0,0.0,0.0,0.0,0.0,0.0,0.0,0.0,0.0,0.0,0.0,0.0,0.0,0.0,0.0,0.0,0.0,0.0,0.0,0.0,0.0,0.0,0.0,0.0,0.0,0.0,0.0,0.0,0.0,0.0,0.0,0.0,0.0,0.0,0.0,0.0,0.0,0.0,0.0,0.0,0.0,0.0,0.0,0.0,0.0,0.0,0.0,0.0,0.0,0.0,0.0,0.0,0.0,0.0,0.0,0.0,0.0,0.0,0.0,0.0,0.0,0.0,0.0,0.0,0.0,0.0,0.0,0.0,0.0,0.0,0.0,0.0,0.0,0.0,0.0,0.0,0.0,0.0,0.0,0.0,0.0,0.0,0.0,0.0,0.0,0.0,0.0,0.0,0.0,0.0,0.0,0.0,0.0,0.0,0.0,0.0,0.0,0.0,0.0,0.0,0.0,0.0,0.0,0.0,0.0,0.0,0.0,0.0,0.0,0.0,0.0,0.0,0.0,0.0,0.0,0.0,0.0,0.0,0.0,0.0,0.0,0.0,0.0,0.0,0.0,0.0,0.0,0.0,0.0,0.0,0.0,0.0,0.0,0.0,0.0,0.0,0.0,0.0,0.0,0.0,0.0,0.0,0.0,0.0,0.0,0.0,0.0,0.0,0.0,0.0,0.0,0.0,0.0,0.0,0.0,0.0,0.0,0.0,0.0,0.0,0.0,0.0,0.0,0.0,0.0,0.0,0.0,0.0,0.0,0.0,0.0,0.0,0.0,0.0,0.0,0.0,0.0,0.0,0.0,0.0,0.0,0.0,0.0,0.0,0.0,0.0,0.0,0.0,0.0,0.0,0.0,0.0,0.0,0.0,0.0,0.0,0.0,0.0,0.0,0.0,0.0,0.0,0.0,0.0,0.0,0.0,0.0,0.0,0.0,0.0,0.0,0.0,0.0,0.0,0.0,0.0,0.0,0.0,0.0,0.0,0.0,0.0,0.0,0.0,0.0,0.0,0.0,0.0,0.0,0.0,0.0,0.0,0.0,0.0,0.0,0.0,0.0,0.0,0.0,0.0,0.0,0.0,0.0,0.0,0.0,0.0,0.0,0.0,0.0,0.0,0.0,0.0,0.0,0.0,0.0,0.0,0.0,0.0,0.0,0.0,0.0,0.0,0.0,0.0,0.0,0.0,0.0,0.0,0.0,0.0,0.0,0.0,0.0,0.0,0.0,0.0,0.0,0.0,0.0,0.0,0.0,0.0,0.0,0.0,0.0,0.0,0.0,0.0,0.0,0.0,0.0,0.0,0.0,0.0,0.0,0.0,0.0,0.0,0.0,0.0,0.0,0.0,0.0,0.0,0.0,0.0,0.0,0.0,0.0,0.0,0.0,0.0,0.0,0.0,0.0,0.0,0.0,0.0,0.0,0.0,0.0,0.0,0.0,0.0,0.0,0.0,0.0,0.0,0.0,0.0,0.0,0.0,0.0,0.0,0.0,0.0,0.0,0.0,0.0,0.0,0.0,0.0,0.0,0.0,0.0,0.0,0.0,0.0,0.0,0.0,0.0,0.0,0.0,0.0,0.0,0.0,0.0,0.0,0.0,0.0,0.0,0.0,0.0,0.0,0.0,0.0,0.0,0.0,0.0,0.0,0.0,0.0,0.0,0.0,0.0,0.0,0.0,0.0,0.0,0.0,0.0,0.0,0.0,0.0,0.0,0.0,0.0,0.0,0.0,0.0,0.0,0.0,0.0,0.0,0.0,0.0,0.0,0.0,0.0,0.0,0.0,0.0,0.0,0.0,0.0,0.0,0.0,0.0,0.0,0.0,0.0,0.0,0.0,0.0,0.0,0.0,0.0,0.0,0.0,0.0,0.0,0.0,0.0,0.0,0.0,0.0,0.0,0.0,0.0,0.0,0.0,0.0,0.0,0.0,0.0,0.0,0.0,0.0,0.0,0.0,0.0,0.0,0.0,0.0,0.0,0.0,0.0,0.0,0.0,0.0,0.0,0.0,0.0,0.0,0.0,0.0,0.0,0.0,0.0,0.0,0.0,0.0,0.0,0.0,0.0,0.0,0.0,0.0,0.0,0.0,0.0,0.0,0.0,0.0,0.0,0.0,0.0,0.0,0.0,0.0,0.0,0.0,0.0,0.0,0.0,0.0,0.0,0.0,0.0,0.0,0.0,0.0,0.0,0.0,0.0,0.0,0.0,0.0,0.0,0.0,0.0,0.0,0.0,0.0,0.0,0.0,0.0,0.0,0.0,0.0,0.0,0.0,0.0,0.0,0.0,0.0,0.0,0.0,0.0,0.0,0.0,0.0,0.0,0.0,0.0,0.0,0.0,0.0,0.0,0.0,0.0,0.0,0.0,0.0,0.0,0.0,0.0,0.0,0.0,0.0,0.0,0.0,0.0,0.0,0.0,0.0,0.0,0.0,0.0,0.0,0.0,0.0,0.0,0.0,0.0,0.0,0.0,0.0,0.0,0.0,0.0,0.0,0.0,0.0,0.0,0.0,0.0,0.0,0.0,0.0,0.0,0.0,0.0,0.0,0.0,0.0,0.0,0.0,0.0,0.0,0.0,0.0,0.0,0.0,0.0,0.0,0.0,0.0,0.0,0.0,0.0,0.0,0.0,0.0,0.0,0.0,0.0,0.0,0.0,0.0,0.0,0.0,0.0,0.0,0.0,0.0,0.0,0.0,0.0,0.0,0.0,0.0,0.0,0.0,0.0,0.0,0.0,0.0,0.0,0.0,0.0,0.0,0.0,0.0,0.0,0.0,0.0,0.0,0.0,0.0,0.0,0.0,0.0,0.0,0.0,0.0,0.0,0.0,0.0,0.0,0.0,0.0,0.0,0.0,0.0,0.0,0.0,0.0,0.0,0.0,0.0,0.0,0.0,0.0,0.0,0.0,0.0,0.0,0.0,0.0,0.0,0.0,0.0,0.0,0.0,0.0,0.0,0.0,0.0,0.0,0.0,0.0,0.0,0.0,0.0,0.0,0.0,0.0,0.0,0.0,0.0,0.0,0.0,0.0,0.0,0.0,0.0,0.0,0.0,0.0,0.0,0.0,0.0,0.0,0.0,0.0,0.0,0.0,0.0,0.0,0.0,0.0,0.0,0.0,0.0,0.0,0.0,0.0,0.0,0.0,0.0,0.0,0.0,0.0,0.0,0.0,0.0,0.0,0.0,0.0,0.0,0.0,0.0,0.0,0.0,0.0,0.0,0.0,0.0,0.0,0.0,0.0,0.0,0.0,0.0,0.0,0.0,0.0,0.0,0.0,0.0,0.0,0.0,0.0,0.0,0.0,0.0,0.0,0.0,0.0,0.0,0.0,0.0,0.0,0.0,0.0,0.0,0.0,0.0,0.0,0.0,0.0,0.0,0.0,0.0,0.0,0.0,0.0,0.0,0.0,0.0,0.0,0.0,0.0,0.0,0.0,0.0,0.0,0.0,0.0,0.0,0.0,0.0,0.0,0.0,0.0,0.0,0.0,0.0,0.0,0.0,0.0,0.0,0.0,0.0,0.0,0.0,0.0,0.0,0.0,0.0,0.0,0.0,0.0,0.0,0.0,0.0,0.0,0.0,0.0,0.0,0.0,0.0,0.0,0.0,0.0,0.0,0.0,0.0,0.0,0.0,0.0,0.0,0.0,0.0,0.0,0.0,0.0,0.0,0.0,0.0,0.0,0.0,0.0,0.0,0.0,0.0,0.0,0.0,0.0,0.0,0.0,0.0,0.0,0.0,0.0,0.0,0.0,0.0,0.0,0.0,0.0,0.0,0.0,0.0,0.0,0.0,0.0,0.0,0.0,0.0,0.0,0.0,0.0,0.0,0.0,0.0,0.0,0.0,0.0,0.0,0.0,0.0,0.0,0.0,0.0,0.0,0.0,0.0,0.0,0.0,0.0,0.0,0.0,0.0,0.0,0.0,0.0,0.0,0.0,0.0,0.0,0.0,0.0,0.0,0.0,0.0,0.0,0.0,0.0,0.0,0.0,0.0,0.0,0.0,0.0,0.0,0.0,0.0,0.0,0.0,0.0,0.0,0.0,0.0,0.0,0.0,0.0,0.0,0.0,0.0,0.0,0.0,0.0,0.0,0.0,0.0,0.0,0.0,0.0,0.0,0.0,0.0,0.0,0.0,0.0,0.0,0.0,0.0,0.0,0.0,0.0,0.0,0.0,0.0,0.0,0.0,0.0,0.0,0.0,0.0,0.0,0.0,0.0,0.0,0.0,0.0,0.0,0.0,0.0,0.0,0.0,0.0,0.0,0.0,0.0,0.0,0.0,0.0,0.0,0.0,0.0,0.0,0.0,0.0,-9.8634,-9.825,0.0,0.0,0.0,0.0,0.0,0.0,0.0,0.0,0.0,0.0,0.0,0.0,0.0,0.0,0.0,0.0,0.0,0.0,0.0,0.0,0.0,0.0,0.0,0.0,0.0,0.0,0.0,0.0,0.0,0.0,0.0,0.0,0.0,0.0,0.0,0.0,0.0,0.0,-9.0593,-9.0593,-9.0593,-9.0593,-9.0593,-9.0593,0.0,0.0,0.0,0.0,0.0,0.0,0.0,0.0,0.0,0.0,0.0,0.0,0.0,0.0,0.0,0.0,0.0,0.0,0.0,0.0,0.0,0.0,0.0,0.0,0.0,0.0,0.0,0.0,0.0,0.0,0.0,0.0,0.0,0.0,0.0,0.0,0.0,0.0,0.0,0.0,0.0,0.0,0.0,0.0,0.0,0.0,0.0,0.0,0.0,0.0,0.0,0.0,0.0,0.0,0.0,0.0,0.0,0.0,0.0,0.0,0.0,0.0,0.0,0.0,0.0,0.0,0.0,0.0,0.0,0.0,-9.9365,-9.8788,0.0,0.0,0.0,0.0,0.0,0.0,0.0,0.0,0.0,0.0,0.0,0.0,0.0,0.0,0.0,0.0,0.0,0.0,0.0,0.0,0.0,0.0,0.0,0.0,0.0,0.0,0.0,0.0,0.0,0.0,0.0,0.0,0.0,0.0,0.0,0.0,0.0,-9.0593,-9.0593,-9.0593,-9.0593,-9.0593,-9.0593,-9.0593,-9.0593,0.0,0.0,0.0,0.0,0.0,0.0,0.0,0.0,0.0,0.0,0.0,0.0,0.0,0.0,0.0,0.0,0.0,0.0,0.0,0.0,0.0,0.0,0.0,0.0,0.0,0.0,0.0,0.0,0.0,0.0,0.0,0.0,0.0,0.0,0.0,0.0,0.0,0.0,0.0,0.0,0.0,0.0,0.0,0.0,0.0,0.0,0.0,0.0,0.0,0.0,0.0,0.0,0.0,0.0,0.0,0.0,0.0,0.0,0.0,0.0,0.0,0.0,0.0,-9.8596,-9.9404,-10.0096,-10.0212,-10.0712,-10.1212,-9.9827,-9.925,-9.925,-9.925,0.0,0.0,0.0,0.0,0.0,0.0,0.0,0.0,0.0,0.0,0.0,0.0,0.0,0.0,0.0,0.0,0.0,0.0,0.0,0.0,0.0,0.0,0.0,0.0,0.0,0.0,0.0,0.0,0.0,0.0,0.0,0.0,0.0,-9.0593,-9.0593,-9.0593,-9.0593,-9.0593,-9.0593,-9.0593,-9.0593,-9.0593,-9.0593,-9.0593,-9.0593,0.0,0.0,0.0,0.0,0.0,0.0,0.0,0.0,0.0,0.0,0.0,0.0,0.0,0.0,0.0,0.0,0.0,0.0,0.0,0.0,0.0,0.0,0.0,0.0,0.0,0.0,0.0,0.0,0.0,0.0,0.0,0.0,0.0,0.0,0.0,0.0,0.0,0.0,0.0,0.0,0.0,-9.2962,-9.3077,0.0,0.0,0.0,0.0,0.0,0.0,0.0,0.0,0.0,0.0,0.0,0.0,0.0,-9.7326,-9.7326,-9.8211,-9.8634,-9.8634,-9.9519,-9.9981,-10.0096,-10.0789,-10.1212,-10.1289,-10.1096,0.0,-10.1019,-10.1019,0.0,0.0,0.0,0.0,0.0,0.0,0.0,0.0,0.0,0.0,0.0,0.0,0.0,0.0,0.0,0.0,0.0,0.0,0.0,0.0,0.0,0.0,0.0,0.0,0.0,0.0,0.0,0.0,0.0,0.0,0.0,0.0,-9.0593,-9.0593,-9.0593,-9.0593,-9.0593,-9.0593,-9.0593,-9.0593,-9.0593,-9.0593,-9.0593,-9.0593,-9.0593,-9.0593,0.0,0.0,0.0,0.0,0.0,0.0,0.0,0.0,0.0,0.0,0.0,0.0,0.0,0.0,0.0,0.0,0.0,0.0,0.0,0.0,0.0,0.0,0.0,0.0,0.0,0.0,0.0,0.0,0.0,0.0,0.0,0.0,0.0,0.0,0.0,0.0,0.0,0.0,0.0,-9.3612,-9.3994,-9.4452,-9.49,-9.5189,0.0,0.0,0.0,0.0,0.0,0.0,0.0,0.0,0.0,-9.698,-9.7788,-9.8211,-9.8211,-9.9096,-9.9519,-9.9519,-10.0404,-10.0789,-10.0789,-10.1096,-10.1289,-10.1289,-10.1289,-10.1289,-10.1289,-10.1289,-10.1289,-10.1289,0.0,0.0,0.0,0.0,-10.1289,-10.1289,0.0,0.0,0.0,0.0,0.0,0.0,0.0,0.0,0.0,0.0,0.0,0.0,0.0,0.0,0.0,-9.0593,0.0,0.0,0.0,0.0,0.0,0.0,0.0,-9.0593,-9.0593,-9.0593,-9.0593,-9.0593,-9.0593,-9.0593,-9.0593,-9.0593,-9.0593,-9.0593,-9.0593,-9.0593,-9.0593,-9.0593,-9.0593,-9.0593,0.0,0.0,0.0,0.0,0.0,0.0,0.0,0.0,0.0,0.0,0.0,0.0,0.0,0.0,0.0,0.0,0.0,0.0,0.0,0.0,0.0,0.0,0.0,0.0,0.0,0.0,0.0,0.0,0.0,0.0,0.0,0.0,0.0,0.0,0.0,0.0,0.0,-9.472,-9.4949,-9.5522,-9.5686,-9.5768,0.0,0.0,0.0,0.0,0.0,0.0,-9.6596,-9.7173,-9.7596,-9.7827,-9.8673,-9.9135,-9.9135,-9.9981,-10.0404,-10.0404,-10.1019,-10.1289,-10.1289,-10.1289,-10.1289,-10.1289,-10.1289,-10.1289,-10.1289,-10.1289,-10.1289,-10.1289,-10.1289,-10.1289,-10.1289,-10.1289,-10.1289,-10.1289,0.0,0.0,0.0,0.0,0.0,0.0,0.0,0.0,0.0,0.0,0.0,0.0,0.0,0.0,-9.0593,-9.0593,-9.0593,-9.0593,0.0,0.0,0.0,0.0,0.0,-9.0593,-9.0593,-9.0593,-9.0593,-9.0593,-9.0593,-9.0593,-9.0593,-9.0593,-9.0593,-9.0593,-9.0593,-9.0593,-9.0593,-9.0593,-9.0593,-9.0593,-9.0593,0.0,0.0,0.0,0.0,0.0,0.0,0.0,0.0,0.0,0.0,0.0,0.0,0.0,0.0,0.0,0.0,0.0,0.0,0.0,0.0,0.0,0.0,0.0,0.0,0.0,0.0,0.0,0.0,0.0,0.0,0.0,0.0,0.0,0.0,0.0,0.0,0.0,0.0,-9.5598,-9.5598,0.0,0.0,0.0,0.0,-9.592,-9.6136,-9.6634,-9.7403,-9.748,-9.7865,-9.8711,-9.9558,-9.9981,-9.9981,-10.0789,-10.1212,-10.1212,-10.1289,-10.1289,-10.1289,-10.1289,-10.1289,-10.1289,-10.1289,-10.1289,-10.1289,-10.1289,-10.1289,-10.1289,-10.1289,-10.1289,-10.1289,-10.1289,-10.1289,-10.1289,0.0,0.0,0.0,0.0,0.0,0.0,0.0,0.0,0.0,0.0,0.0,0.0,0.0,-9.0593,-9.0593,-9.0593,-9.0593,-9.0593,-9.0593,0.0,0.0,0.0,0.0,0.0,-9.0593,-9.0593,-9.0593,-9.0593,-9.0593,-9.0593,-9.0593,-9.0593,-9.0593,-9.0593,-9.0593,-9.0593,-9.0593,-9.0593,-9.0593,-9.0593,-9.0593,-9.0593,0.0,0.0,0.0,0.0,0.0,0.0,0.0,0.0,0.0,0.0,0.0,0.0,0.0,0.0,0.0,0.0,0.0,0.0,0.0,0.0,0.0,0.0,0.0,0.0,0.0,0.0,0.0,0.0,0.0,0.0,0.0,0.0,0.0,0.0,0.0,0.0,0.0,-9.5598,-9.5664,0.0,-9.5746,-9.5918,-9.6269,-9.6826,-9.6982,-9.7442,-9.8288,-9.8865,-9.9327,-9.9635,-10.0404,-10.0904,-10.0904,-10.1212,-10.1289,-10.1289,-10.1289,-10.1289,-10.1289,-10.1289,-10.1289,-10.1289,-10.1904,-10.2097,-10.2212,-10.2712,-10.2597,-10.2097,-10.2097,-10.252,-10.2981,-10.2981,-10.2981,-10.2981,0.0,0.0,0.0,0.0,0.0,0.0,0.0,0.0,0.0,0.0,0.0,-9.0593,-9.0593,-9.0593,-9.0593,-9.0593,-9.0593,-9.0593,-9.0593,0.0,0.0,0.0,-9.0593,0.0,0.0,-9.0593,-9.0593,-9.0593,-9.0593,-9.0593,-9.0593,-9.0593,-9.0593,-9.0593,-9.0593,-9.0593,-9.0593,-9.0593,-9.0593,-9.0593,-9.0593,-9.0593,-9.0593,0.0,0.0,0.0,0.0,0.0,0.0,0.0,0.0,0.0,0.0,0.0,0.0,0.0,0.0,0.0,0.0,0.0,0.0,0.0,0.0,0.0,0.0,0.0,0.0,0.0,0.0,0.0,0.0,0.0,0.0,0.0,0.0,0.0,0.0,-9.5598,-9.5598,-9.5598,-9.5664,-9.5844,-9.6155,-9.636,-9.6826,-9.7749,-9.7885,-9.8327,-9.9173,-9.9788,-10.0212,-10.0481,-10.1019,-10.1289,-10.1289,-10.1289,-10.1289,-10.1289,-10.1289,-10.1289,-10.1289,-10.1597,-10.1712,-10.1789,-10.2712,-10.302,-10.3097,-10.3712,-10.3712,-10.3405,-10.3097,-10.3405,-10.3905,-10.3905,-10.3905,-10.3905,0.0,0.0,0.0,0.0,0.0,0.0,0.0,0.0,0.0,0.0,-9.0669,-9.0631,-9.0631,-9.0631,-9.0593,-9.0593,-9.0593,-9.0593,-9.0593,-9.0593,0.0,0.0,0.0,0.0,-9.0593,-9.0593,-9.0593,-9.0593,-9.0593,-9.0593,-9.0593,-9.0593,-9.0593,-9.0593,-9.0593,-9.0593,-9.0593,-9.0593,-9.0593,-9.0593,-9.0593,-9.0593,-9.0593,0.0,0.0,0.0,0.0,0.0,0.0,0.0,0.0,0.0,0.0,0.0,0.0,0.0,0.0,0.0,0.0,0.0,0.0,0.0,0.0,0.0,0.0,0.0,0.0,0.0,0.0,0.0,0.0,0.0,0.0,0.0,0.0,0.0,-9.5598,-9.5598,-9.5598,-9.5598,-9.5637,-9.6009,-9.692,-9.7142,-9.7628,-9.8594,-9.8769,-9.9211,-10.0096,-10.0096,-10.0481,-10.1289,-10.1289,-10.1289,-10.1289,-10.1289,-10.1289,-10.1289,-10.1289,-10.1289,-10.1404,-10.2212,-10.2597,-10.2712,-10.3597,-10.3905,-10.3905,-10.3982,-10.4405,-10.5097,-10.4289,-10.3982,-10.3982,-10.3982,-10.3982,-10.3982,0.0,0.0,0.0,0.0,0.0,0.0,0.0,0.0,0.0,0.0,-9.1854,-9.1472,-9.1472,-9.0937,-9.0593,-9.0593,-9.0593,-9.0593,-9.0593,0.0,0.0,0.0,0.0,0.0,-9.0593,-9.0593,-9.0593,-9.0593,-9.0593,-9.0593,-9.0593,-9.0593,-9.0593,-9.0593,-9.0593,-9.0593,-9.0593,-9.0593,-9.0593,-9.0593,-9.0593,-9.0593,-9.0593,0.0,0.0,0.0,0.0,0.0,0.0,0.0,0.0,0.0,0.0,0.0,0.0,0.0,0.0,0.0,0.0,0.0,0.0,0.0,0.0,0.0,0.0,0.0,0.0,0.0,0.0,0.0,0.0,0.0,0.0,0.0,-9.5598,-9.5598,-9.5598,-9.5598,-9.5598,-9.5598,-9.6222,-9.6729,-9.7103,-9.7802,-9.8633,-9.9634,-9.9692,-10.0096,-10.0904,-10.1019,-10.1096,-10.1289,-10.1289,-10.1289,-10.1289,-10.1289,-10.1289,-10.1289,-10.1289,-10.1597,-10.2289,-10.252,-10.2904,-10.3597,-10.4405,-10.4789,-10.4789,-10.5482,-10.579,-10.602,-10.5097,-10.5213,-10.5713,-10.5713,-10.5713,-10.5713,0.0,0.0,0.0,0.0,0.0,0.0,0.0,0.0,0.0,0.0,-9.2656,-9.2351,-9.2351,-9.1586,-9.109,-9.109,-9.0784,-9.0593,-9.0593,0.0,0.0,0.0,0.0,-9.0593,-9.0593,-9.0593,-9.0593,-9.0593,-9.0593,-9.0593,-9.0593,-9.0593,-9.0593,-9.0593,-9.0593,-9.0593,-9.0593,-9.0593,-9.0593,-9.0593,-9.0593,-9.0593,-9.0593,-9.0593,-9.0593,-9.0593,-9.0593,-9.0822,-9.109,-9.109,0.0,0.0,0.0,0.0,0.0,0.0,0.0,0.0,0.0,0.0,0.0,0.0,0.0,0.0,0.0,0.0,0.0,0.0,0.0,0.0,0.0,0.0,0.0,0.0,-9.5598,-9.5713,-9.6095,-9.6133,-9.6133,-9.6133,-9.6926,-9.7686,-9.818,-9.8762,-9.9478,-10.05,-10.0596,-10.0789,-10.1289,-10.1289,-10.1289,-10.1289,-10.1289,-10.1289,-10.1289,-10.1289,-10.152,-10.1789,-10.1789,-10.2289,-10.3212,-10.3482,-10.3905,-10.4405,-10.529,-10.5597,-10.5713,-10.6213,-10.6405,-10.629,0.0,0.0,0.0,0.0,-10.6405,-10.6405,0.0,0.0,0.0,0.0,0.0,0.0,0.0,0.0,0.0,0.0,0.0,-9.3229,-9.3268,-9.2465,-9.193,-9.193,-9.1204,-9.0708,0.0,0.0,0.0,-9.0593,-9.0593,-9.0593,-9.0593,-9.0593,-9.0593,-9.0593,-9.0593,-9.0593,-9.0593,-9.0593,-9.0593,-9.0593,-9.0593,-9.0593,-9.0593,-9.0593,-9.0593,-9.0593,-9.0593,-9.0593,-9.0593,-9.0593,-9.0669,-9.0746,-9.0746,-9.1281,-9.193,-9.193,0.0,0.0,0.0,0.0,0.0,0.0,0.0,0.0,0.0,0.0,0.0,0.0,0.0,0.0,0.0,0.0,0.0,0.0,0.0,0.0,0.0,0.0,0.0,0.0,-9.5675,-9.6019,-9.6783,-9.7073,-9.7149,-9.705,-9.7761,-9.8653,-9.9598,-9.9794,-10.032,-10.1192,-10.1289,-10.1289,-10.1289,-10.1289,0.0,0.0,0.0,-10.1289,-10.1289,-10.1404,-10.1789,-10.2597,-10.2712,-10.3212,-10.4097,-10.4789,-10.5174,-10.529,-10.6097,-10.6405,-10.6405,-10.6385,-10.6385,-10.6385,-10.6385,-10.6405,-10.6405,-10.6405,-10.6405,-10.6405,0.0,0.0,0.0,0.0,0.0,0.0,0.0,0.0,0.0,-9.514,-9.449,-9.4108,-9.4146,-9.3382,-9.2847,-9.2847,-9.2045,-9.1281,0.0,0.0,-9.0593,-9.0593,-9.0593,-9.0593,-9.0593,-9.0593,-9.0593,-9.0593,-9.0593,-9.0593,-9.0593,-9.0593,-9.0593,-9.0593,-9.0593,-9.0593,-9.0593,-9.0593,-9.0593,-9.0593,-9.0593,-9.0593,-9.0593,-9.0593,-9.1013,-9.1586,-9.1586,-9.2121,-9.2847,-9.2847,-9.3421,-9.4185,-9.4376,-9.4834,0.0,0.0,0.0,0.0,0.0,0.0,0.0,0.0,0.0,0.0,0.0,0.0,0.0,0.0,0.0,0.0,0.0,0.0,0.0,-9.5598,-9.6172,-9.6706,-9.6898,-9.8172,-9.8768,-9.7967,-9.8774,-9.9462,-9.9696,-10.0515,-10.1096,-10.1289,-10.1289,-10.1289,-10.1289,-10.1289,-10.1289,-10.1289,-10.1289,-10.1289,-10.1289,-10.202,-10.2404,-10.2597,-10.3289,0.0,-10.4905,-10.4982,-10.5482,-10.6213,-10.629,-10.6405,-10.6385,-10.6301,-10.6182,-10.6203,-10.6402,-10.6405,-10.6405,-10.6405,-10.6405,-10.6405,0.0,0.0,0.0,0.0,0.0,0.0,0.0,0.0,0.0,0.0,-9.5216,-9.4949,-9.4987,-9.4261,-9.3764,-9.3764,-9.2962,0.0,0.0,-9.1854,-9.1854,-9.1854,-9.1854,-9.1663,-9.1204,-9.1204,-9.1013,-9.0593,-9.0593,-9.0593,-9.0593,-9.0593,-9.0593,-9.0593,-9.0593,-9.0593,-9.0631,-9.1052,-9.1204,-9.1243,-9.1701,-9.1854,-9.1816,-9.1357,-9.1739,-9.2465,-9.2465,-9.3,-9.3764,-9.3764,-9.4299,-9.4987,-9.4987,-9.5293,-9.5598,0.0,0.0,0.0,0.0,0.0,0.0,0.0,0.0,0.0,0.0,0.0,0.0,0.0,0.0,-9.5598,-9.5598,0.0,-9.5751,-9.6172,-9.663,-9.7203,-9.8044,-9.8953,-9.9297,-9.8808,-9.972,-10.0386,-10.0386,-10.0878,-10.1307,-10.1308,-10.1289,-10.1289,-10.1289,-10.1289,-10.1289,-10.1289,-10.1289,-10.152,-10.1904,-10.2404,-10.302,-10.3905,-10.4289,-10.4905,-10.579,-10.579,-10.602,-10.6405,-10.6405,-10.6405,-10.6405,-10.6305,-10.6322,-10.6284,-10.6423,-10.6405,-10.6405,-10.6405,-10.6405,-10.6405,0.0,0.0,0.0,0.0,0.0,0.0,0.0,0.0,0.0,0.0,-9.5598,-9.5598,-9.5598,-9.5025,-9.4567,0.0,0.0,0.0,0.0,-9.3115,-9.3115,-9.3115,-9.3115,-9.2771,-9.2083,-9.2045,-9.1739,-9.109,-9.109,-9.109,-9.109,-9.109,-9.109,-9.109,-9.109,-9.109,-9.1128,-9.1778,-9.2045,-9.2121,-9.2809,-9.3191,-9.3268,-9.258,-9.2733,-9.3344,-9.3344,-9.3917,-9.4643,-9.4643,-9.5064,-9.5598,-9.5598,-9.5598,-9.5598,-9.5598,-9.5598,0.0,0.0,0.0,0.0,0.0,0.0,0.0,0.0,-9.5598,-9.5598,-9.5598,-9.5598,-9.5598,-9.5598,-9.5751,-9.6095,-9.6783,-9.7165,-9.7853,-9.919,-9.9557,-9.9656,-9.9656,-10.0508,-10.1,-10.1,-10.1088,-10.119,-10.1308,-10.1289,-10.1289,-10.1289,-10.1289,-10.1289,-10.1289,-10.152,-10.1904,-10.2597,-10.2904,-10.3789,-10.5097,-10.529,-10.5713,-10.6405,-10.6423,-10.6402,-10.6402,-10.6402,-10.6326,-10.6305,-10.6385,-10.6385,-10.6402,-10.6385,-10.6405,-10.6405,-10.6405,-10.6405,-10.6405,0.0,0.0,0.0,0.0,0.0,0.0,0.0,0.0,0.0,0.0,0.0,0.0,0.0,0.0,0.0,0.0,0.0,0.0,-9.3153,-9.3115,-9.3115,-9.3115,-9.3115,-9.3038,-9.2962,-9.2962,-9.2924,-9.2809,-9.2809,-9.2809,-9.2809,-9.2809,-9.2809,-9.2809,-9.2809,-9.2809,-9.2847,-9.2924,-9.2962,-9.2962,-9.3077,-9.3573,-9.4261,-9.407,-9.4146,-9.4261,-9.4261,-9.4796,-9.5484,-9.5484,-9.5522,-9.5598,-9.5598,-9.5598,-9.5598,-9.5598,-9.5598,-9.5598,-9.5598,-9.5598,-9.5598,-9.5598,-9.5598,-9.5598,0.0,-9.5598,-9.5598,-9.5598,-9.5598,-9.5598,-9.5598,-9.6248,-9.6783,-9.6898,-9.8158,-9.919,-9.9381,-10.0084,-10.0611,-10.0611,-10.0897,-10.1,-10.1,-10.1188,-10.1308,-10.1289,-10.1289,-10.1289,-10.1289,-10.1289,-10.1289,-10.1289,-10.2097,-10.252,-10.2597,-10.4097,-10.4905,-10.5097,-10.5905,-10.629,-10.6405,-10.6301,-10.622,-10.622,-10.622,-10.6194,-10.6128,-10.6284,-10.6305,-10.6182,-10.6402,-10.6405,-10.6405,-10.6405,-10.6405,-10.6405,0.0,0.0,0.0,0.0,0.0,0.0,0.0,0.0,0.0,0.0,0.0,0.0,0.0,0.0,0.0,0.0,0.0,0.0,-9.4567,-9.4567,-9.4567,-9.4567,-9.4567,-9.4338,-9.3879,-9.3879,-9.3612,-9.3115,-9.3115,-9.3115,-9.3115,-9.3115,-9.3115,-9.3115,-9.3115,-9.3115,-9.3115,-9.365,-9.3879,-9.3917,-9.4376,-9.4758,-9.5102,-9.5064,-9.5064,-9.5102,-9.5102,-9.5293,0.0,0.0,-9.5598,-9.5598,-9.5598,-9.5598,-9.5598,-9.5598,-9.5598,-9.5598,-9.5598,-9.5598,-9.5598,-9.5598,-9.5598,-9.5598,-9.5598,-9.5598,-9.5598,-9.5598,-9.5598,-9.5751,-9.6248,-9.663,-9.7203,-9.8197,-9.8923,-9.9572,-9.9992,-10.0489,-10.0802,-10.0696,-10.0891,-10.1004,-10.1106,-10.1088,-10.1188,-10.1308,-10.1307,-10.1307,-10.1308,-10.1289,-10.152,-10.202,-10.2404,-10.3097,-10.3982,-10.4713,-10.5308,-10.5686,-10.6109,-10.6182,-10.6216,-10.6177,-10.6182,-10.6284,-10.6284,-10.6301,-10.6182,-10.6402,-10.6402,-10.6305,-10.6385,-10.6405,-10.6405,-10.6405,-10.6405,-10.6405,0.0,0.0,0.0,0.0,0.0,0.0,0.0,0.0,0.0,0.0,0.0,0.0,0.0,0.0,0.0,0.0,0.0,0.0,0.0,-9.5598,-9.5598,-9.5598,-9.5598,-9.5331,-9.4758,-9.472,-9.4414,-9.3803,-9.3803,-9.3803,-9.3803,-9.3803,-9.3803,-9.3803,-9.3803,-9.3803,-9.3841,-9.4452,-9.472,-9.4796,-9.5369,-9.5598,-9.5598,-9.5598,-9.5598,-9.5598,-9.5598,-9.5598,0.0,0.0,-9.5598,-9.5598,-9.5598,-9.5598,-9.5598,-9.5598,-9.5598,-9.5598,-9.5598,-9.5598,-9.5598,-9.5598,-9.5598,-9.5598,-9.5598,-9.5598,-9.5598,-9.5598,-9.5789,-9.6133,-9.6783,-9.728,-9.8006,-9.919,-9.9572,-9.9916,-10.0489,-10.0673,-10.0719,-10.0688,-10.0787,-10.1017,-10.1126,-10.1085,-10.1126,-10.1307,-10.121,-10.121,-10.1308,-10.1289,-10.1712,-10.2597,-10.2789,-10.3577,-10.5018,-10.5287,-10.5686,-10.6117,-10.6117,-10.6074,-10.6106,-10.6194,-10.6182,-10.6301,-10.6301,-10.6301,-10.6322,-10.6305,-10.6305,-10.6326,-10.6385,-10.6405,-10.6405,-10.6405,-10.6405,-10.6405,0.0,0.0,0.0,0.0,0.0,0.0,0.0,0.0,0.0,0.0,0.0,0.0,0.0,0.0,0.0,0.0,0.0,0.0,0.0,-9.5598,-9.5598,-9.5598,-9.5598,-9.5598,-9.556,-9.556,-9.556,-9.5522,-9.5522,-9.5522,-9.5522,-9.5522,-9.5522,-9.5522,-9.5522,-9.5522,-9.5522,-9.556,-9.556,-9.556,-9.5598,-9.5598,-9.5598,-9.5598,-9.5598,-9.5598,-9.5598,0.0,0.0,0.0,-9.5598,-9.5598,-9.5598,-9.5598,-9.5598,-9.5598,-9.5598,-9.5598,-9.5598,-9.5598,-9.5598,-9.5598,-9.5598,-9.5598,-9.5598,-9.5598,-9.5598,-9.5598,-9.6286,-9.6859,-9.6898,-9.8235,-9.9343,-9.9381,-10.0107,-10.0604,-10.0604,-10.0604,-10.0688,-10.0802,-10.0673,-10.0719,-10.0979,-10.1106,-10.1206,-10.1188,-10.1307,-10.1308,-10.1289,-10.1289,-10.1712,-10.2597,-10.3405,-10.419,-10.4893,-10.57,-10.6096,-10.5985,-10.5985,-10.609,-10.6199,-10.6199,-10.6096,-10.5985,-10.5985,-10.5985,-10.6007,-10.6194,-10.6199,-10.622,-10.6326,-10.6405,-10.6405,-10.6405,-10.6405,-10.6405,0.0,0.0,0.0,0.0,0.0,0.0,0.0,0.0,0.0,0.0,0.0,0.0,0.0,0.0,0.0,0.0,0.0,0.0,0.0,-9.5598,-9.5598,-9.5598,-9.5598,-9.5598,-9.5598,-9.5598,-9.5598,-9.5598,-9.5598,-9.5598,-9.5598,-9.5598,-9.5598,-9.5598,-9.5598,-9.5598,-9.5598,-9.5598,-9.5598,-9.5598,-9.5598,-9.5598,-9.5598,-9.5598,-9.5598,-9.5598,0.0,0.0,0.0,0.0,0.0,0.0,-9.5598,-9.5598,-9.5598,-9.5598,-9.5598,-9.5598,-9.5598,-9.5598,-9.5598,-9.5598,-9.5598,-9.5598,-9.5598,-9.5598,-9.5598,-9.5598,-9.6286,-9.705,-9.7623,-9.8617,-9.9572,-10.0107,-10.0413,-10.0604,-10.0604,-10.0711,-10.0719,-10.0711,-10.0802,-10.0891,-10.0891,-10.0897,-10.1021,-10.1206,-10.1208,-10.1287,-10.1308,-10.1789,-10.248,-10.3304,-10.4111,-10.4893,-10.5591,-10.5898,-10.5985,-10.5909,-10.5909,-10.6016,-10.609,-10.609,-10.5991,-10.5985,-10.5985,-10.5985,-10.5985,-10.5991,-10.6096,-10.6199,-10.6203,-10.6305,-10.6405,-10.6405,-10.6405,-10.6405,0.0,0.0,0.0,0.0,0.0,0.0,0.0,0.0,0.0,0.0,0.0,0.0,0.0,0.0,0.0,0.0,0.0,0.0,0.0,0.0,-9.5598,-9.5598,-9.5598,-9.5598,-9.5598,-9.5598,-9.5598,-9.5598,-9.5598,-9.5598,-9.5598,-9.5598,-9.5598,-9.5598,-9.5598,-9.5598,-9.5598,-9.5598,-9.5598,-9.5598,-9.5598,-9.5598,-9.5598,-9.5598,-9.5598,0.0,0.0,0.0,0.0,0.0,0.0,0.0,-9.5598,-9.5598,-9.5598,-9.5598,-9.5598,-9.5598,-9.5598,-9.5598,-9.5598,-9.5598,-9.5598,-9.5598,-9.5598,-9.5598,-9.5675,-9.5981,-9.6745,-9.7585,-9.8426,-9.9266,-9.9992,-10.0489,-10.0604,-10.0604,-10.0604,-10.0711,-10.0696,-10.0604,-10.0787,-10.0891,-10.0703,-10.0809,-10.1017,-10.1206,-10.1208,-10.1402,-10.1692,-10.2288,-10.2996,-10.4087,-10.462,-10.5186,-10.5993,-10.5993,-10.5909,-10.5807,-10.5892,-10.5886,-10.5993,-10.6001,-10.5985,-10.5985,-10.5978,-10.5978,-10.5985,-10.5985,-10.609,-10.6199,-10.6319,-10.6305,-10.6405,-10.6405,-10.6405,-10.6405,0.0,0.0,0.0,0.0,0.0,0.0,0.0,0.0,0.0,0.0,0.0,0.0,0.0,0.0,0.0,0.0,0.0,0.0,0.0,0.0,0.0,0.0,0.0,0.0,0.0,-9.5598,-9.5598,-9.5598,-9.5598,-9.5598,-9.5598,-9.5598,-9.5598,-9.5598,-9.5598,-9.5598,-9.5598,-9.5598,-9.5598,-9.5598,-9.5598,-9.5598,-9.5598,-9.5598,0.0,0.0,0.0,0.0,0.0,0.0,-9.5598,-9.5598,-9.5598,-9.5598,-9.5598,-9.5598,-9.5598,-9.5598,-9.5598,-9.5598,-9.5598,-9.5598,-9.5598,-9.5598,-9.5598,-9.5598,-9.5866,-9.6706,-9.7547,-9.8388,-9.9228,-10.0107,-10.0604,-10.0604,-10.0604,-10.0604,-10.0604,-10.0604,-10.0604,-10.0604,-10.0719,-10.078,-10.0589,-10.0793,-10.1102,-10.1206,-10.121,-10.1692,-10.25,-10.2476,-10.3182,-10.4795,-10.4917,-10.5189,-10.5916,-10.5916,-10.5807,-10.571,-10.5792,-10.5878,-10.5901,-10.5993,-10.6023,-10.6001,-10.5886,-10.5909,-10.6023,-10.5985,-10.609,-10.6199,-10.6305,-10.6385,-10.6405,-10.6405,-10.6405,-10.6405,0.0,0.0,0.0,0.0,0.0,0.0,0.0,0.0,0.0,0.0,0.0,0.0,0.0,0.0,0.0,0.0,0.0,0.0,0.0,0.0,0.0,0.0,0.0,0.0,0.0,0.0,0.0,0.0,0.0,-9.5598,-9.5598,-9.5598,-9.5598,0.0,-9.5598,-9.5598,-9.5598,-9.5598,-9.5598,-9.5598,0.0,-9.5598,-9.5598,0.0,0.0,0.0,0.0,0.0,0.0,-9.5598,-9.5598,-9.5598,-9.5598,-9.5598,-9.5598,-9.5598,-9.5598,-9.5598,-9.5598,-9.5598,-9.5598,-9.5598,-9.5598,-9.5598,-9.5598,-9.5598,-9.5866,-9.6706,-9.7547,-9.8388,-9.9228,-10.0107,-10.0604,-10.0604,-10.0604,-10.0604,-10.0604,-10.0604,-10.0604,-10.0604,-10.0719,-10.0825,-10.078,-10.0875,-10.1021,-10.1004,-10.1123,-10.151,-10.2399,-10.291,-10.3684,-10.4591,-10.5296,-10.5724,-10.5811,-10.5811,-10.5807,-10.5894,-10.5901,-10.5878,-10.5878,-10.5924,-10.5916,-10.5783,-10.5892,-10.5901,-10.5909,-10.5978,-10.609,-10.6199,-10.6182,-10.6284,-10.6405,-10.6405,-10.6405,-10.6405,0.0,0.0,0.0,0.0,0.0,0.0,0.0,0.0,0.0,0.0,0.0,0.0,0.0,0.0,0.0,0.0,0.0,0.0,0.0,0.0,0.0,0.0,0.0,0.0,0.0,0.0,0.0,0.0,0.0,0.0,0.0,-9.5598,-9.5598,0.0,-9.5598,-9.5598,-9.5598,0.0,0.0,0.0,0.0,0.0,0.0,0.0,0.0,0.0,0.0,0.0,0.0,-9.5598,-9.5598,-9.5598,-9.5598,-9.5598,-9.5598,-9.5598,-9.5598,-9.5598,-9.5598,-9.5598,-9.5598,-9.5598,-9.5598,-9.5598,-9.5598,-9.5598,-9.5942,-9.7165,-9.7815,-9.8464,-9.9687,-10.0298,-10.0604,-10.0604,-10.0604,-10.0604,-10.0604,-10.0604,-10.0604,-10.0604,-10.0719,-10.0802,-10.0719,-10.0809,-10.0897,-10.0897,-10.1324,-10.1903,-10.2812,-10.3585,-10.43,-10.5112,-10.5601,-10.5797,-10.5724,-10.5724,-10.5797,-10.5901,-10.5792,-10.5807,-10.5807,-10.5807,-10.5783,-10.5821,-10.5892,-10.5986,-10.6001,-10.6106,-10.6216,-10.6301,-10.6301,-10.6305,-10.6405,-10.6405,-10.6405,-10.6405,0.0,0.0,0.0,0.0,0.0,0.0,0.0,0.0,0.0,0.0,0.0,0.0,0.0,0.0,0.0,0.0,0.0,0.0,0.0,0.0,0.0,0.0,0.0,0.0,0.0,0.0,0.0,0.0,0.0,0.0,0.0,0.0,0.0,0.0,0.0,0.0,0.0,0.0,0.0,0.0,0.0,0.0,0.0,0.0,0.0,0.0,0.0,0.0,0.0,-9.5598,-9.5598,-9.5598,-9.5598,-9.5598,-9.5598,-9.5598,-9.5598,-9.5598,-9.5598,-9.5598,-9.5598,-9.5598,-9.5598,-9.5598,-9.5598,-9.5598,-9.6095,-9.7776,-9.812,-9.8617,-10.0298,-10.0604,-10.0604,-10.0604,-10.0604,-10.0604,-10.0604,-10.0604,-10.0604,-10.0604,-10.0696,-10.0681,-10.0604,-10.0696,-10.0802,-10.0802,-10.1696,-10.2682,-10.3394,-10.4201,-10.5012,-10.5816,-10.5773,-10.5686,-10.571,-10.5686,-10.5686,-10.571,-10.5686,-10.5724,-10.5724,-10.5724,-10.5797,-10.5878,-10.5901,-10.6001,-10.6199,-10.622,-10.6322,-10.6405,-10.6405,-10.6405,-10.6405,-10.6405,-10.6405,-10.6405,0.0,0.0,0.0,0.0,0.0,0.0,0.0,0.0,0.0,0.0,-9.5598,-9.5598,0.0,0.0,0.0,0.0,0.0,0.0,0.0,0.0,0.0,0.0,0.0,0.0,0.0,0.0,0.0,0.0,0.0,0.0,0.0,0.0,0.0,0.0,0.0,0.0,0.0,0.0,0.0,0.0,0.0,0.0,0.0,0.0,0.0,0.0,0.0,0.0,0.0,0.0,-9.5598,-9.5598,-9.5598,-9.5598,-9.5598,-9.5598,-9.5598,-9.5598,-9.5598,-9.5598,-9.5598,-9.5598,-9.5598,-9.5598,-9.5598,-9.5598,-9.6095,-9.7776,-9.812,-9.8617,-10.0298,-10.0604,-10.0604,-10.0604,-10.0604,-10.0604,-10.0604,-10.0604,-10.0604,-10.0604,-10.0627,-10.0589,-10.0604,-10.0627,-10.0589,-10.0589,-10.2103,-10.3091,-10.3297,-10.3985,-10.4793,-10.571,-10.5686,-10.5811,-10.5892,-10.5811,-10.5811,-10.5892,-10.5811,-10.5724,-10.5724,-10.5724,-10.5797,-10.5901,-10.5993,-10.6106,-10.6199,-10.6305,-10.6385,-10.6405,-10.6405,-10.6405,-10.6405,-10.6405,-10.6405,-10.6405,0.0,0.0,0.0,0.0,0.0,0.0,0.0,-9.5598,-9.5598,-9.5598,-9.5598,-9.5598,-9.5598,-9.5598,-9.5598,0.0,0.0,0.0,0.0,0.0,0.0,0.0,0.0,0.0,0.0,0.0,-9.5598,-9.5598,0.0,-9.5598,-9.5598,-9.5598,-9.5598,-9.5598,0.0,0.0,0.0,0.0,0.0,0.0,0.0,0.0,0.0,0.0,0.0,0.0,0.0,0.0,0.0,0.0,-9.5598,-9.5598,-9.5598,-9.5598,-9.5598,-9.5598,-9.5598,-9.5598,-9.5598,-9.5598,-9.5598,-9.5598,-9.5598,-9.5598,-9.5598,-9.5942,-9.663,-9.7853,-9.8464,-9.9152,-10.0413,-10.0604,-10.0604,-10.0604,-10.0604,-10.0604,-10.0604,-10.0604,-10.0604,-10.0604,-10.0604,-10.0604,-10.0604,-10.0604,-10.0795,-10.1215,-10.2514,-10.3188,-10.322,-10.4372,-10.5303,-10.5724,-10.5724,-10.571,-10.5821,-10.571,-10.571,-10.5821,-10.571,-10.5724,-10.5686,-10.5797,-10.5892,-10.5993,-10.6106,-10.6216,-10.6284,-10.6423,-10.6405,-10.6405,-10.6405,-10.6405,-10.6405,-10.6405,-10.6405,-10.6405,0.0,0.0,0.0,0.0,0.0,0.0,0.0,-9.5598,-9.5598,-9.5598,-9.5598,-9.5598,-9.5598,-9.5598,-9.5598,0.0,0.0,0.0,0.0,0.0,0.0,0.0,0.0,0.0,0.0,0.0,0.0,-9.5598,-9.5598,0.0,0.0,0.0,0.0,0.0,-9.5598,-9.5598,-9.5598,0.0,0.0,0.0,0.0,-9.5598,0.0,0.0,0.0,0.0,0.0,0.0,0.0,0.0,-9.5598,-9.5598,-9.5598,-9.5598,-9.5598,-9.5598,-9.5598,-9.5598,-9.5598,-9.5598,-9.5598,-9.5598,-9.5598,-9.5598,-9.5598,-9.6286,-9.7127,-9.7929,-9.8808,-9.9649,-10.0489,-10.0604,-10.0604,-10.0604,-10.0604,-10.0604,-10.0604,-10.0604,-10.0604,-10.0604,-10.0604,-10.0604,-10.0604,-10.0604,-10.0986,-10.1826,-10.2896,-10.3508,-10.3699,-10.4998,-10.5724,-10.5724,-10.5724,-10.5724,-10.5724,-10.5724,-10.5724,-10.5724,-10.5724,-10.5724,-10.5686,-10.5792,-10.5909,-10.5985,-10.6117,-10.6301,-10.6405,-10.6405,-10.6405,-10.6405,-10.6405,-10.6405,-10.6405,-10.6405,-10.6405,-10.6405,0.0,0.0,0.0,0.0,0.0,0.0,0.0,-9.5598,-9.5598,-9.5598,-9.5598,-9.5598,-9.5598,-9.5598,-9.5598,0.0,0.0,0.0,0.0,0.0,0.0,0.0,0.0,0.0,0.0,0.0,0.0,-9.5598,-9.5598,0.0,0.0,0.0,0.0,0.0,0.0,-9.5598,-9.5598,-9.5598,0.0,0.0,0.0,0.0,0.0,0.0,0.0,0.0,0.0,-9.5598,-9.5598,-9.5598,-9.5598,-9.5598,-9.5598,-9.5598,-9.5598,-9.5598,-9.5598,-9.5598,-9.5598,-9.5598,-9.5598,-9.5598,-9.5598,-9.5598,-9.5598,-9.6286,-9.7127,-9.7929,-9.8808,-9.9649,-10.0489,-10.0604,-10.0604,-10.0604,-10.0604,-10.0604,-10.0604,-10.0604,-10.0604,-10.0604,-10.0604,-10.0604,-10.0604,-10.0604,-10.0986,-10.1826,-10.3393,-10.4616,-10.5418,-10.5609,-10.5724,-10.5724,-10.5724,-10.5724,-10.5724,-10.5724,-10.5724,-10.5724,-10.5724,-10.5724,-10.5686,-10.5792,-10.5909,-10.5985,-10.6117,-10.6301,-10.6405,-10.6405,-10.6405,-10.6405,-10.6405,-10.6405,-10.6405,-10.6405,-10.6405,-10.6405,0.0,0.0,0.0,0.0,0.0,0.0,-9.5598,-9.5598,-9.5598,-9.5598,-9.5598,-9.5598,-9.5598,-9.5598,-9.5598,-9.5598,0.0,0.0,0.0,0.0,0.0,0.0,0.0,0.0,0.0,0.0,-9.5598,-9.5598,-9.5598,0.0,0.0,0.0,0.0,0.0,0.0,-9.5598,-9.5598,-9.5598,0.0,0.0,0.0,0.0,0.0,0.0,0.0,0.0,0.0,0.0,-9.5598,-9.5598,-9.5598,-9.5598,-9.5598,-9.5598,-9.5598,-9.5598,-9.5598,-9.5598,-9.5598,-9.5598,-9.5598,-9.5598,-9.5598,-9.5598,-9.5598,-9.6668,-9.77,-9.8044,-9.919,-10.0183,-10.0489,-10.0604,-10.0604,-10.0604,-10.0604,-10.0604,-10.0604,-10.0604,-10.0604,-10.0604,-10.0604,-10.0604,-10.0604,-10.0604,-10.1215,-10.2591,-10.4195,-10.5303,-10.5724,-10.5724,-10.5724,-10.5724,-10.5724,-10.5724,-10.5724,-10.5724,-10.5724,-10.5724,-10.5724,-10.5672,-10.5807,-10.5886,-10.6023,-10.6096,-10.628,-10.6402,-10.6405,-10.6405,-10.6405,-10.6405,-10.6405,-10.6405,-10.6405,-10.6405,-10.6405,-10.6405,0.0,0.0,0.0,0.0,0.0,-9.5598,-9.5598,-9.5598,-9.5598,-9.5598,-9.5598,-9.5598,-9.5598,-9.5598,-9.5598,-9.5598,-9.5598,0.0,0.0,0.0,0.0,0.0,0.0,0.0,0.0,0.0,-9.5598,-9.5598,-9.5598,-9.5598,0.0,0.0,-9.5598,-9.5598,0.0,0.0,0.0,0.0,0.0,0.0,0.0,0.0,0.0,0.0,0.0,0.0,0.0,0.0,0.0,0.0,0.0,-9.5598,-9.5598,0.0,0.0,-9.5598,-9.5598,-9.5598,-9.5598,-9.5598,-9.5598,-9.5598,-9.5598,-9.5598,-9.5598,-9.6898,-9.812,-9.812,-9.9419,-10.0604,-10.0604,-10.0604,-10.0604,0.0,0.0,-10.0604,-10.0604,-10.0604,-10.0604,-10.0604,-10.0604,-10.0604,-10.0604,-10.11,-10.1903,-10.3087,-10.4807,-10.5724,-10.5724,-10.5724,-10.5724,-10.5724,-10.5724,-10.5724,-10.5724,-10.5724,-10.5724,-10.5724,-10.5724,-10.5797,-10.5901,-10.6016,-10.609,-10.6199,-10.6305,-10.6405,-10.6405,-10.6405,-10.6405,-10.6405,-10.6405,-10.6405,-10.6405,-10.6405,-10.6405,-10.6405,0.0,0.0,0.0,0.0,0.0,0.0,-9.5598,-9.5598,-9.5598,-9.5598,-9.5598,-9.5598,-9.5598,-9.5598,-9.5598,-9.5598,-9.5598,0.0,0.0,0.0,0.0,0.0,0.0,0.0,0.0,0.0,-9.5598,-9.5598,-9.5598,-9.5598,-9.5598,-9.5598,-9.5598,-9.5598,0.0,0.0,0.0,0.0,0.0,0.0,0.0,0.0,0.0,0.0,0.0,0.0,0.0,0.0,0.0,0.0,0.0,0.0,0.0,-9.5598,0.0,0.0,-9.5598,-9.5598,-9.5598,-9.5598,-9.5598,-9.5598,-9.5598,-9.5598,-9.5598,-9.6898,-9.812,-9.812,-9.9419,-10.0604,-10.0604,-10.0604,-10.0604,-10.0604,0.0,0.0,-10.0604,-10.0604,-10.0604,-10.0604,-10.0604,-10.0604,-10.0604,-10.2209,-10.3202,-10.3202,-10.4807,-10.5724,-10.5724,-10.5724,-10.5724,-10.5724,-10.5724,-10.5724,-10.5724,-10.5724,-10.5724,-10.5724,-10.5724,-10.5797,-10.5901,-10.6016,-10.609,-10.6199,-10.6305,-10.6405,-10.6405,-10.6405,-10.6405,-10.6405,-10.6405,-10.6405,-10.6405,-10.6405,-10.6405,-10.6405,0.0,0.0,0.0,0.0,0.0,0.0,0.0,-9.5598,-9.5598,-9.5598,-9.5598,-9.5598,-9.5598,-9.5598,-9.5598,-9.5598,-9.5598,0.0,0.0,0.0,0.0,0.0,0.0,0.0,0.0,-9.5598,-9.5598,-9.5598,-9.5598,-9.5598,-9.5598,-9.5598,-9.5598,-9.5598,-9.5598,-9.5598,0.0,0.0,0.0,0.0,0.0,0.0,-9.5598,0.0,0.0,0.0,0.0,0.0,0.0,0.0,0.0,0.0,0.0,0.0,0.0,0.0,0.0,-9.5598,-9.5598,-9.5598,-9.5598,-9.5598,-9.5598,-9.5598,-9.5598,-9.6898,-9.812,-9.812,-9.9419,-10.0604,-10.0604,-10.0604,-10.0604,-10.0604,-10.0604,0.0,-10.0604,-10.0604,-10.0604,-10.0604,-10.0604,-10.0604,-10.0604,-10.2209,-10.3202,-10.3202,-10.4807,-10.5724,-10.5724,-10.5724,-10.5724,-10.5724,-10.5724,-10.5724,-10.5724,-10.5724,-10.5724,-10.5724,-10.5724,-10.5807,-10.6016,-10.6001,-10.6096,-10.6305,-10.6385,-10.6405,-10.6405,-10.6405,-10.6405,-10.6405,-10.6405,-10.6405,-10.6405,-10.6405,-10.6405,-10.6405,0.0,0.0,0.0,0.0,0.0,0.0,0.0,-9.5598,-9.5598,-9.5598,-9.5598,-9.5598,-9.5598,-9.5598,-9.5598,-9.5598,-9.5598,0.0,0.0,0.0,0.0,0.0,0.0,0.0,-9.5598,-9.5598,-9.5598,-9.5598,-9.5598,-9.5598,-9.5598,-9.5598,-9.5598,-9.5598,-9.5598,-9.5598,0.0,0.0,0.0,0.0,0.0,0.0,-9.5598,0.0,0.0,0.0,0.0,0.0,0.0,0.0,0.0,0.0,0.0,0.0,0.0,0.0,-9.5598,0.0,-9.5598,-9.5598,-9.5598,-9.5598,-9.5598,-9.5598,-9.5598,-9.6898,-9.812,-9.812,-9.9419,-10.0604,-10.0604,-10.0604,-10.0604,-10.0604,-10.0604,-10.0604,-10.0604,-10.0604,-10.0604,-10.0604,-10.0604,-10.0604,-10.0604,-10.2209,-10.3202,-10.3202,-10.4807,-10.5724,-10.5724,-10.5724,-10.5724,-10.5724,-10.5724,-10.5724,-10.5724,-10.5724,-10.5724,-10.5724,-10.5724,-10.5807,-10.5985,-10.5985,-10.6117,-10.6405,-10.6405,-10.6405,0.0,-10.6405,-10.6405,-10.6405,-10.6405,-10.6405,-10.6405,-10.6405,-10.6405,-10.6405,0.0,0.0,0.0,0.0,0.0,0.0,0.0,-9.5637,-9.5598,-9.5598,-9.5598,-9.5598,-9.5598,-9.5598,-9.5598,-9.5598,0.0,0.0,0.0,0.0,0.0,0.0,0.0,0.0,-9.5598,-9.5598,-9.5598,-9.5598,-9.5598,-9.5598,-9.5598,-9.5598,-9.5598,-9.5598,-9.5598,-9.5598,0.0,0.0,0.0,0.0,-9.5598,-9.5598,0.0,0.0,0.0,0.0,0.0,0.0,0.0,0.0,0.0,0.0,0.0,0.0,0.0,0.0,0.0,0.0,0.0,-9.5598,-9.5598,-9.5598,-9.5598,-9.5598,-9.5598,-9.6898,0.0,-9.812,-9.9419,-10.0604,-10.0604,-10.0604,-10.0604,-10.0604,-10.0604,-10.0604,-10.0604,-10.0604,-10.0604,-10.0604,-10.0604,-10.0604,-10.0604,-10.2209,-10.3202,-10.3202,-10.4807,-10.5724,-10.5724,-10.5724,-10.5724,-10.5724,-10.5724,-10.5724,-10.5724,-10.5724,-10.5724,-10.5724,-10.5686,-10.5792,-10.5985,-10.5985,-10.6194,-10.6405,-10.6405,-10.6405,-10.6405,-10.6405,-10.6405,-10.6405,-10.6405,-10.6405,-10.6405,-10.6405,-10.6405,-10.6405,0.0,0.0,0.0,0.0,0.0,0.0,0.0,0.0,0.0,0.0,-9.5598,-9.5598,-9.5598,-9.5598,-9.5598,0.0,0.0,0.0,0.0,0.0,0.0,0.0,0.0,0.0,-9.5598,-9.5598,-9.5598,-9.5598,-9.5598,-9.5598,-9.5598,-9.5598,-9.5598,-9.5598,-9.5598,-9.5598,0.0,0.0,0.0,0.0,-9.5598,-9.5598,0.0,0.0,0.0,0.0,-9.5598,-9.5598,0.0,0.0,0.0,0.0,0.0,0.0,0.0,0.0,-9.5598,0.0,0.0,0.0,-9.5598,-9.5598,-9.5598,-9.5598,0.0,-9.6898,-9.812,-9.812,-9.9419,-10.0604,-10.0604,-10.0604,-10.0604,-10.0604,-10.0604,-10.0604,-10.0604,-10.0604,-10.0604,-10.0604,-10.0604,-10.0604,-10.0604,-10.2209,-10.3202,-10.3202,-10.4807,-10.5724,-10.5724,-10.5724,-10.5724,-10.5724,-10.5724,-10.5724,-10.5724,-10.5724,-10.5724,-10.5686,-10.5783,-10.5924,-10.5985,-10.6112,-10.6203,-10.6405,-10.6405,-10.6405,-10.6405,-10.6405,-10.6405,-10.6405,-10.6405,-10.6405,-10.6405,-10.6405,-10.6405,-10.6405,0.0,0.0,0.0,0.0,0.0,0.0,0.0,0.0,0.0,0.0,0.0,0.0,0.0,0.0,0.0,0.0,0.0,0.0,0.0,0.0,0.0,0.0,0.0,-9.5598,-9.5598,-9.5598,-9.5598,-9.5598,-9.5598,-9.5598,-9.5598,-9.5598,-9.5598,-9.5598,-9.5598,-9.5598,-9.5598,-9.5598,-9.5598,-9.5598,-9.5598,0.0,0.0,0.0,0.0,0.0,-9.5598,-9.5598,0.0,-9.5598,-9.5598,-9.5598,0.0,0.0,0.0,0.0,-9.5598,-9.5598,-9.5598,-9.5598,-9.5598,-9.5598,-9.5598,-9.5598,-9.5598,-9.6898,-9.812,-9.812,-9.9419,-10.0604,-10.0604,-10.0604,-10.0604,-10.0604,-10.0604,-10.0604,-10.0604,-10.0604,-10.0604,-10.0604,-10.0604,-10.0604,-10.0604,-10.2209,-10.3202,-10.3202,-10.4807,-10.5724,-10.5724,-10.5724,-10.5724,-10.5724,-10.5724,-10.5724,-10.5724,-10.5724,-10.5724,-10.5686,-10.5792,-10.5909,-10.5985,-10.6096,-10.6301,-10.6405,-10.6405,-10.6405,-10.6405,-10.6405,-10.6405,-10.6405,-10.6405,-10.6405,-10.6405,-10.6405,-10.6405,-10.6405,0.0,0.0,0.0,0.0,0.0,0.0,0.0,0.0,0.0,0.0,0.0,0.0,0.0,0.0,0.0,0.0,0.0,0.0,0.0,0.0,0.0,0.0,-9.5598,-9.5598,-9.5598,-9.5598,-9.5598,-9.5598,-9.5598,-9.5598,-9.5598,-9.5598,-9.5598,-9.5598,-9.5598,-9.5598,-9.5598,-9.5598,-9.5598,-9.5598,-9.5598,0.0,0.0,0.0,0.0,0.0,0.0,0.0,0.0,-9.5598,-9.5598,-9.5598,-9.5598,0.0,0.0,0.0,0.0,0.0,-9.5598,-9.5598,-9.5598,-9.5598,-9.5598,-9.5637,-9.5751,-9.6974,-9.8158,-9.8273,-9.9534,-10.0604,-10.0604,-10.0604,-10.0604,-10.0604,-10.0604,-10.0604,-10.0604,-10.0604,-10.0604,-10.0604,-10.0604,-10.0604,-10.0604,-10.2209,-10.3202,-10.3202,-10.4807,-10.5724,-10.5724,-10.5724,-10.5724,-10.5724,-10.5724,-10.5724,-10.5724,-10.5724,-10.5724,-10.5686,-10.5792,-10.5894,-10.5985,-10.6194,-10.6322,-10.6405,-10.6405,-10.6405,-10.6405,-10.6405,-10.6405,-10.6405,-10.6405,-10.6405,-10.6405,-10.6405,-10.6405,-10.6405,0.0,0.0,0.0,0.0,0.0,0.0,0.0,0.0,0.0,0.0,0.0,0.0,0.0,0.0,0.0,0.0,0.0,0.0,0.0,0.0,0.0,-9.5598,-9.5598,-9.5598,-9.5598,-9.5598,-9.5598,-9.5598,-9.5598,-9.5598,-9.5598,-9.5598,-9.5598,-9.5598,-9.5598,-9.5598,-9.5598,-9.5598,-9.5598,-9.5598,-9.5598,0.0,0.0,0.0,0.0,0.0,0.0,0.0,0.0,-9.5598,-9.5598,-9.5598,-9.5598,0.0,0.0,0.0,0.0,0.0,-9.5598,-9.5598,-9.5598,-9.5598,-9.5598,-9.5789,-9.6515,-9.7432,-9.8311,-9.9037,-9.9954,-10.0604,-10.0604,-10.0604,-10.0604,-10.0604,-10.0604,-10.0604,-10.0604,-10.0604,-10.0604,-10.0604,-10.0604,-10.0604,-10.0604,-10.2209,-10.3202,-10.3202,-10.4807,-10.5724,-10.5724,-10.5724,-10.5724,-10.5724,-10.5724,-10.5724,-10.5724,-10.5724,-10.5724,-10.5686,-10.5886,-10.6001,-10.5985,-10.628,-10.6385,-10.6405,-10.6405,-10.6405,-10.6405,-10.6405,-10.6405,-10.6405,-10.6405,-10.6405,-10.6405,-10.6405,-10.6405,-10.6405,0.0,0.0,0.0,0.0,0.0,0.0,0.0,0.0,0.0,0.0,0.0,0.0,0.0,0.0,0.0,0.0,0.0,0.0,0.0,0.0,-9.5598,-9.5598,-9.5598,-9.5598,-9.5598,-9.5598,-9.5598,-9.5598,-9.5598,-9.5598,-9.5598,-9.5598,-9.5598,-9.5598,-9.5598,-9.5598,-9.5598,-9.5598,-9.5598,-9.5598,0.0,0.0,0.0,0.0,0.0,0.0,0.0,0.0,0.0,0.0,-9.5598,-9.5598,-9.5598,0.0,0.0,0.0,0.0,0.0,-9.5598,-9.5598,-9.5598,-9.5598,-9.5598,-9.5828,-9.6706,-9.7509,-9.8349,-9.9228,-9.9992,-10.0604,-10.0604,-10.0604,-10.0604,-10.0604,-10.0604,-10.0604,-10.0604,-10.0604,-10.0604,-10.0604,-10.0604,-10.0604,-10.0604,-10.2209,-10.3202,-10.3202,-10.4807,-10.5724,-10.5724,-10.5724,-10.5724,-10.5724,-10.5724,-10.5724,-10.5724,-10.5724,-10.5724,-10.5686,-10.5909,-10.5985,-10.5985,-10.6301,-10.6405,-10.6405,-10.6405,-10.6405,-10.6405,-10.6405,-10.6405,-10.6405,-10.6405,-10.6405,-10.6405,-10.6405,-10.6405,-10.6405,0.0,0.0,0.0,0.0,0.0,0.0,0.0,0.0,0.0,0.0,0.0,0.0,0.0,0.0,0.0,0.0,0.0,0.0,0.0,-9.5598,-9.5598,-9.5598,-9.5598,-9.5598,-9.5598,-9.5598,-9.5598,-9.5598,-9.5598,-9.5598,-9.5598,-9.5598,-9.5598,-9.5598,-9.5598,-9.5598,-9.5598,-9.5598,-9.5598,-9.5598,0.0,0.0,0.0,0.0,0.0,0.0,0.0,0.0,0.0,0.0,0.0,0.0,0.0,0.0,0.0,0.0,-9.5598,-9.5598,-9.5598,-9.5598,-9.5598,-9.5598,-9.5598,-9.5866,-9.6936,-9.7662,-9.8426,-9.9458,-10.0183,-10.0604,-10.0604,-10.0604,-10.0604,-10.0604,-10.0604,-10.0604,-10.0604,-10.0604,-10.0604,-10.0604,-10.0604,-10.0604,-10.0604,-10.2209,-10.3202,-10.3202,-10.4807,-10.5724,-10.5724,-10.5724,-10.5724,-10.5724,-10.5724,-10.5724,-10.5724,-10.5724,-10.5686,-10.5696,-10.5871,-10.6007,-10.6106,-10.6301,-10.6405,-10.6405,-10.6405,-10.6405,-10.6405,-10.6405,-10.6405,-10.6405,-10.6405,-10.6405,-10.6405,-10.6405,-10.6405,-10.6405,0.0,0.0,0.0,0.0,0.0,0.0,0.0,0.0,0.0,0.0,0.0,0.0,0.0,0.0,0.0,0.0,0.0,0.0,0.0,-9.5598,-9.5598,-9.5598,-9.5598,-9.5598,-9.5598,-9.5598,-9.5598,-9.5598,-9.5598,-9.5598,-9.5598,-9.5598,-9.5598,-9.5598,-9.5598,-9.5598,-9.5598,-9.5598,-9.5598,-9.5598,-9.5598,0.0,0.0,0.0,0.0,0.0,0.0,0.0,0.0,0.0,0.0,0.0,0.0,0.0,0.0,0.0,-9.5598,-9.5598,-9.5598,-9.5598,-9.5598,-9.5598,-9.5598,-9.6019,-9.7662,-9.8082,-9.8579,-10.0183,-10.0604,-10.0604,-10.0604,-10.0604,-10.0604,-10.0604,-10.0604,-10.0604,-10.0604,-10.0604,-10.0604,-10.0604,-10.0604,-10.0604,-10.0604,-10.2209,-10.3202,-10.3202,-10.4807,-10.5724,-10.5724,-10.5724,-10.5724,-10.5724,-10.5724,-10.5724,-10.5724,-10.5724,-10.5773,-10.5916,-10.5993,-10.609,-10.6199,-10.6305,-10.6405,-10.6405,-10.6405,-10.6405,-10.6405,-10.6405,-10.6405,-10.6405,-10.6405,-10.6405,-10.6405,-10.6405,-10.6405,-10.6405,0.0,0.0,0.0,0.0,0.0,0.0,0.0,0.0,0.0,0.0,0.0,0.0,0.0,0.0,0.0,0.0,0.0,0.0,0.0,-9.5598,-9.5598,-9.5598,-9.5598,-9.5598,-9.5598,-9.5598,-9.5598,-9.5598,-9.5598,-9.5598,-9.5598,-9.5598,-9.5598,-9.5598,-9.5598,-9.5598,-9.5598,-9.5598,-9.5598,-9.5598,-9.5598,-9.5598,0.0,0.0,0.0,0.0,0.0,0.0,0.0,0.0,0.0,0.0,0.0,0.0,0.0,0.0,-9.5598,-9.5598,-9.5598,-9.5598,-9.5598,-9.5598,-9.5598,-9.6057,-9.7738,-9.812,-9.8579,-10.0298,-10.0604,-10.0604,-10.0604,-10.0604,-10.0604,-10.0604,-10.0604,-10.0604,-10.0604,-10.0604,-10.0604,-10.0604,-10.0604,-10.0604,-10.0604,-10.2209,-10.3202,-10.3202,-10.4807,-10.5724,-10.5724,-10.5724,-10.5724,-10.5724,-10.5724,-10.5724,-10.5724,-10.5724,-10.5783,-10.5993,-10.6001,-10.609,-10.6199,-10.6305,-10.6405,-10.6405,-10.6405,-10.6405,-10.6405,-10.6405,-10.6405,-10.6405,-10.6405,-10.6405,-10.6405,-10.6405,-10.6405,-10.6405,0.0,0.0,0.0,0.0,0.0,0.0,0.0,0.0,0.0,0.0,0.0,0.0,0.0,0.0,0.0,0.0,0.0,0.0,-9.5598,-9.5598,-9.5598,-9.5598,-9.5598,-9.5598,-9.5598,-9.5598,-9.5598,-9.5598,-9.5598,-9.5598,-9.5598,-9.5598,-9.5598,-9.5598,-9.5598,-9.5598,-9.5598,-9.5598,-9.5598,-9.5598,-9.5598,-9.5598,0.0,0.0,0.0,0.0,0.0,0.0,0.0,0.0,0.0,0.0,0.0,0.0,0.0,0.0,-9.5598,-9.5598,-9.5598,-9.5598,-9.5598,-9.5598,-9.5789,-9.6363,-9.7776,-9.812,-9.8579,-10.0298,-10.0604,-10.0604,-10.0604,-10.0604,-10.0604,-10.0604,-10.0604,-10.0604,-10.0604,-10.0604,-10.0604,-10.0604,-10.0604,-10.0604,-10.0604,-10.2209,-10.3202,-10.3202,-10.4807,-10.5724,-10.5724,-10.5724,-10.5724,-10.5724,-10.5724,-10.5724,-10.5724,-10.5672,-10.5816,-10.5985,-10.5991,-10.6096,-10.6301,-10.6402,-10.6405,-10.6405,-10.6405,-10.6405,-10.6405,-10.6405,-10.6405,-10.6405,-10.6405,-10.6405,-10.6405,-10.6405,-10.6405,-10.6405,0.0,0.0,0.0,0.0,0.0,0.0,0.0,0.0,0.0,0.0,0.0,0.0,0.0,0.0,0.0,0.0,0.0,0.0,-9.5598,-9.5598,-9.5598,-9.5598,-9.5598,-9.5598,-9.5598,-9.5598,-9.5598,-9.5598,-9.5598,-9.5598,-9.5598,-9.5598,-9.5598,-9.5598,-9.5598,-9.5598,-9.5598,-9.5598,-9.5598,-9.5598,-9.5598,-9.5598,-9.5598,0.0,0.0,0.0,0.0,0.0,0.0,0.0,0.0,0.0,0.0,0.0,0.0,0.0,-9.5598,-9.5598,-9.5598,-9.5598,-9.5598,-9.5598,-9.6248,-9.7127,-9.7929,-9.812,-9.8617,-10.0298,-10.0604,-10.0604,-10.0604,-10.0604,-10.0604,-10.0604,-10.0604,-10.0604,-10.0604,-10.0604,-10.0604,-10.0604,-10.0604,-10.0604,-10.0604,-10.2209,-10.3202,-10.3202,-10.4692,-10.5724,-10.5724,-10.5724,-10.5724,-10.5724,-10.5724,-10.5724,-10.5724,-10.5807,-10.5909,-10.5985,-10.6096,-10.6301,-10.6405,-10.6405,-10.6405,-10.6405,-10.6405,-10.6405,-10.6405,-10.6405,-10.6405,-10.6405,-10.6405,-10.6405,-10.6405,-10.6405,-10.6405,-10.6405,0.0,0.0,0.0,0.0,0.0,0.0,0.0,0.0,0.0,0.0,0.0,0.0,0.0,0.0,0.0,0.0,0.0,0.0,-9.5637,-9.5598,-9.5598,-9.5598,-9.5598,-9.5598,-9.5598,-9.5598,-9.5598,-9.5598,-9.5598,-9.5598,-9.5598,-9.5598,-9.5598,-9.5598,-9.5598,-9.5598,-9.5598,-9.5598,-9.5598,-9.5598,-9.5598,-9.5598,-9.5598,0.0,0.0,0.0,0.0,0.0,0.0,0.0,0.0,0.0,0.0,0.0,0.0,-9.5598,-9.5598,-9.5598,-9.5598,-9.5598,-9.5598,-9.5598,-9.6248,-9.7127,-9.7929,-9.8579,-9.9305,-10.0413,-10.0604,-10.0604,-10.0604,-10.0604,-10.0604,-10.0604,-10.0604,-10.0604,-10.0604,-10.0604,-10.0604,-10.0604,-10.0604,-10.0604,-10.0604,-10.1597,-10.2514,-10.3202,-10.4195,-10.5112,-10.5686,-10.5724,-10.5724,-10.5724,-10.5724,-10.5724,-10.5724,-10.5807,-10.5909,-10.5985,-10.6096,-10.6301,-10.6405,-10.6405,-10.6405,-10.6405,-10.6405,-10.6405,-10.6405,-10.6405,-10.6405,-10.6405,-10.6405,-10.6405,-10.6405,-10.6405,-10.6405,-10.6405,0.0,0.0,0.0,0.0,0.0,0.0,0.0,0.0,0.0,0.0,-10.0183,-9.9878,0.0,0.0,0.0,0.0,0.0,0.0,0.0,-9.6286,-9.6133,-9.6133,-9.5789,-9.5598,-9.5598,-9.5598,-9.5598,-9.5598,-9.5598,-9.5598,-9.5598,-9.5598,-9.5598,-9.5598,-9.5598,-9.5598,-9.5598,-9.5598,-9.5598,-9.5598,-9.5598,-9.5598,-9.5598,0.0,0.0,0.0,0.0,0.0,0.0,0.0,0.0,0.0,0.0,0.0,0.0,-9.5598,-9.5598,-9.5598,-9.5598,-9.5598,-9.5598,-9.5598,-9.6515,-9.77,-9.8846,-9.9496,-9.9992,-10.0489,-10.0604,-10.0604,-10.0604,-10.0604,-10.0604,-10.0604,-10.0604,-10.0604,-10.0604,-10.0604,-10.0604,-10.0604,-10.0604,-10.0604,-10.0604,-10.1406,-10.2285,-10.3087,-10.389,-10.4807,-10.5686,-10.5724,-10.5724,-10.5724,-10.5724,-10.5724,-10.5724,-10.5916,-10.5993,-10.5985,-10.6177,-10.6305,-10.6405,-10.6405,-10.6405,-10.6405,-10.6405,-10.6405,-10.6405,-10.6405,-10.6405,-10.6405,-10.6405,-10.6405,-10.6405,-10.6405,-10.6405,-10.6405,0.0,0.0,0.0,0.0,0.0,0.0,0.0,0.0,0.0,0.0,-10.0604,-10.0604,0.0,0.0,0.0,0.0,0.0,0.0,0.0,0.0,-9.7012,-9.7012,-9.6172,-9.5675,-9.5598,-9.5598,-9.5598,-9.5598,-9.5598,-9.5598,-9.5598,-9.5598,-9.5598,-9.5598,-9.5598,-9.5598,-9.5598,-9.5598,-9.5598,-9.5598,-9.5598,-9.5598,-9.5598,-9.5598,0.0,0.0,0.0,0.0,0.0,0.0,0.0,0.0,0.0,-9.5598,-9.5598,-9.5598,-9.5598,-9.5598,-9.5598,-9.5598,-9.5598,-9.5713,-9.6974,-9.8655,-10.0222,-10.0604,-10.0604,-10.0604,-10.0604,-10.0604,-10.0604,-10.0604,-10.0604,-10.0604,-10.0604,-10.0604,-10.0604,-10.0604,-10.0604,-10.0604,-10.0604,-10.0604,-10.0604,-10.1292,-10.2209,-10.3087,-10.389,-10.4692,-10.5609,-10.5724,-10.5724,-10.5724,-10.5724,-10.5686,-10.5686,-10.5909,-10.5985,-10.6007,-10.6301,-10.6405,-10.6405,-10.6405,-10.6405,-10.6405,-10.6405,-10.6405,-10.6405,-10.6405,-10.6405,-10.6405,-10.6405,-10.6405,-10.6405,-10.6405,-10.6405,-10.6405,0.0,0.0,0.0,0.0,0.0,0.0,0.0,0.0,0.0,0.0,0.0,0.0,0.0,0.0,0.0,0.0,0.0,0.0,0.0,0.0,-9.7853,-9.7853,-9.705,-9.6286,-9.5598,-9.5598,-9.5598,-9.5598,-9.5598,-9.5598,-9.5598,-9.5598,-9.5598,-9.5598,-9.5598,-9.5598,-9.5598,-9.5598,-9.5598,-9.5598,-9.5598,-9.5598,-9.5598,-9.5598,-9.5598,0.0,0.0,0.0,0.0,0.0,0.0,0.0,-9.5598,-9.5598,-9.5598,-9.5598,-9.5598,-9.5598,-9.5598,-9.5598,-9.5751,-9.6439,-9.7891,-9.9381,-10.0413,-10.0604,-10.0604,-10.0604,-10.0604,-10.0604,-10.0604,-10.0604,-10.0604,-10.0604,-10.0604,-10.0604,-10.0604,-10.0604,-10.0604,-10.0604,-10.0604,-10.0604,-10.0604,-10.0795,-10.1521,-10.3087,-10.3393,-10.4081,-10.5609,-10.5724,-10.5724,-10.5724,-10.5724,-10.5811,-10.5892,-10.5993,-10.6106,-10.6194,-10.6305,-10.6405,-10.6405,-10.6405,-10.6405,-10.6405,-10.6405,-10.6405,-10.6405,-10.6405,-10.6405,-10.6405,-10.6405,-10.6405,-10.6405,-10.6405,-10.6405,-10.6405,0.0,0.0,0.0,0.0,0.0,0.0,0.0,0.0,0.0,0.0,0.0,0.0,0.0,0.0,0.0,0.0,0.0,0.0,0.0,0.0,-9.8541,-9.812,-9.77,-9.7089,-9.6248,-9.621,-9.6019,-9.5598,-9.5598,-9.5598,-9.5598,-9.5598,-9.5598,-9.5598,-9.5598,-9.5598,-9.5598,-9.5598,-9.5598,-9.5598,-9.5598,-9.5598,-9.5598,-9.5598,-9.5598,-9.5598,-9.5598,0.0,0.0,0.0,0.0,0.0,0.0,0.0,-9.5598,-9.5598,-9.5598,-9.5598,-9.5598,-9.5598,-9.5904,-9.7165,-9.8464,-9.961,-10.0413,-10.0604,-10.0604,-10.0604,-10.0604,-10.0604,-10.0604,-10.0604,-10.0604,-10.0604,-10.0604,-10.0604,-10.0604,-10.0604,-10.0604,-10.0604,-10.0604,-10.0604,-10.0604,-10.0604,-10.1292,-10.3087,-10.3202,-10.389,-10.5609,-10.5724,-10.5724,-10.5724,-10.5724,-10.5797,-10.5878,-10.6016,-10.609,-10.6199,-10.6305,-10.6405,-10.6405,-10.6405,-10.6405,-10.6405,-10.6405,-10.6405,-10.6405,-10.6405,-10.6405,-10.6405,-10.6405,-10.6405,-10.6405,-10.6405,-10.6405,-10.6405,0.0,0.0,0.0,0.0,0.0,0.0,0.0,0.0,0.0,0.0,0.0,0.0,0.0,0.0,0.0,0.0,0.0,0.0,0.0,0.0,0.0,-9.8349,-9.8311,-9.7929,-9.7127,-9.6974,-9.6554,-9.5828,-9.5675,-9.5598,-9.5598,-9.5598,-9.5598,-9.5598,-9.5598,-9.5598,-9.5598,-9.5598,-9.5598,-9.5598,-9.5598,-9.5598,-9.5598,-9.5598,-9.5598,-9.5598,-9.5598,-9.5598,-9.5598,-9.5598,0.0,0.0,0.0,0.0,-9.5598,-9.5598,-9.5598,-9.5598,-9.5598,-9.5789,-9.6401,-9.7929,-9.8961,-9.9763,-10.0413,-10.0604,-10.0604,-10.0604,-10.0604,-10.0604,-10.0604,-10.0604,-10.0604,-10.0604,-10.0604,-10.0604,-10.0604,-10.0604,-10.0604,-10.0604,-10.0604,-10.0604,-10.0604,-10.0604,-10.1292,-10.3087,-10.3202,-10.389,-10.5609,-10.5724,-10.5724,-10.5724,-10.571,-10.5783,-10.5924,-10.6001,-10.6112,-10.6182,-10.6326,-10.6405,-10.6405,-10.6405,-10.6405,-10.6405,-10.6405,-10.6405,-10.6405,-10.6405,-10.6405,-10.6405,-10.6405,-10.6405,-10.6405,-10.6405,-10.6405,-10.6405,0.0,0.0,0.0,0.0,0.0,0.0,0.0,0.0,0.0,0.0,-10.0604,-10.0604,0.0,0.0,0.0,0.0,0.0,0.0,0.0,0.0,0.0,-9.9266,-9.9228,-9.8808,-9.7967,-9.728,-9.6859,-9.6745,-9.5981,-9.5598,-9.5598,-9.5598,-9.5598,-9.5598,-9.5598,-9.5598,-9.5598,-9.5598,-9.5598,-9.5598,-9.5598,-9.5598,-9.5598,-9.5598,-9.5598,-9.5598,-9.5598,-9.5598,-9.5598,-9.5598,-9.5598,0.0,0.0,0.0,-9.5598,-9.5598,-9.5598,-9.5598,-9.5598,-9.6668,-9.8006,-9.8961,-9.984,-10.0489,-10.0604,-10.0604,-10.0604,-10.0604,-10.0604,-10.0604,-10.0604,-10.0604,-10.0604,-10.0604,-10.0604,-10.0604,-10.0604,-10.0604,-10.0604,-10.0604,-10.0604,-10.0604,-10.0604,-10.0604,-10.1292,-10.3087,-10.3202,-10.389,-10.5609,-10.5724,-10.5724,-10.5724,-10.5807,-10.5924,-10.6001,-10.6112,-10.6182,-10.6423,-10.6385,-10.6405,-10.6405,-10.6405,-10.6405,-10.6405,-10.6405,-10.6405,-10.6405,-10.6405,-10.6405,-10.6405,-10.6405,-10.6405,-10.6405,-10.6405,-10.6405,-10.6405,0.0,0.0,0.0,0.0,0.0,0.0,0.0,0.0,0.0,0.0,0.0,-10.0604,0.0,0.0,0.0,0.0,0.0,0.0,0.0,0.0,0.0,0.0,-10.0107,-9.9687,-9.8846,-9.8464,-9.8044,-9.7585,-9.6745,-9.6324,-9.6324,-9.5828,-9.5598,-9.5598,-9.5598,-9.5598,-9.5598,-9.5598,-9.5598,-9.5598,-9.5598,-9.5598,-9.5598,-9.5598,-9.5598,-9.5598,-9.5598,-9.5598,-9.5598,-9.5598,-9.5598,-9.5598,-9.5598,0.0,0.0,0.0,-9.5598,-9.5713,-9.621,-9.7203,-9.8311,-9.919,-9.9992,-10.0604,-10.0604,-10.0604,-10.0604,-10.0604,-10.0604,-10.0604,-10.0604,-10.0604,-10.0604,-10.0604,-10.0604,-10.0604,-10.0604,-10.0604,-10.0604,-10.0604,-10.0604,-10.0604,-10.0604,-10.0604,-10.11,-10.24,-10.2896,-10.3699,-10.4921,-10.5418,-10.5724,-10.5724,-10.5807,-10.5909,-10.5985,-10.6096,-10.6301,-10.6405,-10.6405,-10.6405,-10.6405,-10.6405,-10.6405,-10.6405,-10.6405,-10.6405,-10.6405,-10.6405,-10.6405,-10.6405,-10.6405,-10.6405,-10.6405,-10.6405,-10.6405,-10.6405,0.0,0.0,0.0,0.0,0.0,0.0,0.0,0.0,0.0,0.0,0.0,0.0,0.0,0.0,0.0,0.0,0.0,0.0,0.0,0.0,0.0,0.0,0.0,-10.0298,-9.9725,-9.9496,-9.9075,-9.8426,-9.7623,-9.7203,-9.7203,-9.6554,-9.6248,-9.621,-9.5789,-9.5598,-9.5598,-9.5828,-9.5942,-9.5942,-9.6133,-9.6248,-9.6248,-9.6248,-9.6248,-9.6248,-9.6248,-9.6248,-9.621,-9.5981,-9.5942,-9.5904,-9.5675,-9.5598,0.0,0.0,0.0,-9.5789,-9.6668,-9.7509,-9.8311,-9.919,-9.9992,-10.0604,-10.0604,-10.0604,-10.0604,-10.0604,-10.0604,-10.0604,-10.0604,-10.0604,-10.0604,-10.0604,-10.0604,-10.0604,-10.0604,-10.0604,-10.0604,-10.0604,-10.0604,-10.0604,-10.0604,-10.0604,-10.0986,-10.1826,-10.2691,-10.3594,-10.4386,-10.529,-10.571,-10.5686,-10.5816,-10.5894,-10.5985,-10.6216,-10.6322,-10.6405,-10.6405,-10.6405,-10.6405,-10.6405,-10.6405,-10.6405,-10.6405,-10.6405,-10.6405,-10.6405,-10.6405,-10.6405,-10.6405,-10.6405,-10.6405,-10.6405,-10.6405,-10.6405,0.0,0.0,0.0,0.0,0.0,0.0,0.0,0.0,0.0,0.0,0.0,0.0,-10.0604,-10.0604,-10.0604,-10.0604,-10.0604,0.0,0.0,0.0,0.0,0.0,0.0,0.0,-10.0489,-9.9801,-9.9381,-9.9343,-9.8464,-9.8044,-9.8044,-9.8006,-9.7967,-9.7891,-9.6324,-9.5598,-9.5637,-9.6477,-9.6821,-9.6898,-9.7662,-9.7967,-9.7967,-9.7967,-9.7967,-9.7967,-9.7967,-9.7967,-9.7853,-9.7089,-9.6821,-9.6706,-9.5866,-9.5598,-9.5598,0.0,0.0,0.0,-9.6668,-9.7509,-9.8311,-9.919,-9.9992,-10.0604,-10.0604,-10.0604,-10.0604,-10.0604,-10.0604,-10.0604,-10.0604,-10.0604,-10.0604,-10.0604,-10.0604,-10.0604,-10.0604,-10.0604,-10.0604,-10.0604,-10.0604,-10.0604,-10.0604,-10.0604,-10.0986,-10.1826,-10.2823,-10.3588,-10.4386,-10.5309,-10.5807,-10.5686,-10.5886,-10.6023,-10.5985,-10.628,-10.6385,-10.6405,-10.6405,-10.6405,-10.6405,-10.6405,-10.6405,-10.6405,-10.6405,-10.6405,-10.6405,-10.6405,-10.6405,-10.6405,-10.6405,-10.6405,-10.6405,-10.6405,-10.6405,-10.6405,0.0,0.0,0.0,0.0,0.0,0.0,0.0,0.0,0.0,0.0,0.0,0.0,0.0,-10.0604,-10.0604,-10.0604,-10.0604,0.0,0.0,0.0,0.0,0.0,0.0,0.0,-10.0604,-10.0298,-10.0183,-10.0183,-9.9343,-9.8923,-9.8923,-9.8349,-9.812,-9.8082,-9.7471,-9.7203,-9.7241,-9.7547,-9.7662,-9.77,-9.8006,-9.812,-9.812,-9.812,-9.812,-9.812,-9.812,-9.812,-9.8082,-9.7776,-9.7662,-9.7623,-9.7318,-9.6859,-9.6324,-9.5751,-9.5598,-9.5904,-9.728,-9.7891,-9.8426,-9.984,-10.0413,-10.0604,-10.0604,-10.0604,-10.0604,-10.0604,-10.0604,-10.0604,-10.0604,-10.0604,-10.0604,-10.0604,-10.0604,-10.0604,-10.0604,-10.0604,-10.0604,-10.0604,-10.0604,-10.0604,-10.0604,-10.0604,-10.0718,-10.1024,-10.2479,-10.342,-10.3584,-10.5103,-10.5892,-10.5807,-10.5894,-10.609,-10.628,-10.6402,-10.6405,-10.6405,-10.6405,-10.6405,-10.6405,-10.6405,-10.6405,-10.6405,-10.6405,-10.6405,-10.6405,-10.6405,-10.6405,-10.6405,-10.6405,-10.6405,-10.6405,-10.6405,-10.6405,-10.6405,0.0,0.0,0.0,0.0,0.0,0.0,0.0,0.0,-10.0604,-10.0604,0.0,0.0,0.0,0.0,-10.0604,-10.0604,-10.0604,-10.0604,-10.0604,-10.0604,0.0,0.0,0.0,0.0,-10.0604,-9.9992,-9.9992,-10.0604,-9.9496,-9.9266,-9.9801,-9.9228,-9.8961,-9.8961,-9.8961,-9.8655,-9.812,-9.8426,-9.8541,-9.8579,-9.8846,-9.8961,-9.8961,-9.8961,-9.8961,-9.8961,-9.8961,-9.8961,-9.8923,-9.8617,-9.8541,-9.8502,-9.8197,-9.7738,-9.7203,-9.6592,-9.6439,-9.6668,-9.7815,-9.8311,-9.8808,-9.9916,-10.0413,-10.0604,-10.0604,-10.0604,-10.0604,-10.0604,-10.0604,-10.0604,-10.0604,-10.0604,-10.0604,-10.0604,-10.0604,-10.0604,-10.0604,-10.0604,-10.0604,-10.0604,-10.0604,-10.0604,-10.0604,-10.0604,-10.0627,-10.0711,-10.2318,-10.3275,-10.3197,-10.4997,-10.5909,-10.5909,-10.5985,-10.6216,-10.6405,-10.6405,-10.6405,-10.6405,-10.6405,-10.6405,-10.6405,-10.6405,-10.6405,-10.6405,-10.6405,-10.6405,-10.6405,-10.6405,-10.6405,-10.6405,-10.6405,-10.6213,-10.602,-10.629,-10.6213,-10.602,0.0,0.0,0.0,0.0,0.0,0.0,0.0,0.0,-10.0604,-10.0604,0.0,0.0,0.0,0.0,0.0,-10.0604,-10.0604,-10.0604,-10.0604,-10.0604,0.0,0.0,0.0,0.0,-10.0604,-9.8999,-9.8961,-10.0604,-9.8961,-9.8999,-10.0604,-10.0604,-10.0604,-10.0604,-10.0604,-9.9687,-9.8235,-9.9075,-9.9419,-9.9496,-10.0298,-10.0604,-10.0604,-10.0604,-10.0604,-10.0604,-10.0604,-10.0604,-10.0489,-9.9687,-9.9419,-9.9266,-9.8426,-9.8158,-9.8158,-9.812,-9.812,-9.812,0.0,0.0,0.0,-9.9419,-9.9992,-10.0604,-10.0604,-10.0604,-10.0604,-10.0604,-10.0604,-10.0604,-10.0604,-10.0604,-10.0604,-10.0604,-10.0604,-10.0604,-10.0604,-10.0604,-10.0604,-10.0604,-10.0604,-10.0604,-10.0604,-10.0604,-10.0688,-10.0825,-10.2506,-10.341,-10.3297,-10.4997,-10.5985,-10.5985,-10.6096,-10.6301,-10.6405,-10.6405,-10.6405,-10.6405,-10.6405,-10.6405,-10.6405,-10.6405,-10.6405,-10.6405,-10.6405,-10.6405,-10.6405,-10.6405,-10.6405,-10.6405,-10.6405,-10.5905,-10.5213,-10.6097,-10.5905,-10.529,0.0,0.0,0.0,0.0,0.0,-10.0604,-10.0604,-10.0604,-10.0604,0.0,0.0,0.0,-10.0604,-10.0604,-10.0604,-10.0604,-10.0604,-10.0604,-10.0604,-10.0604,-10.0604,-10.0604,-10.0604,-10.0604,-10.0604,-10.0107,-10.0107,-10.0604,-10.0107,-10.0107,-10.0604,-10.0604,-10.0604,-10.0604,-10.0604,-10.0298,-9.9916,-10.0183,-10.0298,-10.0298,-10.0489,-10.0604,-10.0604,-10.0604,-10.0604,-10.0604,-10.0604,-10.0604,-10.0604,-10.0298,-10.0298,-10.0107,-9.9305,-9.9037,-9.8923,-9.8311,-9.812,-9.8235,-9.8884,0.0,0.0,0.0,0.0,0.0,-10.0604,-10.0604,-10.0604,-10.0604,-10.0604,-10.0604,-10.0604,-10.0604,-10.0604,-10.0604,-10.0604,-10.0604,-10.0604,-10.0604,-10.0604,-10.0604,-10.0604,-10.0604,-10.0604,-10.0604,-10.0688,-10.0825,-10.2506,-10.3492,-10.341,-10.5208,-10.6117,-10.6117,-10.6301,-10.6402,-10.6405,-10.6405,-10.6405,-10.6405,-10.6405,-10.6405,-10.6405,-10.6405,-10.6405,-10.6405,-10.6405,-10.6405,-10.6405,-10.6405,-10.6405,-10.6405,-10.6405,-10.629,-10.6097,-10.629,-10.6213,-10.6097,0.0,0.0,0.0,0.0,0.0,-10.0604,-10.0604,-10.0604,-10.0604,0.0,0.0,0.0,-10.0604,-10.0604,-10.0604,-10.0604,-10.0604,-10.0604,-10.0604,-10.0604,-10.0604,-10.0604,-10.0604,-10.0604,-10.0604,-9.9916,-9.9916,-10.0604,-9.9916,-9.9916,-10.0604,-10.0604,-10.0604,-10.0604,-10.0604,-10.0604,-10.0604,-10.0604,-10.0604,-10.0604,-10.0604,-10.0604,-10.0604,-10.0604,-10.0604,-10.0604,-10.0604,-10.0604,-10.0604,-10.0604,-10.0604,-10.0489,-9.9992,-9.9916,-9.9801,-9.9305,-9.9152,-9.9266,-9.9763,-9.9916,-9.9992,-10.0489,0.0,0.0,-10.0604,-10.0604,-10.0604,-10.0604,-10.0604,-10.0604,-10.0604,-10.0604,-10.0604,-10.0604,-10.0604,-10.0604,-10.0604,-10.0604,-10.0604,-10.0604,-10.0604,-10.0604,-10.0604,-10.0604,-10.0711,-10.0891,-10.249,-10.3783,-10.4594,-10.558,-10.6199,-10.6199,-10.6305,-10.6405,-10.6405,-10.6405,-10.6405,-10.6405,-10.6405,-10.6405,-10.6405,-10.6405,-10.6405,-10.6405,-10.6405,-10.6405,-10.6405,-10.6405,-10.6405,-10.6405,-10.602,-10.5905,-10.5905,-10.5905,-10.5905,-10.5905,0.0,0.0,0.0,-10.0909,-10.0909,-10.0909,-10.0909,-10.0909,-10.0909,0.0,-10.0909,-10.0909,-10.0909,-10.0909,-10.0909,-10.0909,-10.0795,-10.0718,-10.0718,-10.0718,-10.0604,-10.0604,-10.0604,-10.0604,-10.0604,-9.9152,-9.9114,-10.0604,-9.9114,-9.9152,-10.0604,-10.0604,-10.0604,-10.0604,-10.0604,-10.0604,-10.0604,-10.0604,-10.0604,-10.0604,-10.0604,-10.0604,-10.0604,-10.0604,-10.0604,-10.0604,-10.0604,-10.0604,-10.0604,-10.0604,-10.0604,-10.0604,-10.0604,-10.0604,-10.0604,-10.0604,-10.0604,-10.0604,-10.0604,-10.0604,-10.0604,-10.0604,-10.0604,0.0,-10.0604,-10.0604,-10.0604,-10.0604,-10.0604,-10.0604,-10.0604,-10.0604,-10.0604,-10.0604,-10.0604,-10.0604,-10.0604,-10.0604,-10.0604,-10.0604,-10.0604,-10.0604,-10.0604,-10.0604,-10.0696,-10.1017,-10.2572,-10.4287,-10.6084,-10.622,-10.622,-10.622,-10.6305,-10.6405,-10.6405,-10.6405,-10.6405,-10.6405,-10.6405,-10.6405,-10.6405,-10.6405,-10.6405,-10.6405,-10.6405,-10.6405,-10.6405,-10.6405,-10.6405,-10.629,-10.5482,-10.5213,-10.5213,-10.5213,-10.5213,-10.5405,0.0,-10.2705,-10.2705,-10.2705,-10.2705,-10.2705,-10.2705,-10.2705,-10.2705,-10.2705,-10.2705,-10.2705,-10.2705,-10.2705,-10.2705,-10.2705,-10.2094,-10.1597,-10.1597,-10.0986,-10.0604,-10.0604,-10.0604,-10.0604,-10.0604,-10.0298,-10.0298,-10.0604,-10.0298,-10.0298,-10.0604,-10.0604,-10.0604,-10.0604,-10.0604,-10.0604,-10.0604,-10.0604,-10.0604,-10.0604,-10.0604,-10.0604,-10.0604,-10.0604,-10.0604,-10.0604,-10.0604,-10.0604,-10.0604,-10.0604,-10.0604,-10.0604,-10.0604,-10.0604,-10.0604,-10.0604,-10.0604,-10.0604,-10.0604,-10.0604,-10.0604,-10.0604,-10.0604,0.0,-10.0604,-10.0604,-10.0604,-10.0604,-10.0604,-10.0604,-10.0604,-10.0604,-10.0604,-10.0604,-10.0604,-10.0604,-10.0604,-10.0604,-10.0604,-10.0604,-10.0604,-10.0604,-10.0604,-10.0604,-10.0711,-10.0809,-10.2615,-10.4492,-10.6287,-10.6402,-10.6402,-10.6402,-10.6385,-10.6405,-10.6405,-10.6405,-10.6405,-10.6405,-10.6405,-10.6405,-10.6405,-10.6405,-10.6405,-10.6405,-10.6405,-10.6405,-10.6405,-10.6405,-10.6405,-10.6405,-10.6213,-10.6097,-10.6097,-10.6097,-10.6097,-10.6213,-10.3278,-10.3202,-10.3202,-10.3202,-10.3202,-10.3202,-10.3202,-10.3202,-10.3202,-10.3202,-10.3202,-10.3202,-10.3202,-10.3202,-10.3202,-10.3202,-10.2782,-10.2514,-10.2514,-10.2094,-10.1712,-10.1292,-10.1215,-10.1024,-10.0604,-10.0604,-10.0604,-10.0604,-10.0604,-10.0604,-10.0604,-10.0604,-10.0604,-10.0604,-10.0604,-10.0604,-10.0604,-10.0604,-10.0604,-10.0604,-10.0604,-10.0604,-10.0604,-10.0604,-10.0604,-10.0604,-10.0604,-10.0604,-10.0604,-10.0604,-10.0604,-10.0604,-10.0604,-10.0604,-10.0604,-10.0604,-10.0604,-10.0604,-10.0604,-10.0604,-10.0604,-10.0604,-10.0604,0.0,0.0,-10.0604,-10.0604,-10.0604,-10.0604,-10.0604,-10.0604,-10.0604,-10.0604,-10.0604,-10.0604,-10.0604,-10.0604,-10.0604,-10.0604,-10.0604,-10.0604,-10.0604,-10.0604,-10.0604,-10.0979,-10.2101,-10.3119,-10.4474,-10.6308,-10.6405,-10.6405,-10.6405,-10.6405,-10.6405,-10.6405,-10.6405,-10.6405,-10.6405,-10.6405,-10.6405,-10.6405,-10.6405,-10.6405,-10.6405,-10.6405,-10.6405,-10.6405,-10.6405,-10.6405,-10.6405,-10.5905,-10.579,-10.579,-10.579,-10.602,-10.6405,-10.3813,-10.3699,-10.3699,-10.3699,0.0,0.0,-10.3699,-10.3699,-10.3699,-10.3699,-10.3699,-10.3699,-10.3699,-10.3699,-10.3699,-10.3699,-10.3508,-10.3393,-10.3393,-10.3278,-10.2896,-10.2209,-10.2209,-10.1712,-10.0909,-10.0909,-10.0795,-10.0604,-10.0604,-10.0604,-10.0604,-10.0604,-10.0604,-10.0604,-10.0604,-10.0604,-10.0604,-10.0604,-10.0604,-10.0604,-10.0795,-10.0909,-10.0795,-10.0718,-10.0718,-10.0795,-10.0718,-10.0604,-10.0604,-10.0604,-10.0604,-10.0604,-10.0604,-10.0604,-10.0604,-10.0604,-10.0604,-10.0604,-10.0604,-10.0604,-10.0604,-10.0604,-10.0604,-10.0604,0.0,0.0,0.0,-10.0604,-10.0604,-10.0604,-10.0604,-10.0604,-10.0489,-10.0183,-10.0413,-10.0489,-10.0183,-10.0413,-10.0604,-10.0604,-10.0604,-10.0604,-10.0604,-10.0604,-10.1385,-10.3394,-10.3579,-10.4492,-10.6308,-10.6405,-10.6405,-10.6405,-10.6405,-10.6405,-10.6405,-10.6405,-10.6405,-10.6405,-10.6405,-10.6405,-10.6405,-10.6405,-10.6405,-10.6405,-10.6405,-10.6405,-10.6405,-10.6405,-10.629,-10.6097,-10.5597,-10.5405,-10.5405,-10.5405,-10.579,-10.6405,-10.5418,-10.5418,-10.5418,-10.5418,0.0,0.0,0.0,0.0,-10.5418,-10.5418,-10.5418,-10.5418,-10.5418,-10.5418,-10.5418,-10.5418,-10.4692,-10.431,-10.431,-10.3584,-10.3202,-10.3087,-10.3087,-10.2591,-10.1788,-10.1788,-10.1406,-10.0604,-10.0604,-10.0604,-10.0604,-10.0604,-10.0604,-10.0604,-10.0604,-10.0604,-10.0604,-10.0604,-10.0604,-10.0718,-10.1406,-10.1788,-10.1712,-10.0909,-10.11,-10.1712,-10.0909,-10.0604,-10.0604,-10.0604,-10.0604,-10.0604,-10.0604,-10.0604,-10.0604,-10.0604,-10.0604,-10.0604,-10.0604,-10.0604,-10.0604,-10.0604,-10.0604,-10.0604,-10.0604,0.0,-10.0604,-10.0604,0.0,-10.0604,-10.0604,0.0,0.0,-9.8655,-9.9649,-10.0107,-9.8617,-9.9649,-10.0604,-10.0604,-10.0604,-10.0604,-10.0604,-10.0604,-10.1385,-10.3394,-10.3514,-10.4407,-10.6308,-10.6405,-10.6405,-10.6405,-10.6405,-10.6405,-10.6405,-10.6405,-10.6405,-10.6405,-10.6405,-10.6405,-10.6405,-10.6405,-10.6405,-10.6405,-10.6405,-10.6405,-10.6405,-10.6405,-10.5905,-10.529,-10.602,-10.629,-10.629,-10.629,-10.629,-10.6405,-10.5724,-10.5724,-10.5724,-10.5724,0.0,0.0,0.0,0.0,-10.5724,-10.5724,-10.5724,-10.5724,-10.5724,-10.5724,-10.5724,-10.5724,-10.5418,-10.5189,-10.5189,-10.4807,-10.4386,-10.389,-10.389,-10.3508,-10.2705,-10.2705,-10.2209,-10.1406,-10.1406,-10.11,0.0,0.0,-10.0604,-10.0604,-10.11,-10.1406,-10.1406,-10.1903,-10.2094,-10.2094,-10.2514,-10.2896,-10.3317,-10.24,-10.2285,-10.2591,-10.2209,-10.2094,-10.2094,-10.2094,-10.2094,-10.2018,-10.1521,-10.1406,-10.1292,-10.0718,-10.0604,-10.0604,-10.0604,-10.0604,-10.0604,-10.0604,-10.0604,-10.0604,-10.0604,-10.0604,-10.0604,-10.0604,0.0,0.0,0.0,0.0,0.0,0.0,-10.0107,-10.0413,-9.9649,-10.0183,-10.0604,-10.0604,-10.0604,-10.0604,-10.0604,-10.0604,-10.14,-10.319,-10.3487,-10.4287,-10.6186,-10.6402,-10.6405,-10.6405,-10.6405,-10.6405,-10.6405,-10.6405,-10.6405,-10.6405,-10.6405,-10.6405,-10.6405,-10.6405,-10.6405,-10.6405,-10.6405,-10.6405,-10.6405,-10.6405,-10.6213,-10.5905,-10.629,-10.6097,-10.5713,-10.6213,-10.6405,-10.6405,-10.5724,-10.5724,-10.5724,-10.5724,-10.5724,0.0,0.0,-10.5724,-10.5724,-10.5724,-10.5724,-10.5724,-10.5724,-10.5724,-10.5724,-10.5724,-10.5724,-10.5724,-10.5724,-10.5724,-10.5418,-10.4807,-10.4807,-10.4386,-10.3508,-10.3508,-10.3087,-10.2285,-10.2285,-10.1903,-10.1292,-10.1292,-10.1292,-10.1292,-10.2018,-10.2285,-10.2285,-10.2896,-10.3202,-10.3202,-10.3393,-10.4004,-10.4692,-10.3813,-10.3393,-10.3202,-10.3202,-10.3202,-10.3202,-10.3202,-10.3202,-10.3087,-10.2514,-10.2285,-10.2094,-10.1215,-10.0986,-10.0909,-10.0718,-10.0604,-10.0604,-10.0604,-10.0604,-10.0604,-10.0604,-10.0604,-10.0604,-10.0604,-10.0604,0.0,0.0,0.0,-10.0413,-9.9992,0.0,-10.0413,-9.9992,-10.0298,-10.0604,-10.0604,-10.0604,-10.0604,-10.0604,-10.0604,-10.1376,-10.3198,-10.3388,-10.4303,-10.6122,-10.6305,-10.6405,-10.6405,-10.6405,-10.6405,-10.6405,-10.6405,-10.6405,-10.6405,-10.6405,-10.6405,-10.6405,-10.6405,-10.6405,-10.6405,-10.6405,-10.6405,-10.6405,-10.6405,-10.6405,-10.6405,-10.6405,-10.602,-10.5482,-10.6213,-10.6405,-10.6405,-10.5724,-10.5724,-10.5724,-10.5724,-10.5724,-10.5724,-10.5724,-10.5724,-10.5724,-10.5724,-10.5724,-10.5724,-10.5724,-10.5724,-10.5724,-10.5724,-10.5724,-10.5724,-10.5724,-10.5724,-10.5724,-10.5686,-10.5686,-10.5303,-10.4386,-10.4386,-10.4004,-10.3202,-10.3202,-10.3087,-10.3087,-10.3087,-10.3087,-10.3087,-10.3087,-10.3202,-10.3202,-10.3202,-10.3202,-10.3278,-10.4004,-10.4921,-10.5609,-10.4692,-10.389,-10.3202,-10.3202,-10.3202,-10.3202,-10.3202,-10.3202,-10.3202,-10.3202,-10.3202,-10.3011,-10.2094,-10.1903,-10.1712,-10.0795,-10.0604,-10.0604,-10.0604,-10.0604,-10.0604,-10.0604,-10.0604,-10.0604,-10.0604,-10.0604,-10.0604,-10.0604,-10.0604,-10.0107,-9.8464,-9.9534,0.0,0.0,-9.9572,-10.0604,-10.0604,-10.0604,-10.0604,-10.0604,-10.0604,-10.1376,-10.3198,-10.3388,-10.4303,-10.6122,-10.6305,-10.6405,-10.6405,-10.6405,-10.6405,-10.6405,-10.6405,-10.6405,-10.6405,-10.6405,-10.6405,-10.6405,-10.6405,-10.6405,-10.6405,-10.6405,-10.6405,-10.6405,-10.6405,-10.6405,-10.6405,-10.6405,-10.6405,-10.6405,-10.6405,-10.6405,-10.6405,-10.5724,-10.5724,-10.5724,-10.5724,-10.5724,-10.5724,-10.5724,-10.5724,-10.5724,-10.5724,-10.5724,-10.5724,-10.5724,-10.5724,-10.5724,-10.5724,-10.5724,-10.5724,-10.5724,-10.5724,-10.5724,-10.5724,-10.5724,-10.5609,-10.5303,-10.5303,-10.4807,-10.4004,-10.4004,-10.3699,-10.3202,0.0,0.0,-10.3202,-10.3813,-10.4004,-10.4004,-10.4616,-10.4883,-10.4883,-10.5189,-10.5418,-10.5686,-10.5418,-10.5112,-10.4883,-10.4883,-10.4883,-10.4883,-10.4883,-10.4883,-10.4807,-10.4195,-10.4004,-10.3813,-10.3011,-10.2782,-10.2705,-10.24,-10.1903,-10.1521,-10.1521,-10.1024,-10.0604,-10.0604,-10.0604,-10.0604,-10.0604,-10.0604,-10.0604,-10.0604,-10.0604,-10.0413,-9.984,-10.0222,-10.0413,0.0,-10.0222,-10.0604,-10.0604,-10.0604,-10.0604,-10.0604,-10.0711,-10.1392,-10.3198,-10.3492,-10.439,-10.6122,-10.6305,-10.6405,-10.6405,-10.6405,-10.6405,-10.6405,-10.6405,-10.6405,-10.6405,-10.6405,-10.6405,-10.6405,-10.6405,-10.6405,-10.6405,-10.6405,-10.6405,-10.6405,-10.6405,-10.6405,-10.6405,-10.6405,-10.6405,-10.6405,-10.6405,-10.6405,-10.6405,-10.5724,-10.5724,-10.5724,-10.5724,-10.5724,-10.5724,-10.5724,-10.5724,-10.5724,-10.5724,-10.5724,-10.5724,-10.5724,-10.5724,-10.5724,-10.5724,-10.5724,-10.5724,-10.5724,-10.5724,-10.5724,-10.5724,-10.5724,-10.5724,-10.5724,-10.5724,-10.5418,-10.4921,-10.4921,-10.4616,-10.4081,0.0,0.0,0.0,-10.4616,-10.4921,-10.4921,-10.5495,-10.5724,-10.5724,-10.5724,-10.5724,-10.5724,-10.5724,-10.5724,-10.5724,-10.5724,-10.5724,-10.5724,-10.5724,-10.5724,-10.5609,-10.4998,-10.4921,-10.4692,-10.389,-10.3584,-10.3584,-10.3278,-10.2782,-10.24,-10.24,-10.1903,-10.1483,-10.1483,-10.1292,-10.11,-10.11,-10.0795,-10.0604,-10.0604,-10.0604,-10.0604,-10.0604,-10.0604,-10.0604,0.0,-10.0604,-10.0604,-10.0604,-10.0604,-10.0627,-10.0711,-10.0696,-10.1491,-10.319,-10.3476,-10.439,-10.6122,-10.6305,-10.6405,-10.6405,-10.6405,-10.6405,-10.6405,-10.6405,-10.6405,-10.6405,-10.6405,-10.6405,-10.6405,-10.6405,-10.6405,-10.6405,-10.6405,-10.6405,-10.6405,-10.6405,-10.6405,-10.6405,-10.6405,-10.6405,-10.6405,-10.6405,-10.6405,-10.6405,-10.5724,-10.5724,-10.5724,-10.5724,-10.5724,-10.5724,-10.5724,-10.5724,-10.5724,-10.5724,-10.5724,-10.5724,-10.5724,-10.5724,-10.5724,-10.5724,-10.5724,-10.5724,-10.5724,-10.5724,-10.5724,-10.5724,-10.5724,-10.5724,-10.5724,-10.5724,-10.5724,-10.5724,-10.5724,-10.5724,-10.5724,-10.5724,0.0,0.0,-10.5724,-10.5724,-10.5724,-10.5724,-10.5724,-10.5724,-10.5724,-10.5724,-10.5724,-10.5724,-10.5724,-10.5724,-10.5724,-10.5724,-10.5724,-10.5724,-10.5724,-10.5724,-10.5724,-10.5724,-10.5495,-10.4692,-10.4501,-10.431,-10.3508,-10.3278,-10.3278,-10.3278,-10.3202,-10.3202,-10.3202,-10.2591,-10.2018,-10.2018,-10.1292,-10.0718,-10.0718,-10.0604,-10.0604,-10.0604,-10.0604,-10.0604,-10.0604,-10.0604,-10.0604,-10.0604,-10.0604,-10.0688,-10.0802,-10.0673,-10.1484,-10.3394,-10.3492,-10.4287,-10.6084,-10.6305,-10.6385,-10.6405,-10.6405,-10.6405,-10.6405,-10.6405,-10.6405,-10.6405,-10.6405,-10.6405,-10.6405,-10.6405,-10.6405,-10.6405,-10.6405,-10.6405,-10.6405,-10.6405,-10.6405,-10.6405,-10.6405,-10.6405,-10.6405,-10.6405,-10.6405,-10.6405,-10.5724,-10.5724,-10.5724,-10.5724,-10.5724,-10.5724,-10.5724,-10.5724,-10.5724,-10.5724,-10.5724,-10.5724,-10.5724,-10.5724,-10.5724,-10.5724,-10.5724,-10.5724,-10.5724,-10.5724,-10.5724,-10.5724,-10.5724,-10.5724,-10.5724,-10.5724,-10.5724,-10.5724,-10.5724,-10.5724,-10.5724,0.0,0.0,0.0,-10.5724,-10.5724,-10.5724,-10.5724,-10.5724,-10.5724,-10.5724,-10.5724,-10.5724,-10.5724,-10.5724,-10.5724,-10.5724,-10.5724,-10.5724,-10.5724,-10.5724,-10.5724,-10.5724,-10.5724,-10.5686,-10.5418,-10.5418,-10.5303,-10.5112,-10.4616,-10.4081,-10.4081,-10.3584,-10.3202,-10.3202,-10.3011,-10.2896,-10.2896,-10.2209,-10.1597,-10.1597,-10.1024,-10.0604,-10.0604,-10.0604,-10.0604,-10.0604,-10.0604,-10.0604,-10.0604,-10.0696,-10.0719,-10.0688,-10.1399,-10.2315,-10.3416,-10.4116,-10.5085,-10.6305,-10.6301,-10.6322,-10.6405,-10.6405,-10.6405,-10.6405,-10.6405,-10.6405,-10.6405,-10.6405,-10.6405,-10.6405,-10.6405,-10.6405,-10.6405,-10.6405,-10.6405,-10.6405,-10.6405,-10.6405,-10.6405,-10.6405,-10.6405,-10.6405,-10.6405,-10.6405,-10.6405,-10.5724,-10.5724,-10.5724,-10.5724,-10.5724,-10.5724,-10.5724,-10.5724,-10.5724,-10.5724,-10.5724,-10.5724,-10.5724,-10.5724,-10.5724,-10.5724,-10.5724,-10.5724,-10.5724,-10.5724,-10.5724,-10.5724,-10.5724,-10.5724,-10.5724,-10.5724,-10.5724,-10.5724,-10.5724,-10.5724,-10.5724,0.0,0.0,0.0,0.0,-10.5724,-10.5724,-10.5724,-10.5724,-10.5724,-10.5724,-10.5724,0.0,-10.5724,-10.5724,-10.5724,-10.5724,-10.5724,-10.5724,-10.5724,-10.5724,-10.5724,-10.5724,-10.5724,-10.5724,-10.5724,-10.5724,-10.5724,-10.5724,-10.5303,-10.4998,-10.4998,-10.4616,-10.431,-10.431,-10.4004,-10.3699,-10.3699,-10.3087,-10.2514,-10.2514,-10.1788,-10.1024,-10.0718,-10.0604,-10.0604,-10.0604,-10.0604,-10.0604,-10.0604,-10.0711,-10.0711,-10.0604,-10.1597,-10.261,-10.3416,-10.4287,-10.5294,-10.6284,-10.6182,-10.628,-10.6405,-10.6405,-10.6405,-10.6405,-10.6405,-10.6405,-10.6405,-10.6405,-10.6405,-10.6405,-10.6405,-10.6405,-10.6405,-10.6405,-10.6405,-10.6405,-10.6405,-10.6405,-10.6405,-10.6405,-10.6405,-10.6405,-10.6405,-10.6405,-10.6405,-10.5724,-10.5724,-10.5724,-10.5724,-10.5724,-10.5724,-10.5724,-10.5724,-10.5724,-10.5724,-10.5724,-10.5724,-10.5724,-10.5724,-10.5724,-10.5724,-10.5724,-10.5724,-10.5724,-10.5724,-10.5724,-10.5724,-10.5724,-10.5724,-10.5724,-10.5724,-10.5724,-10.5724,-10.5724,-10.5724,-10.5724,0.0,0.0,0.0,0.0,-10.5724,-10.5724,-10.5724,-10.5724,-10.5724,-10.5724,-10.5724,-10.5724,-10.5724,-10.5724,-10.5724,-10.5724,-10.5724,-10.5724,-10.5724,-10.5724,-10.5724,-10.5724,-10.5724,-10.5724,-10.5724,-10.5724,-10.5724,-10.5724,-10.5724,-10.5724,-10.5724,-10.5724,-10.5724,-10.5724,-10.5112,-10.4616,-10.4616,-10.389,-10.3393,-10.3393,-10.2705,-10.1788,-10.1086,-10.0871,-10.0795,-10.0994,-10.0895,-10.0818,-10.0818,-10.0803,0.0,-10.0795,-10.1613,-10.2512,-10.3394,-10.4275,-10.5186,-10.6101,-10.6177,-10.6182,-10.6405,-10.6405,-10.6405,-10.6405,-10.6405,-10.6405,-10.6405,-10.6405,-10.6405,-10.6405,-10.6405,-10.6405,-10.6405,-10.6405,-10.6405,-10.6405,-10.6405,-10.6405,-10.6405,-10.6405,-10.6405,-10.6405,-10.6405,-10.6405,-10.6405,-10.5724,-10.5724,-10.5724,-10.5724,-10.5724,-10.5724,-10.5724,-10.5724,-10.5724,-10.5724,-10.5724,-10.5724,-10.5724,-10.5724,-10.5724,-10.5724,-10.5724,-10.5724,-10.5724,-10.5724,-10.5724,-10.5724,-10.5724,-10.5724,-10.5724,-10.5724,-10.5724,-10.5724,-10.5724,-10.5724,-10.5724,0.0,0.0,0.0,0.0,0.0,-10.5724,-10.5724,-10.5724,-10.5724,-10.5724,-10.5724,-10.5724,-10.5724,-10.5724,-10.5724,-10.5724,-10.5724,-10.5724,-10.5724,-10.5724,-10.5724,-10.5724,-10.5724,-10.5724,-10.5724,-10.5724,-10.5724,-10.5724,-10.5724,-10.5724,-10.5724,-10.5724,-10.5724,-10.5724,-10.5609,-10.5495,-10.5495,-10.4807,-10.4195,-10.4195,-10.3508,-10.2906,-10.2808,-10.2203,-10.2011,-10.2906,-10.2286,-10.1797,-10.1797,-10.1926,-10.1903,-10.1697,-10.1889,-10.2516,-10.332,-10.4102,-10.5096,-10.6101,-10.6112,-10.6117,0.0,-10.6405,-10.6405,-10.6405,-10.6405,-10.6405,-10.6405,-10.6405,-10.6405,-10.6405,-10.6405,-10.6405,-10.6405,-10.6405,-10.6405,-10.6405,-10.6405,-10.6405,-10.6405,-10.6405,-10.6405,-10.6405,-10.6405,-10.6405,-10.6405,-10.5724,-10.5724,-10.5724,-10.5724,-10.5724,-10.5724,-10.5724,-10.5724,-10.5724,-10.5724,-10.5724,-10.5724,-10.5724,-10.5724,-10.5724,-10.5724,-10.5724,-10.5724,-10.5724,-10.5724,-10.5724,-10.5724,-10.5724,-10.5724,-10.5724,-10.5724,-10.5724,-10.5724,-10.5724,-10.5724,-10.5724,-10.5724,0.0,0.0,0.0,-10.5724,0.0,-10.5724,-10.5724,-10.5724,-10.5724,-10.5724,-10.5724,-10.5724,-10.5724,-10.5724,-10.5724,-10.5724,-10.5724,-10.5724,-10.5724,-10.5724,-10.5724,-10.5724,-10.5724,-10.5724,-10.5724,-10.5724,-10.5724,-10.5724,-10.5724,-10.5724,-10.5724,-10.5724,-10.5724,-10.5724,-10.5724,-10.5724,-10.539,-10.508,-10.4691,-10.4185,-10.3802,-10.3496,-10.3007,-10.2792,-10.3394,-10.3103,-10.2791,-10.2791,-10.2895,-10.2813,-10.2593,-10.2716,-10.3083,-10.3887,-10.4806,-10.5495,-10.6177,0.0,-10.6096,0.0,0.0,-10.6405,-10.6405,0.0,-10.6405,-10.6405,-10.6405,-10.6405,-10.6405,-10.6405,-10.6405,-10.6405,-10.6405,-10.6405,-10.6405,-10.6405,-10.6405,-10.6405,-10.6405,-10.6405,-10.6405,-10.6405,-10.6405,-10.6405,-10.5724,-10.5724,-10.5724,-10.5724,-10.5724,-10.5724,-10.5724,-10.5724,-10.5724,-10.5724,-10.5724,-10.5724,-10.5724,-10.5724,-10.5724,-10.5724,-10.5724,-10.5724,-10.5724,-10.5724,-10.5724,-10.5724,-10.5724,-10.5724,-10.5724,-10.5724,-10.5724,-10.5724,-10.5724,-10.5495,-10.5189,-10.5495,-10.5724,-10.5724,-10.5724,-10.5724,-10.5724,-10.5724,-10.5724,-10.5724,-10.5724,-10.5724,-10.5724,-10.5724,-10.5724,-10.5724,-10.5724,-10.5724,-10.5724,-10.5724,-10.5724,-10.5724,-10.5724,-10.5724,-10.5724,-10.5724,-10.5724,-10.5724,-10.5724,-10.5724,-10.5724,-10.5724,-10.5724,-10.5724,-10.5724,-10.5724,-10.5724,-10.5724,-10.5783,-10.5695,-10.5218,-10.4997,-10.4683,-10.4084,-10.3809,-10.371,-10.4013,-10.3898,-10.3821,-10.3805,-10.3799,-10.3694,-10.3588,-10.3619,-10.3902,-10.4791,-10.5288,-10.5779,-10.6117,-10.609,-10.6194,-10.6385,-10.6405,-10.6405,-10.6405,0.0,-10.6405,-10.6405,-10.6405,-10.6405,-10.6405,-10.6405,-10.6405,-10.6405,-10.6405,-10.6405,-10.6405,-10.6405,-10.6405,-10.6405,-10.6405,-10.6405,-10.6405,-10.6405,-10.6405,-10.6405,-10.5724,-10.5724,-10.5724,-10.5724,-10.5724,-10.5724,-10.5724,-10.5724,-10.5724,-10.5724,-10.5724,-10.5724,-10.5724,-10.5724,-10.5724,-10.5724,-10.5724,-10.5724,-10.5724,-10.5724,-10.5724,-10.5724,-10.5724,-10.5724,-10.5724,-10.5724,-10.5724,-10.5724,-10.5724,-10.4921,-10.3508,-10.4998,-10.5724,-10.5724,-10.5724,-10.5724,-10.5724,-10.5724,-10.5724,-10.5724,-10.5724,-10.5724,-10.5724,-10.5724,-10.5724,-10.5724,-10.5724,-10.5724,-10.5724,-10.5724,-10.5724,-10.5724,-10.5724,-10.5724,-10.5724,-10.5724,-10.5724,-10.5724,-10.5724,-10.5724,-10.5724,-10.5724,-10.5724,-10.5724,-10.5724,-10.5724,-10.5724,-10.5724,-10.5783,-10.5886,-10.5886,-10.5908,-10.5809,-10.5793,-10.5103,-10.4994,-10.581,-10.5208,-10.4687,-10.4795,-10.462,-10.4507,-10.4582,-10.44,-10.4697,-10.5809,-10.522,-10.5105,-10.6007,-10.6096,-10.6203,-10.6405,-10.6405,-10.6405,-10.6405,-10.6405,-10.6405,-10.6405,-10.6405,-10.6405,-10.6405,-10.6405,-10.6405,-10.6405,-10.6405,-10.6405,-10.6405,-10.6405,-10.6405,-10.6405,-10.6405,-10.6405,-10.6405,-10.6405,-10.6405,-10.6405,-10.5724,-10.5724,-10.5724,-10.5724,-10.5724,-10.5724,-10.5724,-10.5724,-10.5724,-10.5724,-10.5724,-10.5724,-10.5724,-10.5724,-10.5724,-10.5724,-10.5724,-10.5724,-10.5724,-10.5724,-10.5724,-10.5724,-10.5724,-10.5724,-10.5724,-10.5724,-10.5724,-10.5724,-10.5724,-10.5418,-10.4692,-10.5418,-10.5724,-10.5724,-10.5724,-10.5724,-10.5724,-10.5724,-10.5724,-10.5724,-10.5724,-10.5724,-10.5724,-10.5724,-10.5724,-10.5724,-10.5724,-10.5724,-10.5724,-10.5724,-10.5724,-10.5724,-10.5724,-10.5724,-10.5724,-10.5724,-10.5724,-10.5724,-10.5724,-10.5724,-10.5724,-10.5724,-10.5724,-10.5724,-10.5724,-10.5724,-10.571,-10.5783,-10.6009,-10.609,-10.6199,-10.6216,-10.6117,-10.622,-10.5909,-10.5793,-10.6284,-10.5994,-10.5802,-10.5805,-10.5721,-10.5695,-10.5597,-10.548,-10.5503,-10.5909,-10.5486,-10.5495,-10.6112,-10.6112,-10.6216,-10.6385,0.0,-10.6405,-10.6405,-10.6405,-10.6405,-10.6405,-10.6405,-10.6405,-10.6405,-10.6405,-10.6405,-10.6405,-10.6405,-10.6405,-10.6405,-10.6405,-10.6405,-10.6405,-10.6405,-10.6405,-10.6405,-10.6405,-10.6405,-10.6405,-10.5724,-10.5724,-10.5724,-10.5724,-10.5724,-10.5724,-10.5724,-10.5724,-10.5724,-10.5724,-10.5724,-10.5724,-10.5724,-10.5724,-10.5724,-10.5724,-10.5724,-10.5724,-10.5724,-10.5724,-10.5724,-10.5724,-10.5724,-10.5724,-10.5724,-10.5724,-10.5724,-10.5724,-10.5724,-10.5418,-10.4998,-10.4998,-10.5189,-10.5724,-10.5724,-10.5724,-10.5724,-10.5724,-10.5724,-10.5724,-10.5724,-10.5724,-10.5724,-10.5724,-10.5724,-10.5724,-10.5724,-10.5724,-10.5724,-10.5724,-10.5724,-10.5724,-10.5724,-10.5724,-10.5724,-10.5724,-10.5724,-10.5724,-10.5724,-10.5724,-10.5724,-10.5724,-10.5724,-10.5724,-10.5724,-10.5724,-10.5696,-10.5901,-10.5985,-10.6199,-10.6423,-10.6305,-10.6301,-10.6305,-10.6322,-10.6301,-10.6305,-10.6305,-10.6305,-10.6305,-10.6301,-10.622,-10.6199,-10.6106,-10.6016,-10.5993,-10.5916,-10.5924,-10.6096,-10.6112,-10.6216,-10.6385,-10.6405,-10.6405,-10.6405,-10.6405,-10.6405,-10.6405,-10.6405,-10.6405,-10.6405,-10.6405,-10.6405,-10.6405,-10.6405,-10.6405,-10.6405,-10.6405,-10.6405,-10.6405,-10.6405,-10.6405,-10.6405,-10.6405,-10.6405,-10.6405,-10.5724,-10.5724,-10.5724,-10.5724,-10.5724,-10.5724,-10.5724,-10.5724,-10.5724,-10.5724,-10.5724,-10.5724,-10.5724,-10.5724,-10.5724,-10.5724,-10.5724,-10.5724,-10.5724,-10.5724,-10.5724,-10.5724,-10.5724,-10.5724,-10.5724,-10.5724,-10.5724,-10.5724,-10.5724,-10.4883,-10.3202,-10.3202,-10.4081,-10.5724,-10.5724,-10.5724,-10.5724,-10.5724,-10.5724,-10.5724,-10.5724,-10.5724,-10.5724,-10.5724,-10.5724,-10.5724,-10.5724,-10.5724,-10.5724,-10.5724,-10.5724,-10.5724,-10.5724,-10.5724,-10.5724,-10.5724,-10.5724,-10.5724,-10.5724,-10.5724,-10.5724,-10.5724,-10.5724,-10.5724,-10.5724,-10.5724,-10.5797,-10.6016,-10.5985,-10.609,-10.6402,-10.6405,-10.6402,-10.622,-10.6284,-10.6402,-10.622,-10.6199,-10.6199,-10.6199,-10.6001,-10.5993,-10.6216,-10.5978,-10.5993,-10.6216,-10.609,-10.5985,-10.5985,-10.6096,-10.628,-10.6405,-10.6405,-10.6405,-10.6405,-10.6405,-10.6405,-10.6405,-10.6405,-10.6405,-10.6405,-10.6405,-10.6405,-10.6405,-10.6405,-10.6405,-10.6405,-10.6405,-10.6405,-10.6405,-10.6405,-10.6405,-10.6405,-10.6405,-10.6405,-10.6405,-10.5724,-10.5724,-10.5724,-10.5724,-10.5724,-10.5724,-10.5724,-10.5724,-10.5724,-10.5724,-10.5724,-10.5724,-10.5724,-10.5724,-10.5724,-10.5724,-10.5724,-10.5724,-10.5724,-10.5724,-10.5724,-10.5724,-10.5724,-10.5724,-10.5724,-10.5724,-10.5724,-10.5724,-10.5724,-10.5418,-10.4921,-10.4921,-10.5189,-10.5724,-10.5724,-10.5724,-10.5724,-10.5724,-10.5724,-10.5724,-10.5724,-10.5724,-10.5724,-10.5724,-10.5724,-10.5724,-10.5724,-10.5724,-10.5724,-10.5724,-10.5724,-10.5724,-10.5724,-10.5724,-10.5724,-10.5724,-10.5724,-10.5724,-10.5724,-10.5724,-10.5724,-10.5724,-10.5724,-10.5724,-10.5724,-10.5807,-10.5894,-10.6001,-10.6117,-10.6322,-10.6385,-10.6405,-10.6385,-10.6305,-10.6423,-10.6385,-10.6305,-10.6305,-10.6305,-10.6305,-10.628,-10.6319,-10.6305,-10.6216,-10.6112,-10.6199,-10.609,-10.5991,-10.6096,-10.6216,-10.628,-10.6405,-10.6405,-10.6405,-10.6405,-10.6405,-10.6405,-10.6405,-10.6405,-10.6405,-10.6405,-10.6405,-10.6405,-10.6405,-10.6405,-10.6405,-10.6405,-10.6405,-10.6405,-10.6405,-10.6405,-10.6405,-10.6405,-10.6405,-10.6405,-10.6405,-10.5724,-10.5724,-10.5724,-10.5724,-10.5724,-10.5724,-10.5724,-10.5724,-10.5724,-10.5724,-10.5724,-10.5724,-10.5724,-10.5724,-10.5724,-10.5724,-10.5724,-10.5724,-10.5724,-10.5724,-10.5724,-10.5724,-10.5724,-10.5724,-10.5724,-10.5724,-10.5724,-10.5724,-10.5724,-10.5724,-10.5724,-10.5724,-10.5724,-10.5724,-10.5724,-10.5724,-10.5724,-10.5724,-10.5724,-10.5724,-10.5724,-10.5724,-10.5724,-10.5724,-10.5724,-10.5724,-10.5724,-10.5724,-10.5724,-10.5724,-10.5724,-10.5724,-10.5724,-10.5724,-10.5724,-10.5724,-10.5724,-10.5724,-10.5724,-10.5724,-10.5724,-10.5724,-10.5724,-10.5686,-10.5797,-10.5878,-10.5978,-10.6106,-10.6199,-10.6305,-10.6385,-10.6405,-10.6405,-10.6405,-10.6405,-10.6405,-10.6405,-10.6405,-10.6385,-10.6305,-10.6305,-10.6305,-10.6305,-10.6203,-10.622,-10.6301,-10.6199,-10.6177,-10.6301,-10.622,-10.628,-10.6405,-10.6405,-10.6405,-10.6405,-10.6405,-10.6405,-10.6405,-10.6405,-10.6405,-10.6405,-10.6405,-10.6405,-10.6405,-10.6405,-10.6405,-10.6405,-10.6405,-10.6405,-10.6405,-10.6405,-10.6405,-10.6405,-10.6405,-10.6405,-10.6405,-10.5724,-10.5724,-10.5724,-10.5724,-10.5724,-10.5724,-10.5724,-10.5724,-10.5724,-10.5724,-10.5724,-10.5724,-10.5724,-10.5724,-10.5724,-10.5724,-10.5724,-10.5724,-10.5724,-10.5724,-10.5724,-10.5724,-10.5724,-10.5724,-10.5724,-10.5724,-10.5724,-10.5724,-10.5724,-10.5724,-10.5724,-10.5724,-10.5724,-10.5724,-10.5724,-10.5724,-10.5724,-10.5724,-10.5724,-10.5724,-10.5724,-10.5724,-10.5724,-10.5724,-10.5724,-10.5724,-10.5724,-10.5724,-10.5724,-10.5724,-10.5724,-10.5724,-10.5724,-10.5724,-10.5724,-10.5724,-10.5724,-10.5724,-10.5724,-10.5724,-10.5724,-10.5724,-10.5724,-10.571,-10.5892,-10.5901,-10.6009,-10.6194,-10.6199,-10.6319,-10.6385,-10.6405,-10.6405,-10.6405,-10.6405,-10.6405,-10.6405,-10.6405,-10.6402,-10.6182,-10.6199,-10.6199,-10.6199,-10.6199,-10.6301,-10.6385,-10.6405,-10.6405,-10.6405,-10.6301,-10.6301,-10.6405,-10.6405,-10.6405,-10.6405,-10.6405,-10.6405,-10.6405,-10.6405,-10.6405,-10.6405,-10.6405,-10.6405,-10.6405,-10.6405,-10.6405,-10.6405,-10.6405,-10.6405,-10.6405,-10.6405,-10.6405,-10.6405,-10.6405,-10.6405,-10.6405,-10.5724,-10.5724,-10.5724,-10.5724,-10.5724,-10.5724,-10.5724,-10.5724,-10.5724,-10.5724,-10.5724,-10.5724,-10.5724,-10.5724,-10.5724,-10.5724,-10.5724,-10.5724,-10.5724,-10.5724,-10.5724,-10.5724,-10.5724,-10.5724,-10.5724,-10.5724,-10.5724,-10.5724,-10.5724,-10.5724,-10.5724,-10.5724,-10.5724,-10.5724,-10.5724,-10.5724,-10.5724,-10.5724,-10.5724,-10.5724,-10.5724,-10.5724,-10.5724,-10.5724,-10.5724,-10.5724,-10.5724,-10.5724,-10.5724,-10.5724,-10.5724,-10.5724,-10.5724,-10.5724,-10.5724,-10.5724,-10.5724,-10.5724,-10.5724,-10.5724,-10.5724,-10.5724,-10.5724,-10.571,-10.5892,-10.5909,-10.5985,-10.6216,-10.6301,-10.6402,-10.6385,-10.6405,-10.6405,-10.6405,-10.6405,-10.6405,-10.6405,-10.6405,-10.6385,-10.6402,-10.6402,-10.6402,-10.6402,-10.6402,-10.6402,-10.6405,-10.6405,-10.6405,-10.6405,-10.6423,-10.6402,-10.6405,-10.6405,-10.6405,-10.6405,-10.6405,-10.6405,-10.6405,-10.6405,-10.6405,-10.6405,-10.6405,-10.6405,-10.6405,-10.6405,-10.6405,-10.6405,-10.6405,-10.6405,-10.6405,-10.6405,-10.6405,-10.6405,-10.6405,-10.6405,-10.6405,-10.5724,-10.5724,-10.5724,-10.5724,-10.5724,-10.5724,-10.5724,-10.5724,-10.5724,-10.5724,-10.5724,-10.5724,-10.5724,-10.5724,-10.5724,-10.5724,-10.5724,-10.5724,-10.5724,-10.5724,-10.5724,-10.5724,-10.5724,-10.5724,-10.5724,-10.5724,-10.5724,-10.5724,-10.5724,-10.5724,-10.5724,-10.5724,-10.5724,-10.5724,-10.5724,-10.5724,-10.5724,-10.5724,-10.5724,-10.5724,-10.5724,-10.5724,-10.5724,-10.5724,-10.5724,-10.5724,-10.5724,-10.5724,-10.5724,-10.5724,-10.5724,-10.5724,-10.5724,-10.5724,-10.5724,-10.5724,-10.5724,-10.5724,-10.5724,-10.5724,-10.5724,-10.5724,-10.5724,-10.5696,-10.5886,-10.6016,-10.6106,-10.6319,-10.6326,-10.6405,-10.6405,-10.6405,-10.6405,-10.6405,-10.6405,-10.6405,-10.6405,-10.6405,-10.6405,-10.6405,-10.6405,-10.6405,-10.6405,-10.6405,-10.6405,-10.6405,-10.6405,-10.6405,-10.6405,-10.6405,-10.6405,-10.6405,-10.6405,-10.6405,-10.6405,-10.6405,-10.6405,-10.6405,-10.6405,-10.6405,-10.6405,-10.6405,-10.6405,-10.6405,-10.6405,-10.6405,-10.6405,-10.6405,-10.6405,-10.6405,-10.6405,-10.6405,-10.6405,-10.6405,-10.6405,-10.6405,-10.5724,-10.5724,-10.5724,-10.5724,-10.5724,-10.5724,-10.5724,-10.5724,-10.5724,-10.5724,-10.5724,-10.5724,-10.5724,-10.5724,-10.5724,-10.5724,-10.5724,-10.5724,-10.5724,-10.5724,-10.5724,-10.5724,-10.5724,-10.5724,-10.5724,-10.5724,-10.5724,-10.5724,-10.5724,-10.5724,-10.5724,-10.5724,-10.5724,-10.5724,-10.5724,-10.5724,-10.5724,-10.5724,-10.5724,-10.5724,-10.5724,-10.5724,-10.5724,-10.5724,-10.5724,-10.5724,-10.5724,-10.5724,-10.5724,-10.5724,-10.5724,-10.5724,-10.5724,-10.5724,-10.5724,-10.5724,-10.5724,-10.5724,-10.5724,-10.5724,-10.5686,-10.571,-10.571,-10.5821,-10.6001,-10.6007,-10.6112,-10.6326,-10.6405,-10.6405,-10.6405,-10.6405,-10.6405,-10.6405,-10.6405,-10.6405,-10.6405,-10.6405,-10.6405,-10.6405,-10.6405,-10.6405,-10.6405,-10.6405,-10.6405,-10.6405,-10.6405,-10.6405,-10.6405,-10.6405,-10.6405,-10.6405,-10.6405,-10.6405,-10.6405,-10.6405,-10.6405,-10.6405,-10.6405,-10.6405,-10.6405,-10.6405,-10.6405,-10.6405,-10.6405,-10.6405,-10.6405,-10.6405,-10.6405,-10.6405,-10.6405,-10.6405,-10.6405,-10.6405,-10.6405,-10.6405,-10.5724,-10.5724,-10.5724,-10.5724,-10.5724,-10.5724,-10.5724,-10.5724,-10.5724,-10.5724,-10.5724,-10.5724,-10.5724,-10.5724,-10.5724,-10.5724,-10.5724,-10.5724,-10.5724,-10.5724,-10.5724,-10.5724,-10.5724,-10.5724,-10.5724,-10.5724,-10.5724,-10.5724,-10.5724,-10.5724,-10.5724,-10.5724,-10.5724,-10.5724,-10.5724,-10.5724,-10.5724,-10.5724,-10.5724,-10.5724,-10.5724,-10.5724,-10.5724,-10.5724,-10.5724,-10.5724,-10.5724,-10.5724,-10.5724,-10.5724,-10.5724,-10.5724,-10.5724,-10.5724,-10.5724,-10.5724,-10.5724,-10.5724,-10.5724,-10.5724,-10.571,-10.5792,-10.5892,-10.5924,-10.6112,-10.6216,-10.6199,-10.6423,-10.6405,-10.6405,-10.6405,-10.6405,-10.6405,-10.6405,-10.6405,-10.6405,-10.6405,-10.6405,-10.6405,-10.6405,-10.6405,-10.6405,-10.6405,-10.6405,-10.6405,-10.6405,-10.6405,-10.6405,-10.6405,-10.6405,-10.6405,-10.6405,-10.6405,-10.6405,-10.6405,-10.6405,-10.6405,-10.6405,-10.6405,-10.6405,-10.6405,-10.6405,-10.6405,-10.6405,-10.6405,-10.6405,-10.6405,-10.6405,-10.6405,-10.6405,-10.6405,-10.6405,-10.6405,-10.6405,-10.6405,-10.6405,-10.5724,-10.5724,-10.5724,-10.5724,-10.5724,-10.5724,-10.5724,-10.5724,-10.5724,-10.5724,-10.5724,-10.5724,-10.5724,-10.5724,-10.5724,-10.5724,-10.5724,-10.5724,-10.5724,-10.5724,-10.5724,-10.5724,-10.5724,-10.5724,-10.5724,-10.5724,-10.5724,-10.5724,-10.5724,-10.5724,-10.5724,-10.5724,-10.5724,-10.5724,-10.5724,-10.5724,-10.5724,-10.5724,-10.5724,-10.5724,-10.5724,-10.5724,-10.5724,-10.5724,-10.5724,-10.5724,-10.5724,-10.5724,-10.5724,-10.5724,-10.5724,-10.5724,-10.5724,-10.5724,-10.5724,-10.5724,-10.5724,-10.5724,-10.5724,-10.5724,-10.571,-10.5892,-10.5878,-10.5986,-10.6194,-10.6199,-10.6182,-10.6423,-10.6405,-10.6405,-10.6405,-10.6405,-10.6405,-10.6405,-10.6405,-10.6405,-10.6405,-10.6405,-10.6405,-10.6405,-10.6405,-10.6405,-10.6405,-10.6405,-10.6405,-10.6405,-10.6405,-10.6405,-10.6405,-10.6405,-10.6405,-10.6405,-10.6405,-10.6405,-10.6405,-10.6405,-10.6405,-10.6405,-10.6405,-10.6405,-10.6405,-10.6405,-10.6405,-10.6405,-10.6405,-10.6405,-10.6405,-10.6405,-10.6405,-10.6405,-10.6405,-10.6405,-10.6405,-10.6405,-10.6405,-10.6405,-10.5724,-10.5724,-10.5724,-10.5724,-10.5724,-10.5724,-10.5724,-10.5724,-10.5724,-10.5724,-10.5724,-10.5724,-10.5724,-10.5724,-10.5724,-10.5724,-10.5724,-10.5724,-10.5724,-10.5724,-10.5724,-10.5724,-10.5724,-10.5724,-10.5724,-10.5724,-10.5724,-10.5724,-10.5724,-10.5724,-10.5724,-10.5724,-10.5724,-10.5724,-10.5724,-10.5724,-10.5724,-10.5724,-10.5724,-10.5724,-10.5724,-10.5724,-10.5724,-10.5724,-10.5724,-10.5724,-10.5724,-10.5724,-10.5724,-10.5724,-10.5724,-10.5724,-10.5724,-10.5724,-10.5724,-10.5724,-10.5724,-10.5724,-10.5724,-10.5724,-10.571,-10.5878,-10.5886,-10.5993,-10.6177,-10.6203,-10.6301,-10.6385,-10.6405,-10.6405,-10.6405,-10.6405,-10.6405,-10.6405,-10.6405,-10.6405,-10.6405,-10.6405,-10.6405,-10.6405,-10.6405,-10.6405,-10.6405,-10.6405,-10.6405,-10.6405,-10.6405,-10.6405,-10.6405,-10.6405,-10.6405,-10.6405,-10.6405,-10.6405,-10.6405,-10.6405,-10.6405,-10.6405,-10.6405,-10.6405,-10.6405,-10.6405,-10.6405,-10.6405,-10.6405,-10.6405,-10.6405,-10.6405,-10.6405,-10.6405,-10.6405,-10.6405,-10.6405,-10.6405,-10.6405,-10.6405,-10.5724,-10.5724,-10.5724,-10.5724,-10.5724,-10.5724,-10.5724,-10.5724,-10.5724,-10.5724,-10.5724,-10.5724,-10.5724,-10.5724,-10.5724,-10.5724,-10.5724,-10.5724,-10.5724,-10.5724,-10.5724,-10.5724,-10.5724,-10.5724,-10.5724,-10.5724,-10.5724,-10.5724,-10.5724,-10.5724,-10.5724,-10.5724,-10.5724,-10.5724,-10.5724,-10.5724,-10.5724,-10.5724,-10.5724,-10.5724,-10.5724,-10.5724,-10.5724,-10.5724,-10.5724,-10.5724,-10.5724,-10.5724,-10.5724,-10.5724,-10.5724,-10.5724,-10.5724,-10.5724,-10.5724,-10.5724,-10.5724,-10.5724,-10.5724,-10.5724,-10.5696,-10.5917,-10.6001,-10.6106,-10.6305,-10.6385,-10.6385,-10.6405,-10.6405,-10.6405,-10.6405,-10.6405,-10.6405,-10.6405,-10.6405,-10.6405,-10.6405,-10.6405,-10.6405,-10.6405,-10.6405,-10.6405,-10.6405,-10.6405,-10.6405,-10.6405,-10.6405,-10.6405,-10.6405,-10.6405,-10.6405,-10.6405,-10.6405,-10.6405,-10.6405,-10.6405,-10.6405,-10.6405,-10.6405,-10.6405,-10.6405,-10.6405,-10.6405,-10.6405,-10.6405,-10.6405,-10.6405,-10.6405,-10.6405,-10.6405,-10.6405,-10.6405,-10.6405,-10.6405,-10.6405,-10.6405,-10.5724,-10.5724,-10.5724,-10.5724,-10.5724,-10.5724,-10.5724,-10.5724,-10.5724,-10.5724,-10.5724,-10.5724,-10.5724,-10.5724,-10.5724,-10.5724,-10.5724,-10.5724,-10.5724,-10.5724,-10.5724,-10.5724,-10.5724,-10.5724,-10.5724,-10.5724,-10.5724,-10.5724,-10.5724,-10.5724,-10.5724,-10.5724,-10.5724,-10.5724,-10.5724,-10.5724,-10.5724,-10.5724,-10.5724,-10.5724,-10.5724,-10.5724,-10.5724,-10.5724,-10.5724,-10.5724,-10.5724,-10.5724,-10.5724,-10.5724,-10.5724,-10.5724,-10.5724,-10.5724,-10.5724,-10.5724,-10.5811,-10.5807,-10.5807,-10.5807,-10.5892,-10.5978,-10.6128,-10.6216,-10.6402,-10.6405,-10.6405,-10.6405,-10.6405,-10.6405,-10.6405,-10.6405,-10.6405,-10.6405,-10.6405,-10.6405,-10.6405,-10.6405,-10.6405,-10.6405,-10.6405,-10.6405,-10.6405,-10.6405,-10.6405,-10.6405,-10.6405,-10.6405,-10.6405,-10.6405,-10.6405,-10.6405,-10.6405,-10.6405,-10.6405,-10.6405,-10.6405,-10.6405,-10.6405,-10.6405,-10.6405,-10.6405,-10.6405,-10.6405,-10.6405,-10.6405,-10.6405,-10.6405,-10.6405,-10.6405,-10.6405,-10.6405,-10.6405,-10.6405,-10.6405,-10.6405,-10.5724,-10.5724,-10.5724,-10.5724,-10.5724,-10.5724,-10.5724,-10.5724,-10.5724,-10.5724,-10.5724,-10.5724,-10.5724,-10.5724,-10.5724,-10.5724,-10.5724,-10.5724,-10.5724,-10.5724,-10.5724,-10.5724,-10.5724,-10.5724,-10.5724,-10.5724,-10.5724,-10.5724,-10.5724,-10.5724,-10.5724,-10.5724,-10.5724,-10.5724,-10.5724,-10.5724,-10.5724,-10.5724,-10.5724,-10.5724,-10.5724,-10.5724,-10.5724,-10.5724,-10.5724,-10.5724,-10.5724,-10.5724,-10.5724,-10.5724,-10.5724,-10.5724,-10.5724,-10.5724,-10.5724,-10.5724,-10.5821,-10.5878,-10.5878,-10.5909,-10.6016,-10.6106,-10.6096,-10.6182,-10.6423,-10.6405,-10.6405,-10.6405,-10.6405,-10.6405,-10.6405,-10.6405,-10.6405,-10.6405,-10.6405,-10.6405,-10.6405,-10.6405,-10.6405,-10.6405,-10.6405,-10.6405,-10.6405,-10.6405,-10.6405,-10.6405,-10.6405,-10.6405,-10.6405,-10.6405,-10.6405,-10.6405,-10.6405,-10.6405,-10.6405,-10.6405,-10.6405,-10.6405,-10.6405,-10.6405,-10.6405,-10.6405,-10.6405,-10.6405,-10.6405,-10.6405,-10.6405,-10.6405,-10.6405,-10.6405,-10.6405,-10.6405,-10.6405,-10.6405,-10.6405,-10.6405,-10.5724,-10.5724,-10.5724,-10.5724,-10.5724,-10.5724,-10.5724,-10.5724,-10.5724,-10.5724,-10.5724,-10.5724,-10.5724,-10.5724,-10.5724,-10.5724,-10.5724,-10.5724,-10.5724,-10.5724,-10.5724,-10.5724,-10.5724,-10.5724,-10.5724,-10.5724,-10.5724,-10.5724,-10.5724,-10.5724,-10.5724,-10.5724,-10.5724,-10.5724,-10.5724,-10.5724,-10.5724,-10.5724,-10.5724,-10.5724,-10.5724,-10.5724,-10.5724,-10.5724,-10.5724,-10.5724,-10.5724,-10.5724,-10.5724,-10.5724,-10.5724,-10.5724,-10.5724,-10.5724,-10.5686,-10.5686,-10.5783,-10.5878,-10.5878,-10.5985,-10.6199,-10.6199,-10.6199,-10.6182,-10.6423,-10.6405,-10.6405,-10.6405,-10.6405,-10.6405,-10.6405,-10.6405,-10.6405,-10.6405,-10.6405,-10.6405,-10.6405,-10.6405,-10.6405,-10.6405,-10.6405,-10.6405,-10.6405,-10.6405,-10.6405,-10.6405,-10.6405,-10.6405,-10.6405,-10.6405,-10.6405,-10.6405,-10.6405,-10.6405,-10.6405,-10.6405,-10.6405,-10.6405,-10.6405,-10.6405,-10.6405,-10.6405,-10.6405,-10.6405,-10.6405,-10.6405,-10.6405,-10.6405,-10.6405,-10.6405,-10.6405,-10.6405,-10.6405,-10.6405,-10.6405,-10.6405,-10.5724,-10.5724,-10.5724,-10.5724,-10.5724,-10.5724,-10.5724,-10.5724,-10.5724,-10.5724,-10.5724,-10.5724,-10.5724,-10.5724,-10.5724,-10.5724,-10.5724,-10.5724,-10.5724,-10.5724,-10.5724,-10.5724,-10.5724,-10.5724,-10.5724,-10.5724,-10.5724,-10.5724,-10.5724,-10.5724,-10.5724,-10.5724,-10.5724,-10.5724,-10.5724,-10.5724,-10.5724,-10.5724,-10.5724,-10.5724,-10.5724,-10.5724,-10.5724,-10.5724,-10.5724,-10.5724,-10.5724,-10.5724,-10.5724,-10.5724,-10.5724,-10.5724,-10.5724,-10.5797,-10.5792,-10.5792,-10.6009,-10.609,-10.609,-10.6199,-10.6284,-10.622,-10.6301,-10.6402,-10.6385,-10.6405,-10.6405,-10.6405,-10.6405,-10.6405,-10.6405,-10.6405,-10.6405,-10.6405,-10.6405,-10.6405,-10.6405,-10.6405,-10.6405,-10.6405,-10.6405,-10.6405,-10.6405,-10.6405,-10.6405,-10.6405,-10.6405,-10.6405,-10.6405,-10.6405,-10.6405,-10.6405,-10.6405,-10.6405,-10.6405,-10.6405,-10.6405,-10.6405,-10.6405,-10.6405,-10.6405,-10.6405,-10.6405,-10.6405,-10.6405,-10.6405,-10.6405,-10.6405,-10.6405,-10.6405,-10.6405,-10.6405,-10.6405,-10.6405,-10.6405,-10.6405,-10.5724,-10.5724,-10.5724,-10.5724,-10.5724,-10.5724,-10.5724,-10.5724,-10.5724,-10.5724,-10.5724,-10.5724,-10.5724,-10.5724,-10.5724,-10.5724,-10.5724,-10.5724,-10.5724,-10.5724,-10.5724,-10.5724,-10.5724,-10.5724,-10.5724,-10.5724,-10.5724,-10.5724,-10.5724,-10.5724,-10.5724,-10.5724,-10.5724,-10.5724,-10.5724,-10.5724,-10.5724,-10.5724,-10.5724,-10.5724,-10.5724,-10.5724,-10.5724,-10.5724,-10.5724,-10.5724,-10.5724,-10.5724,-10.5724,-10.5724,-10.5724,-10.5686,-10.5773,-10.5807,-10.5901,-10.5909,-10.6084,-10.6199,-10.6199,-10.6322,-10.6385,-10.6322,-10.6305,-10.6405,-10.6405,-10.6405,-10.6405,-10.6405,-10.6405,-10.6405,-10.6405,-10.6405,-10.6405,-10.6405,-10.6405,-10.6405,-10.6405,-10.6405,-10.6405,-10.6405,-10.6405,-10.6405,-10.6405,-10.6405,-10.6405,-10.6405,-10.6405,-10.6405,-10.6405,-10.6405,-10.6405,-10.6405,-10.6405,-10.6405,-10.6405,-10.6405,-10.6405,-10.6405,-10.6405,-10.6405,-10.6405,-10.6405,-10.6405,-10.6405,-10.6405,-10.6405,-10.6405,-10.6405,-10.6405,-10.6405,-10.6405,-10.6405,-10.6405,-10.6405,-10.6405,-10.6405,-10.5724,-10.5724,-10.5724,-10.5724,-10.5724,-10.5724,-10.5724,-10.5724,-10.5724,-10.5724,-10.5724,-10.5724,-10.5724,-10.5724,-10.5724,-10.5724,-10.5724,-10.5724,-10.5724,-10.5724,-10.5724,-10.5724,-10.5724,-10.5724,-10.5724,-10.5724,-10.5724,-10.5724,-10.5724,-10.5724,-10.5724,-10.5724,-10.5724,-10.5724,-10.5724,-10.5724,-10.5724,-10.5724,-10.5724,-10.5724,-10.5724,-10.5724,-10.5724,-10.5724,-10.5724,-10.5724,-10.5724,-10.5724,-10.5724,-10.5724,-10.5686,-10.5672,-10.5892,-10.5901,-10.5909,-10.6001,-10.6074,-10.622,-10.622,-10.6284,-10.6405,-10.6405,-10.6405,-10.6405,-10.6405,-10.6405,-10.6405,-10.6405,-10.6405,-10.6405,-10.6405,-10.6405,-10.6405,-10.6405,-10.6405,-10.6405,-10.6405,-10.6405,-10.6405,-10.6405,-10.6405,-10.6405,-10.6405,-10.6405,-10.6405,-10.6405,-10.6405,-10.6405,-10.6405,-10.6405,-10.6405,-10.6405,-10.6405,-10.6405,-10.6405,-10.6405,-10.6405,-10.6405,-10.6405,-10.6405,-10.6405,-10.6405,-10.6405,-10.6405,-10.6405,-10.6405,-10.6405,-10.6405,-10.6405,-10.6405,-10.6405,-10.6405,-10.6405,-10.6405,-10.6405,-10.6405,-10.5724,-10.5724,-10.5724,-10.5724,-10.5724,-10.5724,-10.5724,-10.5724,-10.5724,-10.5724,-10.5724,-10.5724,-10.5724,-10.5724,-10.5724,-10.5724,-10.5724,-10.5724,-10.5724,-10.5724,-10.5724,-10.5724,-10.5724,-10.5724,-10.5724,-10.5724,-10.5724,-10.5724,-10.5724,-10.5724,-10.5724,-10.5724,-10.5724,-10.5724,-10.5724,-10.5724,-10.5724,-10.5724,-10.5724,-10.5724,-10.5724,-10.5724,-10.5724,-10.5724,-10.5724,-10.5724,-10.5724,-10.5724,-10.5724,-10.5724,-10.5797,-10.5892,-10.5916,-10.6016,-10.6096,-10.6194,-10.6319,-10.6402,-10.6402,-10.6385,-10.6405,-10.6405,-10.6405,-10.6405,-10.6405,-10.6405,-10.6405,-10.6405,-10.6405,-10.6405,-10.6405,-10.6405,-10.6405,-10.6405,-10.6405,-10.6405,-10.6405,-10.6405,-10.6405,-10.6405,-10.6405,-10.6405,-10.6405,-10.6405,-10.6405,-10.6405,-10.6405,-10.6405,-10.6405,-10.6405,-10.6405,-10.6405,-10.6405,-10.6405,-10.6405,-10.6405,-10.6405,-10.6405,-10.6405,-10.6405,-10.6405,-10.6405,-10.6405,-10.6405,-10.6405,-10.6405,-10.6405,-10.6405,-10.6405,-10.6405,-10.6405,-10.6405,-10.6405,-10.6405,-10.6405,-10.6405,-10.5724,-10.5724,-10.5724,-10.5724,-10.5724,-10.5724,-10.5724,-10.5724,-10.5724,-10.5724,-10.5724,-10.5724,-10.5724,-10.5724,-10.5724,-10.5724,-10.5724,-10.5724,-10.5724,-10.5724,-10.5724,-10.5724,-10.5724,-10.5724,-10.5724,-10.5724,-10.5724,-10.5724,-10.5724,-10.5724,-10.5724,-10.5724,-10.5724,-10.5724,-10.5724,-10.5724,-10.5724,-10.5724,-10.5724,-10.5724,-10.5724,-10.5724,-10.5724,-10.5724,-10.5724,-10.5724,-10.5724,-10.5724,-10.5686,-10.5797,-10.5792,-10.5901,-10.5978,-10.609,-10.6199,-10.6301,-10.6305,-10.6405,-10.6405,-10.6405,-10.6405,-10.6405,-10.6405,-10.6405,-10.6405,-10.6405,-10.6405,-10.6405,-10.6405,-10.6405,-10.6405,-10.6405,-10.6405,-10.6405,-10.6405,-10.6405,-10.6405,-10.6405,-10.6405,-10.6405,-10.6405,-10.6405,-10.6405,-10.6405,-10.6405,-10.6405,-10.6405,-10.6405,-10.6405,-10.6405,-10.6405,-10.6405,-10.6405,-10.6405,-10.6405,-10.6405,-10.6405,-10.6405,-10.6405,-10.6405,-10.6405,-10.6405,-10.6405,-10.6405,-10.6405,-10.6405,-10.6405,-10.6405,-10.6405,-10.6405,-10.6405,-10.6405,-10.6405,-10.6405,-10.6405,-10.6405,-10.5724,-10.5724,-10.5724,-10.5724,-10.5724,-10.5724,-10.5724,-10.5724,-10.5724,-10.5724,-10.5724,-10.5724,-10.5724,-10.5724,-10.5724,-10.5724,-10.5724,-10.5724,-10.5724,-10.5724,-10.5724,-10.5724,-10.5724,-10.5724,-10.5724,-10.5724,-10.5724,-10.5724,-10.5724,-10.5724,-10.5724,-10.5724,-10.5724,-10.5724,-10.5724,-10.5724,-10.5724,-10.5724,-10.5724,-10.5724,-10.5724,-10.5724,-10.5724,-10.5724,-10.5724,-10.5724,-10.5724,-10.5686,-10.5811,-10.5892,-10.5924,-10.5993,-10.6096,-10.6199,-10.628,-10.6402,-10.6405,-10.6405,-10.6405,-10.6405,-10.6405,-10.6405,-10.6405,-10.6405,-10.6405,-10.6405,-10.6405,-10.6405,-10.6405,-10.6405,-10.6405,-10.6405,-10.6405,-10.6405,-10.6405,-10.6405,-10.6405,-10.6405,-10.6405,-10.6405,-10.6405,-10.6405,-10.6405,-10.6405,-10.6405,-10.6405,-10.6405,-10.6405,-10.6405,-10.6405,-10.6405,-10.6405,-10.6405,-10.6405,-10.6405,-10.6405,-10.6405,-10.6405,-10.6405,-10.6405,-10.6405,-10.6405,-10.6405,-10.6405,-10.6405,-10.6405,-10.6405,-10.6405,-10.6405,-10.6405,-10.6405,-10.6405,-10.6405,-10.6405,-10.6405,-10.6405,-10.5724,-10.5724,-10.5724,-10.5724,-10.5724,-10.5724,-10.5724,-10.5724,-10.5724,-10.5724,-10.5724,-10.5724,-10.5724,-10.5724,-10.5724,-10.5724,-10.5724,-10.5724,-10.5724,-10.5724,-10.5724,-10.5724,-10.5724,-10.5724,-10.5724,-10.5724,-10.5724,-10.5724,-10.5724,-10.5724,-10.5724,-10.5724,-10.5724,-10.5724,-10.5724,-10.5724,-10.5724,-10.5724,-10.5724,-10.5724,-10.5724,-10.5724,-10.5724,-10.5724,-10.5724,-10.5724,-10.5724,-10.5797,-10.5892,-10.5916,-10.5978,-10.6194,-10.6177,-10.6301,-10.6423,-10.6405,-10.6405,-10.6405,-10.6405,-10.6405,-10.6405,-10.6405,-10.6405,-10.6405,-10.6405,-10.6405,-10.6405,-10.6405,-10.6405,-10.6405,-10.6405,-10.6405,-10.6405,-10.6405,-10.6405,-10.6405,-10.6405,-10.6405,-10.6405,-10.6405,-10.6405,-10.6405,-10.6405,-10.6405,-10.6405,-10.6405,-10.6405,-10.6405,-10.6405,-10.6405,-10.6405,-10.6405,-10.6405,-10.6405,-10.6405,-10.6405,-10.6405,-10.6405,-10.6405,-10.6405,-10.6405,-10.6405,-10.6405,-10.6405,-10.6405,-10.6405,-10.6405,-10.6405,-10.6405,-10.6405,-10.6405,-10.6405,-10.6405,-10.6405,-10.6405,-10.6405,-10.5724,-10.5724,-10.5724,-10.5724,-10.5724,-10.5724,-10.5724,-10.5724,-10.5724,-10.5724,-10.5724,-10.5724,-10.5724,-10.5724,-10.5724,-10.5724,-10.5724,-10.5724,-10.5724,-10.5724,-10.5724,-10.5724,-10.5724,-10.5724,-10.5724,-10.5724,-10.5724,-10.5724,-10.5724,-10.5724,-10.5724,-10.5724,-10.5724,-10.5724,-10.5724,-10.5724,-10.5724,-10.5724,-10.5724,-10.5724,-10.5724,-10.5724,-10.5724,-10.5724,-10.5724,-10.5686,-10.5797,-10.5916,-10.5993,-10.5985,-10.6112,-10.6199,-10.6301,-10.6402,-10.6405,-10.6405,-10.6405,-10.6405,-10.6405,-10.6405,-10.6405,-10.6405,-10.6405,-10.6405,-10.6405,-10.6405,-10.6405,-10.6405,-10.6405,-10.6405,-10.6405,-10.6405,-10.6405,-10.6405,-10.6405,-10.6405,-10.6405,-10.6405,-10.6405,-10.6405,-10.6405,-10.6405,-10.6405,-10.6405,-10.6405,-10.6405,-10.6405,-10.6405,-10.6405,-10.6405,-10.6405,-10.6405,-10.6405,-10.6405,-10.6405,-10.6405,-10.6405,-10.6405,-10.6405,-10.6405,-10.6405,-10.6405,-10.6405,-10.6405,-10.6405,-10.6405,-10.6405,-10.6405,-10.6405,-10.6405,-10.6405,-10.6507,-10.6599,-10.6599,-10.6684,-10.6812]},{"header":{"parameterUnit":"m.s-1","parameterCategory":1,"la1":30.6,"la2":28.766,"lo1":-90.7593,"lo2":-88.6598,"dy":0.0162,"dx":0.0183,"nx":116,"ny":114,"refTime":"2023-02-26T06:00:00:Z","depth":0,"parameterNumber":3,"parameterNumberName":"V-component_of_WINDS"},"data":[0.0,0.0,0.0,0.0,0.0,0.0,0.0,0.0,0.0,0.0,0.0,0.0,0.0,0.0,0.0,0.0,0.0,0.0,0.0,0.0,0.0,0.0,0.0,0.0,0.0,0.0,0.0,0.0,0.0,0.0,0.0,0.0,0.0,0.0,0.0,0.0,0.0,0.0,0.0,0.0,0.0,0.0,0.0,0.0,0.0,0.0,0.0,0.0,0.0,0.0,0.0,0.0,0.0,0.0,0.0,0.0,0.0,0.0,0.0,0.0,0.0,0.0,0.0,0.0,0.0,0.0,0.0,0.0,0.0,0.0,0.0,0.0,0.0,0.0,0.0,0.0,0.0,0.0,0.0,0.0,0.0,0.0,0.0,0.0,0.0,0.0,0.0,0.0,0.0,0.0,0.0,0.0,0.0,0.0,0.0,0.0,0.0,0.0,0.0,0.0,0.0,0.0,0.0,0.0,0.0,0.0,0.0,0.0,0.0,0.0,0.0,0.0,0.0,0.0,0.0,0.0,0.0,0.0,0.0,0.0,0.0,0.0,0.0,0.0,0.0,0.0,0.0,0.0,0.0,0.0,0.0,0.0,0.0,0.0,0.0,0.0,0.0,0.0,0.0,0.0,0.0,0.0,0.0,0.0,0.0,0.0,0.0,0.0,0.0,0.0,0.0,0.0,0.0,0.0,0.0,0.0,0.0,0.0,0.0,0.0,0.0,0.0,0.0,0.0,0.0,0.0,0.0,0.0,0.0,0.0,0.0,0.0,0.0,0.0,0.0,0.0,0.0,0.0,0.0,0.0,0.0,0.0,0.0,0.0,0.0,0.0,0.0,0.0,0.0,0.0,0.0,0.0,0.0,0.0,0.0,0.0,0.0,0.0,0.0,0.0,0.0,0.0,0.0,0.0,0.0,0.0,0.0,0.0,0.0,0.0,0.0,0.0,0.0,0.0,0.0,0.0,0.0,0.0,0.0,0.0,0.0,0.0,0.0,0.0,0.0,0.0,0.0,0.0,0.0,0.0,0.0,0.0,0.0,0.0,0.0,0.0,0.0,0.0,0.0,0.0,0.0,0.0,0.0,0.0,0.0,0.0,0.0,0.0,0.0,0.0,0.0,0.0,0.0,0.0,0.0,0.0,0.0,0.0,0.0,0.0,0.0,0.0,0.0,0.0,0.0,0.0,0.0,0.0,0.0,0.0,0.0,0.0,0.0,0.0,0.0,0.0,0.0,0.0,0.0,0.0,0.0,0.0,0.0,0.0,0.0,0.0,0.0,0.0,0.0,0.0,0.0,0.0,0.0,0.0,0.0,0.0,0.0,0.0,0.0,0.0,0.0,0.0,0.0,0.0,0.0,0.0,0.0,0.0,0.0,0.0,0.0,0.0,0.0,0.0,0.0,0.0,0.0,0.0,0.0,0.0,0.0,0.0,0.0,0.0,0.0,0.0,0.0,0.0,0.0,0.0,0.0,0.0,0.0,0.0,0.0,0.0,0.0,0.0,0.0,0.0,0.0,0.0,0.0,0.0,0.0,0.0,0.0,0.0,0.0,0.0,0.0,0.0,0.0,0.0,0.0,0.0,0.0,0.0,0.0,0.0,0.0,0.0,0.0,0.0,0.0,0.0,0.0,0.0,0.0,0.0,0.0,0.0,0.0,0.0,0.0,0.0,0.0,0.0,0.0,0.0,0.0,0.0,0.0,0.0,0.0,0.0,0.0,0.0,0.0,0.0,0.0,0.0,0.0,0.0,0.0,0.0,0.0,0.0,0.0,0.0,0.0,0.0,0.0,0.0,0.0,0.0,0.0,0.0,0.0,0.0,0.0,0.0,0.0,0.0,0.0,0.0,0.0,0.0,0.0,0.0,0.0,0.0,0.0,0.0,0.0,0.0,0.0,0.0,0.0,0.0,0.0,0.0,0.0,0.0,0.0,0.0,0.0,0.0,0.0,0.0,0.0,0.0,0.0,0.0,0.0,0.0,0.0,0.0,0.0,0.0,0.0,0.0,0.0,0.0,0.0,0.0,0.0,0.0,0.0,0.0,0.0,0.0,0.0,0.0,0.0,0.0,0.0,0.0,0.0,0.0,0.0,0.0,0.0,0.0,0.0,0.0,0.0,0.0,0.0,0.0,0.0,0.0,0.0,0.0,0.0,0.0,0.0,0.0,0.0,0.0,0.0,0.0,0.0,0.0,0.0,0.0,0.0,0.0,0.0,0.0,0.0,0.0,0.0,0.0,0.0,0.0,0.0,0.0,0.0,0.0,0.0,0.0,0.0,0.0,0.0,0.0,0.0,0.0,0.0,0.0,0.0,0.0,0.0,0.0,0.0,0.0,0.0,0.0,0.0,0.0,0.0,0.0,0.0,0.0,0.0,0.0,0.0,0.0,0.0,0.0,0.0,0.0,0.0,0.0,0.0,0.0,0.0,0.0,0.0,0.0,0.0,0.0,0.0,0.0,0.0,0.0,0.0,0.0,0.0,0.0,0.0,0.0,0.0,0.0,0.0,0.0,0.0,0.0,0.0,0.0,0.0,0.0,0.0,0.0,0.0,0.0,0.0,0.0,0.0,0.0,0.0,0.0,0.0,0.0,0.0,0.0,0.0,0.0,0.0,0.0,0.0,0.0,0.0,0.0,0.0,0.0,0.0,0.0,0.0,0.0,0.0,0.0,0.0,0.0,0.0,0.0,0.0,0.0,0.0,0.0,0.0,0.0,0.0,0.0,0.0,0.0,0.0,0.0,0.0,0.0,0.0,0.0,0.0,0.0,0.0,0.0,0.0,0.0,0.0,0.0,0.0,0.0,0.0,0.0,0.0,0.0,0.0,0.0,0.0,0.0,0.0,0.0,0.0,0.0,0.0,0.0,0.0,0.0,0.0,0.0,0.0,0.0,0.0,0.0,0.0,0.0,0.0,0.0,0.0,0.0,0.0,0.0,0.0,0.0,0.0,0.0,0.0,0.0,0.0,0.0,0.0,0.0,0.0,0.0,0.0,0.0,0.0,0.0,0.0,0.0,0.0,0.0,0.0,0.0,0.0,0.0,0.0,0.0,0.0,0.0,0.0,0.0,0.0,0.0,0.0,0.0,0.0,0.0,0.0,0.0,0.0,0.0,0.0,0.0,0.0,0.0,0.0,0.0,0.0,0.0,0.0,0.0,0.0,0.0,0.0,0.0,0.0,0.0,0.0,0.0,0.0,0.0,0.0,0.0,0.0,0.0,0.0,0.0,0.0,0.0,0.0,0.0,0.0,0.0,0.0,0.0,0.0,0.0,0.0,0.0,0.0,0.0,0.0,0.0,0.0,0.0,0.0,0.0,0.0,0.0,0.0,0.0,0.0,0.0,0.0,0.0,0.0,0.0,0.0,0.0,0.0,0.0,0.0,0.0,0.0,0.0,0.0,0.0,0.0,0.0,0.0,0.0,0.0,0.0,0.0,0.0,0.0,0.0,0.0,0.0,0.0,0.0,0.0,0.0,0.0,0.0,0.0,0.0,0.0,0.0,0.0,0.0,0.0,0.0,0.0,0.0,0.0,0.0,0.0,0.0,0.0,0.0,0.0,0.0,0.0,0.0,0.0,0.0,0.0,0.0,0.0,0.0,0.0,0.0,0.0,0.0,0.0,0.0,0.0,0.0,0.0,0.0,0.0,0.0,0.0,0.0,0.0,0.0,0.0,0.0,0.0,0.0,0.0,0.0,0.0,0.0,0.0,0.0,0.0,0.0,0.0,0.0,0.0,0.0,0.0,0.0,0.0,0.0,0.0,0.0,0.0,0.0,0.0,0.0,0.0,0.0,0.0,0.0,0.0,0.0,0.0,0.0,0.0,0.0,0.0,0.0,0.0,0.0,0.0,0.0,0.0,0.0,0.0,0.0,0.0,0.0,0.0,0.0,0.0,0.0,0.0,0.0,0.0,0.0,0.0,0.0,0.0,0.0,0.0,0.0,0.0,0.0,0.0,0.0,0.0,0.0,0.0,0.0,0.0,0.0,0.0,0.0,0.0,0.0,0.0,0.0,0.0,0.0,0.0,0.0,0.0,0.0,0.0,0.0,0.0,0.0,0.0,0.0,0.0,0.0,0.0,0.0,0.0,0.0,0.0,0.0,0.0,0.0,0.0,0.0,0.0,0.0,0.0,0.0,0.0,0.0,0.0,0.0,0.0,0.0,0.0,0.0,0.0,0.0,0.0,0.0,0.0,0.0,0.0,0.0,0.0,0.0,0.0,0.0,0.0,0.0,0.0,0.0,0.0,0.0,0.0,0.0,0.0,0.0,0.0,0.0,0.0,0.0,0.0,0.0,0.0,0.0,0.0,0.0,0.0,0.0,0.0,0.0,0.0,0.0,0.0,0.0,0.0,0.0,0.0,0.0,0.0,0.0,0.0,0.0,0.0,0.0,0.0,0.0,0.0,0.0,0.0,0.0,0.0,0.0,0.0,0.0,0.0,0.0,0.0,0.0,0.0,0.0,0.0,0.0,0.0,0.0,0.0,0.0,0.0,0.0,0.0,0.0,0.0,0.0,0.0,0.0,0.0,0.0,0.0,0.0,0.0,0.0,0.0,0.0,0.0,0.0,0.0,0.0,0.0,0.0,0.0,0.0,0.0,0.0,0.0,0.0,0.0,0.0,0.0,0.0,0.0,0.0,0.0,0.0,0.0,0.0,0.0,0.0,0.0,0.0,0.0,0.0,0.0,0.0,0.0,0.0,0.0,0.0,0.0,0.0,0.0,0.0,0.0,0.0,0.0,0.0,0.0,0.0,0.0,0.0,0.0,0.0,0.0,0.0,0.0,0.0,0.0,0.0,0.0,0.0,0.0,0.0,0.0,0.0,0.0,0.0,0.0,0.0,0.0,0.0,0.0,0.0,0.0,0.0,0.0,0.0,0.0,0.0,0.0,0.0,0.0,0.0,0.0,0.0,0.0,0.0,0.0,0.0,0.0,0.0,0.0,0.0,0.0,0.0,0.0,0.0,0.0,0.0,0.0,0.0,0.0,0.0,0.0,0.0,0.0,0.0,0.0,0.0,0.0,0.0,0.0,0.0,0.0,0.0,0.0,0.0,0.0,0.0,0.0,0.0,0.0,0.0,0.0,0.0,0.0,0.0,0.0,0.0,0.0,0.0,0.0,0.0,0.0,0.0,0.0,0.0,0.0,0.0,0.0,0.0,0.0,0.0,0.0,0.0,0.0,0.0,0.0,0.0,0.0,0.0,0.0,0.0,0.0,0.0,0.0,0.0,0.0,0.0,0.0,0.0,0.0,0.0,0.0,0.0,0.0,0.0,0.0,0.0,0.0,0.0,0.0,0.0,0.0,0.0,0.0,0.0,0.0,0.0,0.0,0.0,0.0,0.0,0.0,0.0,0.0,0.0,0.0,0.0,0.0,0.0,0.0,0.0,0.0,0.0,0.0,0.0,0.0,0.0,0.0,0.0,0.0,0.0,0.0,0.0,0.0,0.0,0.0,0.0,0.0,0.0,0.0,0.0,0.0,0.0,0.0,0.0,0.0,0.0,0.0,0.0,0.0,0.0,0.0,0.0,0.0,0.0,0.0,0.0,0.0,0.0,0.0,0.0,0.0,0.0,0.0,0.0,0.0,0.0,0.0,0.0,0.0,0.0,0.0,0.0,0.0,0.0,0.0,0.0,0.0,0.0,0.0,0.0,0.0,0.0,0.0,0.0,0.0,0.0,0.0,0.0,0.0,0.0,0.0,0.0,0.0,0.0,0.0,0.0,0.0,0.0,0.0,0.0,0.0,0.0,0.0,0.0,0.0,0.0,0.0,0.0,0.0,0.0,0.0,0.0,0.0,0.0,0.0,0.0,0.0,0.0,0.0,0.0,0.0,0.0,0.0,0.0,0.0,0.0,0.0,0.0,0.0,0.0,0.0,0.0,0.0,0.0,0.0,0.0,0.0,0.0,0.0,0.0,0.0,0.0,0.0,0.0,0.0,0.0,0.0,0.0,0.0,0.0,0.0,0.0,0.0,0.0,0.0,0.0,0.0,0.0,0.0,0.0,0.0,0.0,0.0,0.0,0.0,0.0,0.0,0.0,0.0,0.0,0.0,0.0,0.0,0.0,0.0,0.0,0.0,0.0,0.0,0.0,0.0,0.0,-1.7392,-1.7324,0.0,0.0,0.0,0.0,0.0,0.0,0.0,0.0,0.0,0.0,0.0,0.0,0.0,0.0,0.0,0.0,0.0,0.0,0.0,0.0,0.0,0.0,0.0,0.0,0.0,0.0,0.0,0.0,0.0,0.0,0.0,0.0,0.0,0.0,0.0,0.0,0.0,0.0,-1.9256,-1.9256,-1.9256,-1.9256,-1.9256,-1.9256,0.0,0.0,0.0,0.0,0.0,0.0,0.0,0.0,0.0,0.0,0.0,0.0,0.0,0.0,0.0,0.0,0.0,0.0,0.0,0.0,0.0,0.0,0.0,0.0,0.0,0.0,0.0,0.0,0.0,0.0,0.0,0.0,0.0,0.0,0.0,0.0,0.0,0.0,0.0,0.0,0.0,0.0,0.0,0.0,0.0,0.0,0.0,0.0,0.0,0.0,0.0,0.0,0.0,0.0,0.0,0.0,0.0,0.0,0.0,0.0,0.0,0.0,0.0,0.0,0.0,0.0,0.0,0.0,0.0,0.0,-1.7521,-1.7419,0.0,0.0,0.0,0.0,0.0,0.0,0.0,0.0,0.0,0.0,0.0,0.0,0.0,0.0,0.0,0.0,0.0,0.0,0.0,0.0,0.0,0.0,0.0,0.0,0.0,0.0,0.0,0.0,0.0,0.0,0.0,0.0,0.0,0.0,0.0,0.0,0.0,-1.9256,-1.9256,-1.9256,-1.9256,-1.9256,-1.9256,-1.9256,-1.9256,0.0,0.0,0.0,0.0,0.0,0.0,0.0,0.0,0.0,0.0,0.0,0.0,0.0,0.0,0.0,0.0,0.0,0.0,0.0,0.0,0.0,0.0,0.0,0.0,0.0,0.0,0.0,0.0,0.0,0.0,0.0,0.0,0.0,0.0,0.0,0.0,0.0,0.0,0.0,0.0,0.0,0.0,0.0,0.0,0.0,0.0,0.0,0.0,0.0,0.0,0.0,0.0,0.0,0.0,0.0,0.0,0.0,0.0,0.0,0.0,0.0,0.0,0.0,-1.7385,-1.7528,-1.765,-1.767,-1.7758,-1.7846,-1.7602,-1.75,-1.75,-1.75,0.0,0.0,0.0,0.0,0.0,0.0,0.0,0.0,0.0,0.0,0.0,0.0,0.0,0.0,0.0,0.0,0.0,0.0,0.0,0.0,0.0,0.0,0.0,0.0,0.0,0.0,0.0,0.0,0.0,0.0,0.0,0.0,0.0,-1.9256,-1.9256,-1.9256,-1.9256,-1.9256,-1.9256,-1.9256,-1.9256,-1.9256,-1.9256,-1.9256,-1.9256,0.0,0.0,0.0,0.0,0.0,0.0,0.0,0.0,0.0,0.0,0.0,0.0,0.0,0.0,0.0,0.0,0.0,0.0,0.0,0.0,0.0,0.0,0.0,0.0,0.0,0.0,0.0,0.0,0.0,0.0,0.0,0.0,0.0,0.0,0.0,0.0,0.0,0.0,0.0,0.0,0.0,-1.976,-1.9784,0.0,0.0,0.0,0.0,0.0,0.0,0.0,0.0,0.0,0.0,0.0,0.0,0.0,-1.7161,-1.7161,-1.7317,-1.7392,-1.7392,-1.7548,-1.7629,-1.765,-1.7772,-1.7846,-1.786,-1.7826,0.0,-1.7812,-1.7812,0.0,0.0,0.0,0.0,0.0,0.0,0.0,0.0,0.0,0.0,0.0,0.0,0.0,0.0,0.0,0.0,0.0,0.0,0.0,0.0,0.0,0.0,0.0,0.0,0.0,0.0,0.0,0.0,0.0,0.0,0.0,0.0,-1.9256,-1.9256,-1.9256,-1.9256,-1.9256,-1.9256,-1.9256,-1.9256,-1.9256,-1.9256,-1.9256,-1.9256,-1.9256,-1.9256,0.0,0.0,0.0,0.0,0.0,0.0,0.0,0.0,0.0,0.0,0.0,0.0,0.0,0.0,0.0,0.0,0.0,0.0,0.0,0.0,0.0,0.0,0.0,0.0,0.0,0.0,0.0,0.0,0.0,0.0,0.0,0.0,0.0,0.0,0.0,0.0,0.0,0.0,0.0,-1.9898,-1.9979,-2.0076,-1.9847,-1.9799,0.0,0.0,0.0,0.0,0.0,0.0,0.0,0.0,0.0,-1.71,-1.7243,-1.7317,-1.7317,-1.7473,-1.7548,-1.7548,-1.7704,-1.7772,-1.7772,-1.7826,-1.786,-1.786,-1.786,-1.786,-1.786,-1.786,-1.786,-1.786,0.0,0.0,0.0,0.0,-1.786,-1.786,0.0,0.0,0.0,0.0,0.0,0.0,0.0,0.0,0.0,0.0,0.0,0.0,0.0,0.0,0.0,-1.9256,0.0,0.0,0.0,0.0,0.0,0.0,0.0,-1.9256,-1.9256,-1.9256,-1.9256,-1.9256,-1.9256,-1.9256,-1.9256,-1.9256,-1.9256,-1.9256,-1.9256,-1.9256,-1.9256,-1.9256,-1.9256,-1.9256,0.0,0.0,0.0,0.0,0.0,0.0,0.0,0.0,0.0,0.0,0.0,0.0,0.0,0.0,0.0,0.0,0.0,0.0,0.0,0.0,0.0,0.0,0.0,0.0,0.0,0.0,0.0,0.0,0.0,0.0,0.0,0.0,0.0,0.0,0.0,0.0,0.0,-2.0133,-2.0182,-2.0304,-1.9903,-1.9702,0.0,0.0,0.0,0.0,0.0,0.0,-1.7032,-1.7134,-1.7209,-1.7249,-1.7399,-1.748,-1.748,-1.7629,-1.7704,-1.7704,-1.7812,-1.786,-1.786,-1.786,-1.786,-1.786,-1.786,-1.786,-1.786,-1.786,-1.786,-1.786,-1.786,-1.786,-1.786,-1.786,-1.786,-1.786,0.0,0.0,0.0,0.0,0.0,0.0,0.0,0.0,0.0,0.0,0.0,0.0,0.0,0.0,-1.9256,-1.9256,-1.9256,-1.9256,0.0,0.0,0.0,0.0,0.0,-1.9256,-1.9256,-1.9256,-1.9256,-1.9256,-1.9256,-1.9256,-1.9256,-1.9256,-1.9256,-1.9256,-1.9256,-1.9256,-1.9256,-1.9256,-1.9256,-1.9256,-1.9256,0.0,0.0,0.0,0.0,0.0,0.0,0.0,0.0,0.0,0.0,0.0,0.0,0.0,0.0,0.0,0.0,0.0,0.0,0.0,0.0,0.0,0.0,0.0,0.0,0.0,0.0,0.0,0.0,0.0,0.0,0.0,0.0,0.0,0.0,0.0,0.0,0.0,0.0,-2.032,-2.032,0.0,0.0,0.0,0.0,-1.8536,-1.7601,-1.7039,-1.7175,-1.7188,-1.7256,-1.7405,-1.7555,-1.7629,-1.7629,-1.7772,-1.7846,-1.7846,-1.786,-1.786,-1.786,-1.786,-1.786,-1.786,-1.786,-1.786,-1.786,-1.786,-1.786,-1.786,-1.786,-1.786,-1.786,-1.786,-1.786,-1.786,0.0,0.0,0.0,0.0,0.0,0.0,0.0,0.0,0.0,0.0,0.0,0.0,0.0,-1.9256,-1.9256,-1.9256,-1.9256,-1.9256,-1.9256,0.0,0.0,0.0,0.0,0.0,-1.9256,-1.9256,-1.9256,-1.9256,-1.9256,-1.9256,-1.9256,-1.9256,-1.9256,-1.9256,-1.9256,-1.9256,-1.9256,-1.9256,-1.9256,-1.9256,-1.9256,-1.9256,0.0,0.0,0.0,0.0,0.0,0.0,0.0,0.0,0.0,0.0,0.0,0.0,0.0,0.0,0.0,0.0,0.0,0.0,0.0,0.0,0.0,0.0,0.0,0.0,0.0,0.0,0.0,0.0,0.0,0.0,0.0,0.0,0.0,0.0,0.0,0.0,0.0,-2.032,-2.0007,0.0,-1.9806,-1.8753,-1.8168,-1.8164,-1.7537,-1.7182,-1.7331,-1.7433,-1.7514,-1.7568,-1.7704,-1.7792,-1.7792,-1.7846,-1.786,-1.786,-1.786,-1.786,-1.786,-1.786,-1.786,-1.786,-1.7968,-1.8002,-1.8023,-1.8111,-1.8091,-1.8002,-1.8002,-1.8077,-1.8158,-1.8158,-1.8158,-1.8158,0.0,0.0,0.0,0.0,0.0,0.0,0.0,0.0,0.0,0.0,0.0,-1.9256,-1.9256,-1.9256,-1.9256,-1.9256,-1.9256,-1.9256,-1.9256,0.0,0.0,0.0,-1.9256,0.0,0.0,-1.9256,-1.9256,-1.9256,-1.9256,-1.9256,-1.9256,-1.9256,-1.9256,-1.9256,-1.9256,-1.9256,-1.9256,-1.9256,-1.9256,-1.9256,-1.9256,-1.9256,-1.9256,0.0,0.0,0.0,0.0,0.0,0.0,0.0,0.0,0.0,0.0,0.0,0.0,0.0,0.0,0.0,0.0,0.0,0.0,0.0,0.0,0.0,0.0,0.0,0.0,0.0,0.0,0.0,0.0,0.0,0.0,0.0,0.0,0.0,0.0,-2.032,-2.032,-2.032,-2.0007,-1.9718,-1.9563,-1.8731,-1.8164,-1.8117,-1.759,-1.7338,-1.7487,-1.7595,-1.767,-1.7717,-1.7812,-1.786,-1.786,-1.786,-1.786,-1.786,-1.786,-1.786,-1.786,-1.7914,-1.7935,-1.7948,-1.8111,-1.8165,-1.8179,-1.8287,-1.8287,-1.8233,-1.8179,-1.8233,-1.8321,-1.8321,-1.8321,-1.8321,0.0,0.0,0.0,0.0,0.0,0.0,0.0,0.0,0.0,0.0,-1.9272,-1.9264,-1.9264,-1.9264,-1.9256,-1.9256,-1.9256,-1.9256,-1.9256,-1.9256,0.0,0.0,0.0,0.0,-1.9256,-1.9256,-1.9256,-1.9256,-1.9256,-1.9256,-1.9256,-1.9256,-1.9256,-1.9256,-1.9256,-1.9256,-1.9256,-1.9256,-1.9256,-1.9256,-1.9256,-1.9256,-1.9256,0.0,0.0,0.0,0.0,0.0,0.0,0.0,0.0,0.0,0.0,0.0,0.0,0.0,0.0,0.0,0.0,0.0,0.0,0.0,0.0,0.0,0.0,0.0,0.0,0.0,0.0,0.0,0.0,0.0,0.0,0.0,0.0,0.0,-2.032,-2.032,-2.032,-2.032,-2.0328,-2.0079,-1.9719,-1.9213,-1.8756,-1.8273,-1.7749,-1.7494,-1.765,-1.765,-1.7717,-1.786,-1.786,-1.786,-1.786,-1.786,-1.786,-1.786,-1.786,-1.786,-1.788,-1.8023,-1.8091,-1.8111,-1.8267,-1.8321,-1.8321,-1.8335,-1.8409,-1.8531,-1.8389,-1.8335,-1.8335,-1.8335,-1.8335,-1.8335,0.0,0.0,0.0,0.0,0.0,0.0,0.0,0.0,0.0,0.0,-1.9524,-1.9443,-1.9443,-1.9329,-1.9256,-1.9256,-1.9256,-1.9256,-1.9256,0.0,0.0,0.0,0.0,0.0,-1.9256,-1.9256,-1.9256,-1.9256,-1.9256,-1.9256,-1.9256,-1.9256,-1.9256,-1.9256,-1.9256,-1.9256,-1.9256,-1.9256,-1.9256,-1.9256,-1.9256,-1.9256,-1.9256,0.0,0.0,0.0,0.0,0.0,0.0,0.0,0.0,0.0,0.0,0.0,0.0,0.0,0.0,0.0,0.0,0.0,0.0,0.0,0.0,0.0,0.0,0.0,0.0,0.0,0.0,0.0,0.0,0.0,0.0,0.0,-2.032,-2.032,-2.032,-2.032,-2.032,-2.032,-2.0014,-1.968,-1.9205,-1.8679,-1.828,-1.7792,-1.7691,-1.765,-1.7792,-1.7812,-1.7826,-1.786,-1.786,-1.786,-1.786,-1.786,-1.786,-1.786,-1.786,-1.7914,-1.8036,-1.8077,-1.8145,-1.8267,-1.8409,-1.8477,-1.8477,-1.8599,-1.8654,-1.8694,-1.8531,-1.8552,-1.864,-1.864,-1.864,-1.864,0.0,0.0,0.0,0.0,0.0,0.0,0.0,0.0,0.0,0.0,-1.9695,-1.963,-1.963,-1.9467,-1.9362,-1.9362,-1.9297,-1.9256,-1.9256,0.0,0.0,0.0,0.0,-1.9256,-1.9256,-1.9256,-1.9256,-1.9256,-1.9256,-1.9256,-1.9256,-1.9256,-1.9256,-1.9256,-1.9256,-1.9256,-1.9256,-1.9256,-1.9256,-1.9256,-1.9256,-1.9256,-1.9256,-1.9256,-1.9256,-1.9256,-1.9256,-1.9305,-1.9362,-1.9362,0.0,0.0,0.0,0.0,0.0,0.0,0.0,0.0,0.0,0.0,0.0,0.0,0.0,0.0,0.0,0.0,0.0,0.0,0.0,0.0,0.0,0.0,0.0,0.0,-2.032,-2.0344,-2.0426,-2.0434,-2.0434,-2.0434,-2.0271,-1.9874,-1.9195,-1.8862,-1.8437,-1.7834,-1.7738,-1.7772,-1.786,-1.786,-1.786,-1.786,-1.786,-1.786,-1.786,-1.786,-1.7901,-1.7948,-1.7948,-1.8036,-1.8199,-1.8247,-1.8321,-1.8409,-1.8565,-1.862,-1.864,-1.8728,-1.8762,-1.8742,0.0,0.0,0.0,0.0,-1.8762,-1.8762,0.0,0.0,0.0,0.0,0.0,0.0,0.0,0.0,0.0,0.0,0.0,-1.9817,-1.9825,-1.9654,-1.954,-1.954,-1.9386,-1.9281,0.0,0.0,0.0,-1.9256,-1.9256,-1.9256,-1.9256,-1.9256,-1.9256,-1.9256,-1.9256,-1.9256,-1.9256,-1.9256,-1.9256,-1.9256,-1.9256,-1.9256,-1.9256,-1.9256,-1.9256,-1.9256,-1.9256,-1.9256,-1.9256,-1.9256,-1.9272,-1.9289,-1.9289,-1.9402,-1.954,-1.954,0.0,0.0,0.0,0.0,0.0,0.0,0.0,0.0,0.0,0.0,0.0,0.0,0.0,0.0,0.0,0.0,0.0,0.0,0.0,0.0,0.0,0.0,0.0,0.0,-2.0336,-2.0409,-2.0572,-2.0523,-2.0539,-2.0629,-2.0668,-2.0408,-1.9473,-1.9285,-1.882,-1.7957,-1.786,-1.786,-1.786,-1.786,0.0,0.0,0.0,-1.786,-1.786,-1.788,-1.7948,-1.8091,-1.8111,-1.8199,-1.8355,-1.8477,-1.8545,-1.8565,-1.8708,-1.8762,-1.8762,-1.8878,-1.8878,-1.8878,-1.8878,-1.8762,-1.8762,-1.8762,-1.8762,-1.8762,0.0,0.0,0.0,0.0,0.0,0.0,0.0,0.0,0.0,-2.0223,-2.0085,-2.0003,-2.0011,-1.9849,-1.9735,-1.9735,-1.9565,-1.9402,0.0,0.0,-1.9256,-1.9256,-1.9256,-1.9256,-1.9256,-1.9256,-1.9256,-1.9256,-1.9256,-1.9256,-1.9256,-1.9256,-1.9256,-1.9256,-1.9256,-1.9256,-1.9256,-1.9256,-1.9256,-1.9256,-1.9256,-1.9256,-1.9256,-1.9256,-1.9345,-1.9467,-1.9467,-1.9581,-1.9735,-1.9735,-1.9857,-2.002,-2.006,-2.0158,0.0,0.0,0.0,0.0,0.0,0.0,0.0,0.0,0.0,0.0,0.0,0.0,0.0,0.0,0.0,0.0,0.0,0.0,0.0,-2.032,-2.0442,-2.0556,-2.0596,-2.042,-2.0431,-2.0824,-2.0208,-1.9559,-1.9379,-1.8629,-1.8053,-1.786,-1.786,-1.786,-1.786,-1.786,-1.786,-1.786,-1.786,-1.786,-1.786,-1.7989,-1.8057,-1.8091,-1.8213,0.0,-1.8498,-1.8511,-1.8599,-1.8728,-1.8742,-1.8762,-1.8878,-1.9342,-1.956,-1.9444,-1.9001,-1.8762,-1.8762,-1.8762,-1.8762,-1.8762,0.0,0.0,0.0,0.0,0.0,0.0,0.0,0.0,0.0,0.0,-2.0239,-2.0182,-2.019,-2.0036,-1.993,-1.993,-1.976,0.0,0.0,-1.9524,-1.9524,-1.9524,-1.9524,-1.9484,-1.9386,-1.9386,-1.9345,-1.9256,-1.9256,-1.9256,-1.9256,-1.9256,-1.9256,-1.9256,-1.9256,-1.9256,-1.9264,-1.9354,-1.9386,-1.9394,-1.9492,-1.9524,-1.9516,-1.9419,-1.95,-1.9654,-1.9654,-1.9768,-1.993,-1.993,-2.0044,-2.019,-2.019,-2.0255,-2.032,0.0,0.0,0.0,0.0,0.0,0.0,0.0,0.0,0.0,0.0,0.0,0.0,0.0,0.0,-2.032,-2.032,0.0,-2.0353,-2.0442,-2.0539,-2.0661,-2.084,-2.0695,-2.0767,-2.1002,-2.0062,-1.9513,-1.9513,-1.8811,-1.8205,-1.7977,-1.786,-1.786,-1.786,-1.786,-1.786,-1.786,-1.786,-1.7901,-1.7968,-1.8057,-1.8165,-1.8321,-1.8389,-1.8498,-1.8654,-1.8654,-1.8694,-1.8762,-1.8762,-1.8762,-1.8762,-1.9103,-1.9226,-1.9219,-1.8885,-1.8762,-1.8762,-1.8762,-1.8762,-1.8762,0.0,0.0,0.0,0.0,0.0,0.0,0.0,0.0,0.0,0.0,-2.032,-2.032,-2.032,-2.0198,-2.0101,0.0,0.0,0.0,0.0,-1.9792,-1.9792,-1.9792,-1.9792,-1.9719,-1.9573,-1.9565,-1.95,-1.9362,-1.9362,-1.9362,-1.9362,-1.9362,-1.9362,-1.9362,-1.9362,-1.9362,-1.937,-1.9508,-1.9565,-1.9581,-1.9727,-1.9808,-1.9825,-1.9678,-1.9711,-1.9841,-1.9841,-1.9963,-2.0117,-2.0117,-2.0206,-2.032,-2.032,-2.032,-2.032,-2.032,-2.032,0.0,0.0,0.0,0.0,0.0,0.0,0.0,0.0,-2.032,-2.032,-2.032,-2.032,-2.032,-2.032,-2.0353,-2.0426,-2.0572,-2.0653,-2.0799,-2.1083,-2.1048,-2.0955,-2.0955,-2.0106,-1.9632,-1.9632,-1.8964,-1.8412,-1.7977,-1.786,-1.786,-1.786,-1.786,-1.786,-1.786,-1.7901,-1.7968,-1.8091,-1.8145,-1.8301,-1.8531,-1.8565,-1.864,-1.8762,-1.8885,-1.9001,-1.9001,-1.9001,-1.8987,-1.9103,-1.8878,-1.8878,-1.9001,-1.8878,-1.8762,-1.8762,-1.8762,-1.8762,-1.8762,0.0,0.0,0.0,0.0,0.0,0.0,0.0,0.0,0.0,0.0,0.0,0.0,0.0,0.0,0.0,0.0,0.0,0.0,-1.98,-1.9792,-1.9792,-1.9792,-1.9792,-1.9776,-1.976,-1.976,-1.9752,-1.9727,-1.9727,-1.9727,-1.9727,-1.9727,-1.9727,-1.9727,-1.9727,-1.9727,-1.9735,-1.9752,-1.976,-1.976,-1.9784,-1.989,-2.0036,-1.9995,-2.0011,-2.0036,-2.0036,-2.015,-2.0296,-2.0296,-2.0304,-2.032,-2.032,-2.032,-2.032,-2.032,-2.032,-2.032,-2.032,-2.032,-2.032,-2.032,-2.032,-2.032,0.0,-2.032,-2.032,-2.032,-2.032,-2.032,-2.032,-2.0458,-2.0572,-2.0596,-2.0864,-2.1083,-2.1124,-2.0818,-2.0584,-2.0584,-1.9955,-1.9632,-1.9632,-1.864,-1.7977,-1.786,-1.786,-1.786,-1.786,-1.786,-1.786,-1.786,-1.8002,-1.8077,-1.8091,-1.8355,-1.8498,-1.8531,-1.8674,-1.8742,-1.8762,-1.9342,-1.9567,-1.9567,-1.9567,-1.9922,-2.0269,-1.9219,-1.9103,-1.956,-1.9001,-1.8762,-1.8762,-1.8762,-1.8762,-1.8762,0.0,0.0,0.0,0.0,0.0,0.0,0.0,0.0,0.0,0.0,0.0,0.0,0.0,0.0,0.0,0.0,0.0,0.0,-2.0101,-2.0101,-2.0101,-2.0101,-2.0101,-2.0052,-1.9955,-1.9955,-1.9898,-1.9792,-1.9792,-1.9792,-1.9792,-1.9792,-1.9792,-1.9792,-1.9792,-1.9792,-1.9792,-1.9906,-1.9955,-1.9963,-2.006,-2.0141,-2.0214,-2.0206,-2.0206,-2.0214,-2.0214,-2.0255,0.0,0.0,-2.032,-2.032,-2.032,-2.032,-2.032,-2.032,-2.032,-2.032,-2.032,-2.032,-2.032,-2.032,-2.032,-2.032,-2.032,-2.032,-2.032,-2.032,-2.032,-2.0353,-2.0458,-2.0539,-2.0661,-2.0872,-2.1027,-2.1165,-2.1254,-2.0787,-2.0623,-2.0945,-2.0183,-1.9405,-1.9081,-1.8964,-1.864,-1.7977,-1.8205,-1.8205,-1.7977,-1.786,-1.7901,-1.7989,-1.8057,-1.8179,-1.8335,-1.8464,-1.8687,-1.923,-1.9307,-1.956,-1.9806,-1.9799,-1.956,-1.9219,-1.9219,-1.9342,-1.956,-1.9001,-1.9001,-1.9103,-1.8878,-1.8762,-1.8762,-1.8762,-1.8762,-1.8762,0.0,0.0,0.0,0.0,0.0,0.0,0.0,0.0,0.0,0.0,0.0,0.0,0.0,0.0,0.0,0.0,0.0,0.0,0.0,-2.032,-2.032,-2.032,-2.032,-2.0263,-2.0141,-2.0133,-2.0068,-1.9938,-1.9938,-1.9938,-1.9938,-1.9938,-1.9938,-1.9938,-1.9938,-1.9938,-1.9946,-2.0076,-2.0133,-2.015,-2.0271,-2.032,-2.032,-2.032,-2.032,-2.032,-2.032,-2.032,0.0,0.0,-2.032,-2.032,-2.032,-2.032,-2.032,-2.032,-2.032,-2.032,-2.032,-2.032,-2.032,-2.032,-2.032,-2.032,-2.032,-2.032,-2.032,-2.032,-2.0361,-2.0434,-2.0572,-2.0677,-2.0832,-2.1083,-2.1165,-2.1238,-2.136,-2.1055,-2.0835,-2.1172,-2.0505,-1.975,-1.8971,-1.9192,-1.8971,-1.8205,-1.8302,-1.8302,-1.7977,-1.786,-1.7935,-1.8091,-1.8124,-1.838,-1.8754,-1.8802,-1.923,-1.9907,-1.9907,-2.0139,-2.0385,-1.9922,-1.956,-1.9342,-1.9342,-1.9342,-1.9226,-1.9103,-1.9103,-1.8987,-1.8878,-1.8762,-1.8762,-1.8762,-1.8762,-1.8762,0.0,0.0,0.0,0.0,0.0,0.0,0.0,0.0,0.0,0.0,0.0,0.0,0.0,0.0,0.0,0.0,0.0,0.0,0.0,-2.032,-2.032,-2.032,-2.032,-2.032,-2.0312,-2.0312,-2.0312,-2.0304,-2.0304,-2.0304,-2.0304,-2.0304,-2.0304,-2.0304,-2.0304,-2.0304,-2.0304,-2.0312,-2.0312,-2.0312,-2.032,-2.032,-2.032,-2.032,-2.032,-2.032,-2.032,0.0,0.0,0.0,-2.032,-2.032,-2.032,-2.032,-2.032,-2.032,-2.032,-2.032,-2.032,-2.032,-2.032,-2.032,-2.032,-2.032,-2.032,-2.032,-2.032,-2.032,-2.0466,-2.0588,-2.0596,-2.088,-2.1116,-2.1124,-2.1278,-2.1384,-2.1384,-2.1384,-2.1172,-2.0623,-2.1055,-2.0835,-1.9743,-1.9081,-1.8757,-1.864,-1.8205,-1.7977,-1.786,-1.786,-1.7935,-1.8091,-1.8233,-1.8723,-1.9441,-1.959,-2.0023,-2.0601,-2.0601,-2.0262,-1.9683,-1.9683,-2.0023,-2.0601,-2.0601,-2.0601,-2.0486,-1.9922,-1.9683,-1.9567,-1.8987,-1.8762,-1.8762,-1.8762,-1.8762,-1.8762,0.0,0.0,0.0,0.0,0.0,0.0,0.0,0.0,0.0,0.0,0.0,0.0,0.0,0.0,0.0,0.0,0.0,0.0,0.0,-2.032,-2.032,-2.032,-2.032,-2.032,-2.032,-2.032,-2.032,-2.032,-2.032,-2.032,-2.032,-2.032,-2.032,-2.032,-2.032,-2.032,-2.032,-2.032,-2.032,-2.032,-2.032,-2.032,-2.032,-2.032,-2.032,-2.032,0.0,0.0,0.0,0.0,0.0,0.0,-2.032,-2.032,-2.032,-2.032,-2.032,-2.032,-2.032,-2.032,-2.032,-2.032,-2.032,-2.032,-2.032,-2.032,-2.032,-2.032,-2.0466,-2.0629,-2.0751,-2.0962,-2.1165,-2.1278,-2.1343,-2.1384,-2.1384,-2.1063,-2.0835,-2.1063,-2.0623,-2.0183,-2.0183,-1.9955,-1.9522,-1.8757,-1.853,-1.8316,-1.7977,-1.7948,-1.8301,-1.8797,-1.8944,-1.9441,-2.0166,-2.0225,-2.0601,-2.1187,-2.1187,-2.0848,-2.0262,-2.0262,-2.0363,-2.0601,-2.0601,-2.0601,-2.0601,-2.0363,-2.0023,-1.9683,-1.9444,-1.9103,-1.8762,-1.8762,-1.8762,-1.8762,0.0,0.0,0.0,0.0,0.0,0.0,0.0,0.0,0.0,0.0,0.0,0.0,0.0,0.0,0.0,0.0,0.0,0.0,0.0,0.0,-2.032,-2.032,-2.032,-2.032,-2.032,-2.032,-2.032,-2.032,-2.032,-2.032,-2.032,-2.032,-2.032,-2.032,-2.032,-2.032,-2.032,-2.032,-2.032,-2.032,-2.032,-2.032,-2.032,-2.032,-2.032,0.0,0.0,0.0,0.0,0.0,0.0,0.0,-2.032,-2.032,-2.032,-2.032,-2.032,-2.032,-2.032,-2.032,-2.032,-2.032,-2.032,-2.032,-2.032,-2.032,-2.0336,-2.0401,-2.0564,-2.0742,-2.0921,-2.11,-2.1254,-2.136,-2.1384,-2.1384,-2.1384,-2.1063,-2.0945,-2.1384,-2.0505,-2.0183,-2.0717,-2.0395,-1.975,-1.8757,-1.853,-1.8336,-1.8045,-1.8266,-1.8741,-1.9291,-1.9626,-2.0208,-2.0963,-2.0963,-2.1187,-2.1887,-2.1664,-2.1302,-2.0963,-2.0724,-2.0601,-2.0601,-2.084,-2.084,-2.0601,-2.0601,-2.0262,-1.9683,-1.9465,-1.9103,-1.8762,-1.8762,-1.8762,-1.8762,0.0,0.0,0.0,0.0,0.0,0.0,0.0,0.0,0.0,0.0,0.0,0.0,0.0,0.0,0.0,0.0,0.0,0.0,0.0,0.0,0.0,0.0,0.0,0.0,0.0,-2.032,-2.032,-2.032,-2.032,-2.032,-2.032,-2.032,-2.032,-2.032,-2.032,-2.032,-2.032,-2.032,-2.032,-2.032,-2.032,-2.032,-2.032,-2.032,0.0,0.0,0.0,0.0,0.0,0.0,-2.032,-2.032,-2.032,-2.032,-2.032,-2.032,-2.032,-2.032,-2.032,-2.032,-2.032,-2.032,-2.032,-2.032,-2.032,-2.032,-2.0377,-2.0556,-2.0734,-2.0913,-2.1092,-2.1278,-2.1384,-2.1384,-2.1384,-2.1384,-2.1384,-2.1384,-2.1384,-2.1384,-2.0835,-2.0733,-2.1266,-2.0278,-1.9309,-1.8757,-1.8302,-1.8045,-1.8189,-1.8762,-1.924,-1.9541,-2.0156,-2.0804,-2.1549,-2.1549,-2.1887,-2.2349,-2.1764,-2.1541,-2.1426,-2.0963,-2.0609,-2.0724,-2.1302,-2.1187,-2.0609,-2.0601,-2.0262,-1.9683,-1.9103,-1.8878,-1.8762,-1.8762,-1.8762,-1.8762,0.0,0.0,0.0,0.0,0.0,0.0,0.0,0.0,0.0,0.0,0.0,0.0,0.0,0.0,0.0,0.0,0.0,0.0,0.0,0.0,0.0,0.0,0.0,0.0,0.0,0.0,0.0,0.0,0.0,-2.032,-2.032,-2.032,-2.032,0.0,-2.032,-2.032,-2.032,-2.032,-2.032,-2.032,0.0,-2.032,-2.032,0.0,0.0,0.0,0.0,0.0,0.0,-2.032,-2.032,-2.032,-2.032,-2.032,-2.032,-2.032,-2.032,-2.032,-2.032,-2.032,-2.032,-2.032,-2.032,-2.032,-2.032,-2.032,-2.0377,-2.0556,-2.0734,-2.0913,-2.1092,-2.1278,-2.1384,-2.1384,-2.1384,-2.1384,-2.1384,-2.1384,-2.1384,-2.1384,-2.0835,-2.0513,-2.0733,-2.0065,-1.9522,-1.9405,-1.9199,-1.9043,-1.8748,-1.9422,-2.0154,-2.0805,-2.1064,-2.151,-2.225,-2.225,-2.1887,-2.1064,-2.1426,-2.1541,-2.1541,-2.131,-2.1549,-2.2003,-2.1664,-2.1426,-2.1187,-2.084,-2.0262,-1.9683,-1.956,-1.9219,-1.8762,-1.8762,-1.8762,-1.8762,0.0,0.0,0.0,0.0,0.0,0.0,0.0,0.0,0.0,0.0,0.0,0.0,0.0,0.0,0.0,0.0,0.0,0.0,0.0,0.0,0.0,0.0,0.0,0.0,0.0,0.0,0.0,0.0,0.0,0.0,0.0,-2.032,-2.032,0.0,-2.032,-2.032,-2.032,0.0,0.0,0.0,0.0,0.0,0.0,0.0,0.0,0.0,0.0,0.0,0.0,-2.032,-2.032,-2.032,-2.032,-2.032,-2.032,-2.032,-2.032,-2.032,-2.032,-2.032,-2.032,-2.032,-2.032,-2.032,-2.032,-2.032,-2.0393,-2.0653,-2.0791,-2.0929,-2.1189,-2.1319,-2.1384,-2.1384,-2.1384,-2.1384,-2.1384,-2.1384,-2.1384,-2.1384,-2.0835,-2.0623,-2.0835,-2.0395,-1.9955,-1.9955,-1.981,-1.9693,-1.9519,-2.0252,-2.0865,-2.1385,-2.1725,-2.2126,-2.2472,-2.2472,-2.2126,-2.1426,-2.1764,-2.1887,-2.1887,-2.1887,-2.2003,-2.2011,-2.1664,-2.1202,-2.0724,-2.0385,-1.9806,-1.9342,-1.9342,-1.9103,-1.8762,-1.8762,-1.8762,-1.8762,0.0,0.0,0.0,0.0,0.0,0.0,0.0,0.0,0.0,0.0,0.0,0.0,0.0,0.0,0.0,0.0,0.0,0.0,0.0,0.0,0.0,0.0,0.0,0.0,0.0,0.0,0.0,0.0,0.0,0.0,0.0,0.0,0.0,0.0,0.0,0.0,0.0,0.0,0.0,0.0,0.0,0.0,0.0,0.0,0.0,0.0,0.0,0.0,0.0,-2.032,-2.032,-2.032,-2.032,-2.032,-2.032,-2.032,-2.032,-2.032,-2.032,-2.032,-2.032,-2.032,-2.032,-2.032,-2.032,-2.032,-2.0426,-2.0783,-2.0856,-2.0962,-2.1319,-2.1384,-2.1384,-2.1384,-2.1384,-2.1384,-2.1384,-2.1384,-2.1384,-2.1384,-2.0945,-2.0827,-2.1384,-2.0945,-2.0623,-2.0623,-2.0344,-2.0192,-2.0215,-2.0963,-2.1484,-2.1649,-2.2242,-2.2464,-2.2349,-2.2464,-2.2464,-2.2349,-2.2464,-2.2472,-2.2472,-2.2472,-2.2126,-2.1541,-2.1426,-2.0724,-1.9683,-1.9567,-1.9226,-1.8762,-1.8762,-1.8762,-1.8762,-1.8762,-1.8762,-1.8762,0.0,0.0,0.0,0.0,0.0,0.0,0.0,0.0,0.0,0.0,-2.032,-2.032,0.0,0.0,0.0,0.0,0.0,0.0,0.0,0.0,0.0,0.0,0.0,0.0,0.0,0.0,0.0,0.0,0.0,0.0,0.0,0.0,0.0,0.0,0.0,0.0,0.0,0.0,0.0,0.0,0.0,0.0,0.0,0.0,0.0,0.0,0.0,0.0,0.0,0.0,-2.032,-2.032,-2.032,-2.032,-2.032,-2.032,-2.032,-2.032,-2.032,-2.032,-2.032,-2.032,-2.032,-2.032,-2.032,-2.032,-2.0426,-2.0783,-2.0856,-2.0962,-2.1319,-2.1384,-2.1384,-2.1384,-2.1384,-2.1384,-2.1384,-2.1384,-2.1384,-2.1384,-2.1274,-2.1266,-2.1384,-2.1274,-2.1266,-2.1266,-2.147,-2.1326,-2.0899,-2.1629,-2.2155,-2.2349,-2.2464,-2.225,-2.1664,-2.225,-2.225,-2.1664,-2.225,-2.2472,-2.2472,-2.2472,-2.2126,-2.1426,-2.0963,-2.0385,-1.9683,-1.9103,-1.8878,-1.8762,-1.8762,-1.8762,-1.8762,-1.8762,-1.8762,-1.8762,0.0,0.0,0.0,0.0,0.0,0.0,0.0,-2.032,-2.032,-2.032,-2.032,-2.032,-2.032,-2.032,-2.032,0.0,0.0,0.0,0.0,0.0,0.0,0.0,0.0,0.0,0.0,0.0,-2.032,-2.032,0.0,-2.032,-2.032,-2.032,-2.032,-2.032,0.0,0.0,0.0,0.0,0.0,0.0,0.0,0.0,0.0,0.0,0.0,0.0,0.0,0.0,0.0,0.0,-2.032,-2.032,-2.032,-2.032,-2.032,-2.032,-2.032,-2.032,-2.032,-2.032,-2.032,-2.032,-2.032,-2.032,-2.032,-2.0393,-2.0539,-2.0799,-2.0929,-2.1075,-2.1343,-2.1384,-2.1384,-2.1384,-2.1384,-2.1384,-2.1384,-2.1384,-2.1384,-2.1384,-2.1384,-2.1384,-2.1384,-2.1384,-2.1425,-2.1514,-2.179,-2.1816,-2.147,-2.2066,-2.2383,-2.2472,-2.2472,-2.2349,-2.2011,-2.2349,-2.2349,-2.2011,-2.2349,-2.2472,-2.2464,-2.2126,-2.1664,-2.0963,-2.0385,-1.9806,-1.9219,-1.8885,-1.8762,-1.8762,-1.8762,-1.8762,-1.8762,-1.8762,-1.8762,-1.8762,0.0,0.0,0.0,0.0,0.0,0.0,0.0,-2.032,-2.032,-2.032,-2.032,-2.032,-2.032,-2.032,-2.032,0.0,0.0,0.0,0.0,0.0,0.0,0.0,0.0,0.0,0.0,0.0,0.0,-2.032,-2.032,0.0,0.0,0.0,0.0,0.0,-2.032,-2.032,-2.032,0.0,0.0,0.0,0.0,-2.032,0.0,0.0,0.0,0.0,0.0,0.0,0.0,0.0,-2.032,-2.032,-2.032,-2.032,-2.032,-2.032,-2.032,-2.032,-2.032,-2.032,-2.032,-2.032,-2.032,-2.032,-2.032,-2.0466,-2.0645,-2.0815,-2.1002,-2.1181,-2.136,-2.1384,-2.1384,-2.1384,-2.1384,-2.1384,-2.1384,-2.1384,-2.1384,-2.1384,-2.1384,-2.1384,-2.1384,-2.1384,-2.1465,-2.1644,-2.1871,-2.2001,-2.2042,-2.2318,-2.2472,-2.2472,-2.2472,-2.2472,-2.2472,-2.2472,-2.2472,-2.2472,-2.2472,-2.2472,-2.2464,-2.1764,-2.1187,-2.0601,-1.9907,-1.9342,-1.8762,-1.8762,-1.8762,-1.8762,-1.8762,-1.8762,-1.8762,-1.8762,-1.8762,-1.8762,0.0,0.0,0.0,0.0,0.0,0.0,0.0,-2.032,-2.032,-2.032,-2.032,-2.032,-2.032,-2.032,-2.032,0.0,0.0,0.0,0.0,0.0,0.0,0.0,0.0,0.0,0.0,0.0,0.0,-2.032,-2.032,0.0,0.0,0.0,0.0,0.0,0.0,-2.032,-2.032,-2.032,0.0,0.0,0.0,0.0,0.0,0.0,0.0,0.0,0.0,-2.032,-2.032,-2.032,-2.032,-2.032,-2.032,-2.032,-2.032,-2.032,-2.032,-2.032,-2.032,-2.032,-2.032,-2.032,-2.032,-2.032,-2.032,-2.0466,-2.0645,-2.0815,-2.1002,-2.1181,-2.136,-2.1384,-2.1384,-2.1384,-2.1384,-2.1384,-2.1384,-2.1384,-2.1384,-2.1384,-2.1384,-2.1384,-2.1384,-2.1384,-2.1465,-2.1644,-2.1977,-2.2237,-2.2407,-2.2448,-2.2472,-2.2472,-2.2472,-2.2472,-2.2472,-2.2472,-2.2472,-2.2472,-2.2472,-2.2472,-2.2464,-2.1764,-2.1187,-2.0601,-1.9907,-1.9342,-1.8762,-1.8762,-1.8762,-1.8762,-1.8762,-1.8762,-1.8762,-1.8762,-1.8762,-1.8762,0.0,0.0,0.0,0.0,0.0,0.0,-2.032,-2.032,-2.032,-2.032,-2.032,-2.032,-2.032,-2.032,-2.032,-2.032,0.0,0.0,0.0,0.0,0.0,0.0,0.0,0.0,0.0,0.0,-2.032,-2.032,-2.032,0.0,0.0,0.0,0.0,0.0,0.0,-2.032,-2.032,-2.032,0.0,0.0,0.0,0.0,0.0,0.0,0.0,0.0,0.0,0.0,-2.032,-2.032,-2.032,-2.032,-2.032,-2.032,-2.032,-2.032,-2.032,-2.032,-2.032,-2.032,-2.032,-2.032,-2.032,-2.032,-2.032,-2.0547,-2.0767,-2.084,-2.1083,-2.1295,-2.136,-2.1384,-2.1384,-2.1384,-2.1384,-2.1384,-2.1384,-2.1384,-2.1384,-2.1384,-2.1384,-2.1384,-2.1384,-2.1384,-2.1514,-2.1806,-2.2147,-2.2383,-2.2472,-2.2472,-2.2472,-2.2472,-2.2472,-2.2472,-2.2472,-2.2472,-2.2472,-2.2472,-2.2472,-2.2341,-2.1887,-2.1302,-2.0609,-2.0023,-1.9458,-1.9001,-1.8762,-1.8762,-1.8762,-1.8762,-1.8762,-1.8762,-1.8762,-1.8762,-1.8762,-1.8762,0.0,0.0,0.0,0.0,0.0,-2.032,-2.032,-2.032,-2.032,-2.032,-2.032,-2.032,-2.032,-2.032,-2.032,-2.032,-2.032,0.0,0.0,0.0,0.0,0.0,0.0,0.0,0.0,0.0,-2.032,-2.032,-2.032,-2.032,0.0,0.0,-2.032,-2.032,0.0,0.0,0.0,0.0,0.0,0.0,0.0,0.0,0.0,0.0,0.0,0.0,0.0,0.0,0.0,0.0,0.0,-2.032,-2.032,0.0,0.0,-2.032,-2.032,-2.032,-2.032,-2.032,-2.032,-2.032,-2.032,-2.032,-2.032,-2.0596,-2.0856,-2.0856,-2.1132,-2.1384,-2.1384,-2.1384,-2.1384,0.0,0.0,-2.1384,-2.1384,-2.1384,-2.1384,-2.1384,-2.1384,-2.1384,-2.1384,-2.149,-2.166,-2.1912,-2.2277,-2.2472,-2.2472,-2.2472,-2.2472,-2.2472,-2.2472,-2.2472,-2.2472,-2.2472,-2.2472,-2.2472,-2.2472,-2.2126,-2.1426,-2.0848,-2.0262,-1.9683,-1.9103,-1.8762,-1.8762,-1.8762,-1.8762,-1.8762,-1.8762,-1.8762,-1.8762,-1.8762,-1.8762,-1.8762,0.0,0.0,0.0,0.0,0.0,0.0,-2.032,-2.032,-2.032,-2.032,-2.032,-2.032,-2.032,-2.032,-2.032,-2.032,-2.032,0.0,0.0,0.0,0.0,0.0,0.0,0.0,0.0,0.0,-2.032,-2.032,-2.032,-2.032,-2.032,-2.032,-2.032,-2.032,0.0,0.0,0.0,0.0,0.0,0.0,0.0,0.0,0.0,0.0,0.0,0.0,0.0,0.0,0.0,0.0,0.0,0.0,0.0,-2.032,0.0,0.0,-2.032,-2.032,-2.032,-2.032,-2.032,-2.032,-2.032,-2.032,-2.032,-2.0596,-2.0856,-2.0856,-2.1132,-2.1384,-2.1384,-2.1384,-2.1384,-2.1384,0.0,0.0,-2.1384,-2.1384,-2.1384,-2.1384,-2.1384,-2.1384,-2.1384,-2.1725,-2.1936,-2.1936,-2.2277,-2.2472,-2.2472,-2.2472,-2.2472,-2.2472,-2.2472,-2.2472,-2.2472,-2.2472,-2.2472,-2.2472,-2.2472,-2.2126,-2.1426,-2.0848,-2.0262,-1.9683,-1.9103,-1.8762,-1.8762,-1.8762,-1.8762,-1.8762,-1.8762,-1.8762,-1.8762,-1.8762,-1.8762,-1.8762,0.0,0.0,0.0,0.0,0.0,0.0,0.0,-2.032,-2.032,-2.032,-2.032,-2.032,-2.032,-2.032,-2.032,-2.032,-2.032,0.0,0.0,0.0,0.0,0.0,0.0,0.0,0.0,-2.032,-2.032,-2.032,-2.032,-2.032,-2.032,-2.032,-2.032,-2.032,-2.032,-2.032,0.0,0.0,0.0,0.0,0.0,0.0,-2.032,0.0,0.0,0.0,0.0,0.0,0.0,0.0,0.0,0.0,0.0,0.0,0.0,0.0,0.0,-2.032,-2.032,-2.032,-2.032,-2.032,-2.032,-2.032,-2.032,-2.0596,-2.0856,-2.0856,-2.1132,-2.1384,-2.1384,-2.1384,-2.1384,-2.1384,-2.1384,0.0,-2.1384,-2.1384,-2.1384,-2.1384,-2.1384,-2.1384,-2.1384,-2.1725,-2.1936,-2.1936,-2.2277,-2.2472,-2.2472,-2.2472,-2.2472,-2.2472,-2.2472,-2.2472,-2.2472,-2.2472,-2.2472,-2.2472,-2.2472,-2.1887,-2.0848,-2.0724,-2.0023,-1.9103,-1.8878,-1.8762,-1.8762,-1.8762,-1.8762,-1.8762,-1.8762,-1.8762,-1.8762,-1.8762,-1.8762,-1.8762,0.0,0.0,0.0,0.0,0.0,0.0,0.0,-2.032,-2.032,-2.032,-2.032,-2.032,-2.032,-2.032,-2.032,-2.032,-2.032,0.0,0.0,0.0,0.0,0.0,0.0,0.0,-2.032,-2.032,-2.032,-2.032,-2.032,-2.032,-2.032,-2.032,-2.032,-2.032,-2.032,-2.032,0.0,0.0,0.0,0.0,0.0,0.0,-2.032,0.0,0.0,0.0,0.0,0.0,0.0,0.0,0.0,0.0,0.0,0.0,0.0,0.0,-2.032,0.0,-2.032,-2.032,-2.032,-2.032,-2.032,-2.032,-2.032,-2.0596,-2.0856,-2.0856,-2.1132,-2.1384,-2.1384,-2.1384,-2.1384,-2.1384,-2.1384,-2.1384,-2.1384,-2.1384,-2.1384,-2.1384,-2.1384,-2.1384,-2.1384,-2.1725,-2.1936,-2.1936,-2.2277,-2.2472,-2.2472,-2.2472,-2.2472,-2.2472,-2.2472,-2.2472,-2.2472,-2.2472,-2.2472,-2.2472,-2.2472,-2.1887,-2.0601,-2.0601,-1.9907,-1.8762,-1.8762,-1.8762,0.0,-1.8762,-1.8762,-1.8762,-1.8762,-1.8762,-1.8762,-1.8762,-1.8762,-1.8762,0.0,0.0,0.0,0.0,0.0,0.0,0.0,-2.0328,-2.032,-2.032,-2.032,-2.032,-2.032,-2.032,-2.032,-2.032,0.0,0.0,0.0,0.0,0.0,0.0,0.0,0.0,-2.032,-2.032,-2.032,-2.032,-2.032,-2.032,-2.032,-2.032,-2.032,-2.032,-2.032,-2.032,0.0,0.0,0.0,0.0,-2.032,-2.032,0.0,0.0,0.0,0.0,0.0,0.0,0.0,0.0,0.0,0.0,0.0,0.0,0.0,0.0,0.0,0.0,0.0,-2.032,-2.032,-2.032,-2.032,-2.032,-2.032,-2.0596,0.0,-2.0856,-2.1132,-2.1384,-2.1384,-2.1384,-2.1384,-2.1384,-2.1384,-2.1384,-2.1384,-2.1384,-2.1384,-2.1384,-2.1384,-2.1384,-2.1384,-2.1725,-2.1936,-2.1936,-2.2277,-2.2472,-2.2472,-2.2472,-2.2472,-2.2472,-2.2472,-2.2472,-2.2472,-2.2472,-2.2472,-2.2472,-2.2464,-2.1764,-2.0601,-2.0601,-1.9922,-1.8762,-1.8762,-1.8762,-1.8762,-1.8762,-1.8762,-1.8762,-1.8762,-1.8762,-1.8762,-1.8762,-1.8762,-1.8762,0.0,0.0,0.0,0.0,0.0,0.0,0.0,0.0,0.0,0.0,-2.032,-2.032,-2.032,-2.032,-2.032,0.0,0.0,0.0,0.0,0.0,0.0,0.0,0.0,0.0,-2.032,-2.032,-2.032,-2.032,-2.032,-2.032,-2.032,-2.032,-2.032,-2.032,-2.032,-2.032,0.0,0.0,0.0,0.0,-2.032,-2.032,0.0,0.0,0.0,0.0,-2.032,-2.032,0.0,0.0,0.0,0.0,0.0,0.0,0.0,0.0,-2.032,0.0,0.0,0.0,-2.032,-2.032,-2.032,-2.032,0.0,-2.0596,-2.0856,-2.0856,-2.1132,-2.1384,-2.1384,-2.1384,-2.1384,-2.1384,-2.1384,-2.1384,-2.1384,-2.1384,-2.1384,-2.1384,-2.1384,-2.1384,-2.1384,-2.1725,-2.1936,-2.1936,-2.2277,-2.2472,-2.2472,-2.2472,-2.2472,-2.2472,-2.2472,-2.2472,-2.2472,-2.2472,-2.2472,-2.2464,-2.2003,-2.131,-2.0601,-2.0146,-1.9444,-1.8762,-1.8762,-1.8762,-1.8762,-1.8762,-1.8762,-1.8762,-1.8762,-1.8762,-1.8762,-1.8762,-1.8762,-1.8762,0.0,0.0,0.0,0.0,0.0,0.0,0.0,0.0,0.0,0.0,0.0,0.0,0.0,0.0,0.0,0.0,0.0,0.0,0.0,0.0,0.0,0.0,0.0,-2.032,-2.032,-2.032,-2.032,-2.032,-2.032,-2.032,-2.032,-2.032,-2.032,-2.032,-2.032,-2.032,-2.032,-2.032,-2.032,-2.032,-2.032,0.0,0.0,0.0,0.0,0.0,-2.032,-2.032,0.0,-2.032,-2.032,-2.032,0.0,0.0,0.0,0.0,-2.032,-2.032,-2.032,-2.032,-2.032,-2.032,-2.032,-2.032,-2.032,-2.0596,-2.0856,-2.0856,-2.1132,-2.1384,-2.1384,-2.1384,-2.1384,-2.1384,-2.1384,-2.1384,-2.1384,-2.1384,-2.1384,-2.1384,-2.1384,-2.1384,-2.1384,-2.1725,-2.1936,-2.1936,-2.2277,-2.2472,-2.2472,-2.2472,-2.2472,-2.2472,-2.2472,-2.2472,-2.2472,-2.2472,-2.2472,-2.2464,-2.1764,-2.1187,-2.0601,-2.0023,-1.9342,-1.8762,-1.8762,-1.8762,-1.8762,-1.8762,-1.8762,-1.8762,-1.8762,-1.8762,-1.8762,-1.8762,-1.8762,-1.8762,0.0,0.0,0.0,0.0,0.0,0.0,0.0,0.0,0.0,0.0,0.0,0.0,0.0,0.0,0.0,0.0,0.0,0.0,0.0,0.0,0.0,0.0,-2.032,-2.032,-2.032,-2.032,-2.032,-2.032,-2.032,-2.032,-2.032,-2.032,-2.032,-2.032,-2.032,-2.032,-2.032,-2.032,-2.032,-2.032,-2.032,0.0,0.0,0.0,0.0,0.0,0.0,0.0,0.0,-2.032,-2.032,-2.032,-2.032,0.0,0.0,0.0,0.0,0.0,-2.032,-2.032,-2.032,-2.032,-2.032,-2.0328,-2.0353,-2.0612,-2.0864,-2.0889,-2.1157,-2.1384,-2.1384,-2.1384,-2.1384,-2.1384,-2.1384,-2.1384,-2.1384,-2.1384,-2.1384,-2.1384,-2.1384,-2.1384,-2.1384,-2.1725,-2.1936,-2.1936,-2.2277,-2.2472,-2.2472,-2.2472,-2.2472,-2.2472,-2.2472,-2.2472,-2.2472,-2.2472,-2.2472,-2.2464,-2.1764,-2.1064,-2.0601,-1.9922,-1.9226,-1.8762,-1.8762,-1.8762,-1.8762,-1.8762,-1.8762,-1.8762,-1.8762,-1.8762,-1.8762,-1.8762,-1.8762,-1.8762,0.0,0.0,0.0,0.0,0.0,0.0,0.0,0.0,0.0,0.0,0.0,0.0,0.0,0.0,0.0,0.0,0.0,0.0,0.0,0.0,0.0,-2.032,-2.032,-2.032,-2.032,-2.032,-2.032,-2.032,-2.032,-2.032,-2.032,-2.032,-2.032,-2.032,-2.032,-2.032,-2.032,-2.032,-2.032,-2.032,-2.032,0.0,0.0,0.0,0.0,0.0,0.0,0.0,0.0,-2.032,-2.032,-2.032,-2.032,0.0,0.0,0.0,0.0,0.0,-2.032,-2.032,-2.032,-2.032,-2.032,-2.0361,-2.0515,-2.071,-2.0897,-2.1051,-2.1246,-2.1384,-2.1384,-2.1384,-2.1384,-2.1384,-2.1384,-2.1384,-2.1384,-2.1384,-2.1384,-2.1384,-2.1384,-2.1384,-2.1384,-2.1725,-2.1936,-2.1936,-2.2277,-2.2472,-2.2472,-2.2472,-2.2472,-2.2472,-2.2472,-2.2472,-2.2472,-2.2472,-2.2472,-2.2464,-2.1302,-2.0724,-2.0601,-1.9458,-1.8878,-1.8762,-1.8762,-1.8762,-1.8762,-1.8762,-1.8762,-1.8762,-1.8762,-1.8762,-1.8762,-1.8762,-1.8762,-1.8762,0.0,0.0,0.0,0.0,0.0,0.0,0.0,0.0,0.0,0.0,0.0,0.0,0.0,0.0,0.0,0.0,0.0,0.0,0.0,0.0,-2.032,-2.032,-2.032,-2.032,-2.032,-2.032,-2.032,-2.032,-2.032,-2.032,-2.032,-2.032,-2.032,-2.032,-2.032,-2.032,-2.032,-2.032,-2.032,-2.032,0.0,0.0,0.0,0.0,0.0,0.0,0.0,0.0,0.0,0.0,-2.032,-2.032,-2.032,0.0,0.0,0.0,0.0,0.0,-2.032,-2.032,-2.032,-2.032,-2.032,-2.0369,-2.0556,-2.0726,-2.0905,-2.1092,-2.1254,-2.1384,-2.1384,-2.1384,-2.1384,-2.1384,-2.1384,-2.1384,-2.1384,-2.1384,-2.1384,-2.1384,-2.1384,-2.1384,-2.1384,-2.1725,-2.1936,-2.1936,-2.2277,-2.2472,-2.2472,-2.2472,-2.2472,-2.2472,-2.2472,-2.2472,-2.2472,-2.2472,-2.2472,-2.2464,-2.1187,-2.0601,-2.0601,-1.9342,-1.8762,-1.8762,-1.8762,-1.8762,-1.8762,-1.8762,-1.8762,-1.8762,-1.8762,-1.8762,-1.8762,-1.8762,-1.8762,-1.8762,0.0,0.0,0.0,0.0,0.0,0.0,0.0,0.0,0.0,0.0,0.0,0.0,0.0,0.0,0.0,0.0,0.0,0.0,0.0,-2.032,-2.032,-2.032,-2.032,-2.032,-2.032,-2.032,-2.032,-2.032,-2.032,-2.032,-2.032,-2.032,-2.032,-2.032,-2.032,-2.032,-2.032,-2.032,-2.032,-2.032,0.0,0.0,0.0,0.0,0.0,0.0,0.0,0.0,0.0,0.0,0.0,0.0,0.0,0.0,0.0,0.0,-2.032,-2.032,-2.032,-2.032,-2.032,-2.032,-2.032,-2.0377,-2.0604,-2.0759,-2.0921,-2.114,-2.1295,-2.1384,-2.1384,-2.1384,-2.1384,-2.1384,-2.1384,-2.1384,-2.1384,-2.1384,-2.1384,-2.1384,-2.1384,-2.1384,-2.1384,-2.1725,-2.1936,-2.1936,-2.2277,-2.2472,-2.2472,-2.2472,-2.2472,-2.2472,-2.2472,-2.2472,-2.2472,-2.2472,-2.2464,-2.2225,-2.1179,-2.0486,-2.0385,-1.9342,-1.8762,-1.8762,-1.8762,-1.8762,-1.8762,-1.8762,-1.8762,-1.8762,-1.8762,-1.8762,-1.8762,-1.8762,-1.8762,-1.8762,0.0,0.0,0.0,0.0,0.0,0.0,0.0,0.0,0.0,0.0,0.0,0.0,0.0,0.0,0.0,0.0,0.0,0.0,0.0,-2.032,-2.032,-2.032,-2.032,-2.032,-2.032,-2.032,-2.032,-2.032,-2.032,-2.032,-2.032,-2.032,-2.032,-2.032,-2.032,-2.032,-2.032,-2.032,-2.032,-2.032,-2.032,0.0,0.0,0.0,0.0,0.0,0.0,0.0,0.0,0.0,0.0,0.0,0.0,0.0,0.0,0.0,-2.032,-2.032,-2.032,-2.032,-2.032,-2.032,-2.032,-2.0409,-2.0759,-2.0848,-2.0954,-2.1295,-2.1384,-2.1384,-2.1384,-2.1384,-2.1384,-2.1384,-2.1384,-2.1384,-2.1384,-2.1384,-2.1384,-2.1384,-2.1384,-2.1384,-2.1384,-2.1725,-2.1936,-2.1936,-2.2277,-2.2472,-2.2472,-2.2472,-2.2472,-2.2472,-2.2472,-2.2472,-2.2472,-2.2472,-2.2242,-2.1549,-2.0963,-2.0262,-1.9683,-1.9103,-1.8762,-1.8762,-1.8762,-1.8762,-1.8762,-1.8762,-1.8762,-1.8762,-1.8762,-1.8762,-1.8762,-1.8762,-1.8762,-1.8762,0.0,0.0,0.0,0.0,0.0,0.0,0.0,0.0,0.0,0.0,0.0,0.0,0.0,0.0,0.0,0.0,0.0,0.0,0.0,-2.032,-2.032,-2.032,-2.032,-2.032,-2.032,-2.032,-2.032,-2.032,-2.032,-2.032,-2.032,-2.032,-2.032,-2.032,-2.032,-2.032,-2.032,-2.032,-2.032,-2.032,-2.032,-2.032,0.0,0.0,0.0,0.0,0.0,0.0,0.0,0.0,0.0,0.0,0.0,0.0,0.0,0.0,-2.032,-2.032,-2.032,-2.032,-2.032,-2.032,-2.032,-2.0418,-2.0775,-2.0856,-2.0954,-2.1319,-2.1384,-2.1384,-2.1384,-2.1384,-2.1384,-2.1384,-2.1384,-2.1384,-2.1384,-2.1384,-2.1384,-2.1384,-2.1384,-2.1384,-2.1384,-2.1725,-2.1936,-2.1936,-2.2277,-2.2472,-2.2472,-2.2472,-2.2472,-2.2472,-2.2472,-2.2472,-2.2472,-2.2472,-2.2003,-2.0963,-2.0724,-2.0262,-1.9683,-1.9103,-1.8762,-1.8762,-1.8762,-1.8762,-1.8762,-1.8762,-1.8762,-1.8762,-1.8762,-1.8762,-1.8762,-1.8762,-1.8762,-1.8762,0.0,0.0,0.0,0.0,0.0,0.0,0.0,0.0,0.0,0.0,0.0,0.0,0.0,0.0,0.0,0.0,0.0,0.0,-2.032,-2.032,-2.032,-2.032,-2.032,-2.032,-2.032,-2.032,-2.032,-2.032,-2.032,-2.032,-2.032,-2.032,-2.032,-2.032,-2.032,-2.032,-2.032,-2.032,-2.032,-2.032,-2.032,-2.032,0.0,0.0,0.0,0.0,0.0,0.0,0.0,0.0,0.0,0.0,0.0,0.0,0.0,0.0,-2.032,-2.032,-2.032,-2.032,-2.032,-2.032,-2.0361,-2.0483,-2.0783,-2.0856,-2.0954,-2.1319,-2.1384,-2.1384,-2.1384,-2.1384,-2.1384,-2.1384,-2.1384,-2.1384,-2.1384,-2.1384,-2.1384,-2.1384,-2.1384,-2.1384,-2.1384,-2.1725,-2.1936,-2.1936,-2.2277,-2.2472,-2.2472,-2.2472,-2.2472,-2.2472,-2.2472,-2.2472,-2.2472,-2.2341,-2.1649,-2.0601,-2.0363,-2.0023,-1.9342,-1.9001,-1.8762,-1.8762,-1.8762,-1.8762,-1.8762,-1.8762,-1.8762,-1.8762,-1.8762,-1.8762,-1.8762,-1.8762,-1.8762,-1.8762,0.0,0.0,0.0,0.0,0.0,0.0,0.0,0.0,0.0,0.0,0.0,0.0,0.0,0.0,0.0,0.0,0.0,0.0,-2.032,-2.032,-2.032,-2.032,-2.032,-2.032,-2.032,-2.032,-2.032,-2.032,-2.032,-2.032,-2.032,-2.032,-2.032,-2.032,-2.032,-2.032,-2.032,-2.032,-2.032,-2.032,-2.032,-2.032,-2.032,0.0,0.0,0.0,0.0,0.0,0.0,0.0,0.0,0.0,0.0,0.0,0.0,0.0,-2.032,-2.032,-2.032,-2.032,-2.032,-2.032,-2.0458,-2.0645,-2.0815,-2.0856,-2.0962,-2.1319,-2.1384,-2.1384,-2.1384,-2.1384,-2.1384,-2.1384,-2.1384,-2.1384,-2.1384,-2.1384,-2.1384,-2.1384,-2.1384,-2.1384,-2.1384,-2.1725,-2.1936,-2.1936,-2.2253,-2.2472,-2.2472,-2.2472,-2.2472,-2.2472,-2.2472,-2.2472,-2.2472,-2.1887,-2.1187,-2.0601,-2.0023,-1.9342,-1.8762,-1.8762,-1.8762,-1.8762,-1.8762,-1.8762,-1.8762,-1.8762,-1.8762,-1.8762,-1.8762,-1.8762,-1.8762,-1.8762,-1.8762,-1.8762,0.0,0.0,0.0,0.0,0.0,0.0,0.0,0.0,0.0,0.0,0.0,0.0,0.0,0.0,0.0,0.0,0.0,0.0,-2.0328,-2.032,-2.032,-2.032,-2.032,-2.032,-2.032,-2.032,-2.032,-2.032,-2.032,-2.032,-2.032,-2.032,-2.032,-2.032,-2.032,-2.032,-2.032,-2.032,-2.032,-2.032,-2.032,-2.032,-2.032,0.0,0.0,0.0,0.0,0.0,0.0,0.0,0.0,0.0,0.0,0.0,0.0,-2.032,-2.032,-2.032,-2.032,-2.032,-2.032,-2.032,-2.0458,-2.0645,-2.0815,-2.0954,-2.1108,-2.1343,-2.1384,-2.1384,-2.1384,-2.1384,-2.1384,-2.1384,-2.1384,-2.1384,-2.1384,-2.1384,-2.1384,-2.1384,-2.1384,-2.1384,-2.1384,-2.1595,-2.179,-2.1936,-2.2147,-2.2342,-2.2464,-2.2472,-2.2472,-2.2472,-2.2472,-2.2472,-2.2472,-2.1887,-2.1187,-2.0601,-2.0023,-1.9342,-1.8762,-1.8762,-1.8762,-1.8762,-1.8762,-1.8762,-1.8762,-1.8762,-1.8762,-1.8762,-1.8762,-1.8762,-1.8762,-1.8762,-1.8762,-1.8762,0.0,0.0,0.0,0.0,0.0,0.0,0.0,0.0,0.0,0.0,-2.1295,-2.123,0.0,0.0,0.0,0.0,0.0,0.0,0.0,-2.0466,-2.0434,-2.0434,-2.0361,-2.032,-2.032,-2.032,-2.032,-2.032,-2.032,-2.032,-2.032,-2.032,-2.032,-2.032,-2.032,-2.032,-2.032,-2.032,-2.032,-2.032,-2.032,-2.032,-2.032,0.0,0.0,0.0,0.0,0.0,0.0,0.0,0.0,0.0,0.0,0.0,0.0,-2.032,-2.032,-2.032,-2.032,-2.032,-2.032,-2.032,-2.0515,-2.0767,-2.101,-2.1148,-2.1254,-2.136,-2.1384,-2.1384,-2.1384,-2.1384,-2.1384,-2.1384,-2.1384,-2.1384,-2.1384,-2.1384,-2.1384,-2.1384,-2.1384,-2.1384,-2.1384,-2.1555,-2.1741,-2.1912,-2.2082,-2.2277,-2.2464,-2.2472,-2.2472,-2.2472,-2.2472,-2.2472,-2.2472,-2.1549,-2.0963,-2.0601,-1.9799,-1.9103,-1.8762,-1.8762,-1.8762,-1.8762,-1.8762,-1.8762,-1.8762,-1.8762,-1.8762,-1.8762,-1.8762,-1.8762,-1.8762,-1.8762,-1.8762,-1.8762,0.0,0.0,0.0,0.0,0.0,0.0,0.0,0.0,0.0,0.0,-2.1384,-2.1384,0.0,0.0,0.0,0.0,0.0,0.0,0.0,0.0,-2.0621,-2.0621,-2.0442,-2.0336,-2.032,-2.032,-2.032,-2.032,-2.032,-2.032,-2.032,-2.032,-2.032,-2.032,-2.032,-2.032,-2.032,-2.032,-2.032,-2.032,-2.032,-2.032,-2.032,-2.032,0.0,0.0,0.0,0.0,0.0,0.0,0.0,0.0,0.0,-2.032,-2.032,-2.032,-2.032,-2.032,-2.032,-2.032,-2.032,-2.0344,-2.0612,-2.097,-2.1303,-2.1384,-2.1384,-2.1384,-2.1384,-2.1384,-2.1384,-2.1384,-2.1384,-2.1384,-2.1384,-2.1384,-2.1384,-2.1384,-2.1384,-2.1384,-2.1384,-2.1384,-2.1384,-2.153,-2.1725,-2.1912,-2.2082,-2.2253,-2.2448,-2.2472,-2.2472,-2.2472,-2.2472,-2.2464,-2.2464,-2.1187,-2.0601,-2.0486,-1.9342,-1.8762,-1.8762,-1.8762,-1.8762,-1.8762,-1.8762,-1.8762,-1.8762,-1.8762,-1.8762,-1.8762,-1.8762,-1.8762,-1.8762,-1.8762,-1.8762,-1.8762,0.0,0.0,0.0,0.0,0.0,0.0,0.0,0.0,0.0,0.0,0.0,0.0,0.0,0.0,0.0,0.0,0.0,0.0,0.0,0.0,-2.0799,-2.0799,-2.0629,-2.0466,-2.032,-2.032,-2.032,-2.032,-2.032,-2.032,-2.032,-2.032,-2.032,-2.032,-2.032,-2.032,-2.032,-2.032,-2.032,-2.032,-2.032,-2.032,-2.032,-2.032,-2.032,0.0,0.0,0.0,0.0,0.0,0.0,0.0,-2.032,-2.032,-2.032,-2.032,-2.032,-2.032,-2.032,-2.032,-2.0353,-2.0499,-2.0807,-2.1124,-2.1343,-2.1384,-2.1384,-2.1384,-2.1384,-2.1384,-2.1384,-2.1384,-2.1384,-2.1384,-2.1384,-2.1384,-2.1384,-2.1384,-2.1384,-2.1384,-2.1384,-2.1384,-2.1384,-2.1425,-2.1579,-2.1912,-2.1977,-2.2123,-2.2448,-2.2472,-2.2472,-2.2472,-2.2472,-2.225,-2.1664,-2.0963,-2.0385,-1.9922,-1.9103,-1.8762,-1.8762,-1.8762,-1.8762,-1.8762,-1.8762,-1.8762,-1.8762,-1.8762,-1.8762,-1.8762,-1.8762,-1.8762,-1.8762,-1.8762,-1.8762,-1.8762,0.0,0.0,0.0,0.0,0.0,0.0,0.0,0.0,0.0,0.0,0.0,0.0,0.0,0.0,0.0,0.0,0.0,0.0,0.0,0.0,-2.0945,-2.0856,-2.0767,-2.0637,-2.0458,-2.045,-2.0409,-2.032,-2.032,-2.032,-2.032,-2.032,-2.032,-2.032,-2.032,-2.032,-2.032,-2.032,-2.032,-2.032,-2.032,-2.032,-2.032,-2.032,-2.032,-2.032,-2.032,0.0,0.0,0.0,0.0,0.0,0.0,0.0,-2.032,-2.032,-2.032,-2.032,-2.032,-2.032,-2.0385,-2.0653,-2.0929,-2.1173,-2.1343,-2.1384,-2.1384,-2.1384,-2.1384,-2.1384,-2.1384,-2.1384,-2.1384,-2.1384,-2.1384,-2.1384,-2.1384,-2.1384,-2.1384,-2.1384,-2.1384,-2.1384,-2.1384,-2.1384,-2.153,-2.1912,-2.1936,-2.2082,-2.2448,-2.2472,-2.2472,-2.2472,-2.2472,-2.2126,-2.1541,-2.0848,-2.0262,-1.9683,-1.9103,-1.8762,-1.8762,-1.8762,-1.8762,-1.8762,-1.8762,-1.8762,-1.8762,-1.8762,-1.8762,-1.8762,-1.8762,-1.8762,-1.8762,-1.8762,-1.8762,-1.8762,0.0,0.0,0.0,0.0,0.0,0.0,0.0,0.0,0.0,0.0,0.0,0.0,0.0,0.0,0.0,0.0,0.0,0.0,0.0,0.0,0.0,-2.0905,-2.0897,-2.0815,-2.0645,-2.0612,-2.0523,-2.0369,-2.0336,-2.032,-2.032,-2.032,-2.032,-2.032,-2.032,-2.032,-2.032,-2.032,-2.032,-2.032,-2.032,-2.032,-2.032,-2.032,-2.032,-2.032,-2.032,-2.032,-2.032,-2.032,0.0,0.0,0.0,0.0,-2.032,-2.032,-2.032,-2.032,-2.032,-2.0361,-2.0491,-2.0815,-2.1035,-2.1205,-2.1343,-2.1384,-2.1384,-2.1384,-2.1384,-2.1384,-2.1384,-2.1384,-2.1384,-2.1384,-2.1384,-2.1384,-2.1384,-2.1384,-2.1384,-2.1384,-2.1384,-2.1384,-2.1384,-2.1384,-2.153,-2.1912,-2.1936,-2.2082,-2.2448,-2.2472,-2.2472,-2.2472,-2.2349,-2.2003,-2.131,-2.0724,-2.0146,-1.956,-1.8987,-1.8762,-1.8762,-1.8762,-1.8762,-1.8762,-1.8762,-1.8762,-1.8762,-1.8762,-1.8762,-1.8762,-1.8762,-1.8762,-1.8762,-1.8762,-1.8762,-1.8762,0.0,0.0,0.0,0.0,0.0,0.0,0.0,0.0,0.0,0.0,-2.1384,-2.1384,0.0,0.0,0.0,0.0,0.0,0.0,0.0,0.0,0.0,-2.11,-2.1092,-2.1002,-2.0824,-2.0677,-2.0588,-2.0564,-2.0401,-2.032,-2.032,-2.032,-2.032,-2.032,-2.032,-2.032,-2.032,-2.032,-2.032,-2.032,-2.032,-2.032,-2.032,-2.032,-2.032,-2.032,-2.032,-2.032,-2.032,-2.032,-2.032,0.0,0.0,0.0,-2.032,-2.032,-2.032,-2.032,-2.032,-2.0547,-2.0832,-2.1035,-2.1222,-2.136,-2.1384,-2.1384,-2.1384,-2.1384,-2.1384,-2.1384,-2.1384,-2.1384,-2.1384,-2.1384,-2.1384,-2.1384,-2.1384,-2.1384,-2.1384,-2.1384,-2.1384,-2.1384,-2.1384,-2.1384,-2.153,-2.1912,-2.1936,-2.2082,-2.2448,-2.2472,-2.2472,-2.2472,-2.1887,-2.131,-2.0724,-2.0146,-1.956,-1.8885,-1.8878,-1.8762,-1.8762,-1.8762,-1.8762,-1.8762,-1.8762,-1.8762,-1.8762,-1.8762,-1.8762,-1.8762,-1.8762,-1.8762,-1.8762,-1.8762,-1.8762,-1.8762,0.0,0.0,0.0,0.0,0.0,0.0,0.0,0.0,0.0,0.0,0.0,-2.1384,0.0,0.0,0.0,0.0,0.0,0.0,0.0,0.0,0.0,0.0,-2.1278,-2.1189,-2.101,-2.0929,-2.084,-2.0742,-2.0564,-2.0474,-2.0474,-2.0369,-2.032,-2.032,-2.032,-2.032,-2.032,-2.032,-2.032,-2.032,-2.032,-2.032,-2.032,-2.032,-2.032,-2.032,-2.032,-2.032,-2.032,-2.032,-2.032,-2.032,-2.032,0.0,0.0,0.0,-2.032,-2.0344,-2.045,-2.0661,-2.0897,-2.1083,-2.1254,-2.1384,-2.1384,-2.1384,-2.1384,-2.1384,-2.1384,-2.1384,-2.1384,-2.1384,-2.1384,-2.1384,-2.1384,-2.1384,-2.1384,-2.1384,-2.1384,-2.1384,-2.1384,-2.1384,-2.1384,-2.1384,-2.149,-2.1766,-2.1871,-2.2042,-2.2302,-2.2407,-2.2472,-2.2472,-2.1887,-2.1187,-2.0601,-2.0023,-1.9342,-1.8762,-1.8762,-1.8762,-1.8762,-1.8762,-1.8762,-1.8762,-1.8762,-1.8762,-1.8762,-1.8762,-1.8762,-1.8762,-1.8762,-1.8762,-1.8762,-1.8762,-1.8762,-1.8762,0.0,0.0,0.0,0.0,0.0,0.0,0.0,0.0,0.0,0.0,0.0,0.0,0.0,0.0,0.0,0.0,0.0,0.0,0.0,0.0,0.0,0.0,0.0,-2.1319,-2.1197,-2.1148,-2.1059,-2.0921,-2.0751,-2.0661,-2.0661,-2.0523,-2.0458,-2.045,-2.0361,-2.032,-2.032,-2.0369,-2.0393,-2.0393,-2.0434,-2.0458,-2.0458,-2.0458,-2.0458,-2.0458,-2.0458,-2.0458,-2.045,-2.0401,-2.0393,-2.0385,-2.0336,-2.032,0.0,0.0,0.0,-2.0361,-2.0547,-2.0726,-2.0897,-2.1083,-2.1254,-2.1384,-2.1384,-2.1384,-2.1384,-2.1384,-2.1384,-2.1384,-2.1384,-2.1384,-2.1384,-2.1384,-2.1384,-2.1384,-2.1384,-2.1384,-2.1384,-2.1384,-2.1384,-2.1384,-2.1384,-2.1384,-2.1465,-2.1644,-2.1711,-2.1783,-2.2188,-2.226,-2.2349,-2.2464,-2.1649,-2.1064,-2.0601,-1.9806,-1.9226,-1.8762,-1.8762,-1.8762,-1.8762,-1.8762,-1.8762,-1.8762,-1.8762,-1.8762,-1.8762,-1.8762,-1.8762,-1.8762,-1.8762,-1.8762,-1.8762,-1.8762,-1.8762,-1.8762,0.0,0.0,0.0,0.0,0.0,0.0,0.0,0.0,0.0,0.0,0.0,0.0,-2.1384,-2.1384,-2.1384,-2.1384,-2.1384,0.0,0.0,0.0,0.0,0.0,0.0,0.0,-2.136,-2.1213,-2.1124,-2.1116,-2.0929,-2.084,-2.084,-2.0832,-2.0824,-2.0807,-2.0474,-2.032,-2.0328,-2.0507,-2.058,-2.0596,-2.0759,-2.0824,-2.0824,-2.0824,-2.0824,-2.0824,-2.0824,-2.0824,-2.0799,-2.0637,-2.058,-2.0556,-2.0377,-2.032,-2.032,0.0,0.0,0.0,-2.0547,-2.0726,-2.0897,-2.1083,-2.1254,-2.1384,-2.1384,-2.1384,-2.1384,-2.1384,-2.1384,-2.1384,-2.1384,-2.1384,-2.1384,-2.1384,-2.1384,-2.1384,-2.1384,-2.1384,-2.1384,-2.1384,-2.1384,-2.1384,-2.1384,-2.1384,-2.1465,-2.1644,-2.127,-2.1428,-2.2188,-2.1785,-2.1887,-2.2464,-2.1302,-2.0609,-2.0601,-1.9458,-1.8878,-1.8762,-1.8762,-1.8762,-1.8762,-1.8762,-1.8762,-1.8762,-1.8762,-1.8762,-1.8762,-1.8762,-1.8762,-1.8762,-1.8762,-1.8762,-1.8762,-1.8762,-1.8762,-1.8762,0.0,0.0,0.0,0.0,0.0,0.0,0.0,0.0,0.0,0.0,0.0,0.0,0.0,-2.1384,-2.1384,-2.1384,-2.1384,0.0,0.0,0.0,0.0,0.0,0.0,0.0,-2.1384,-2.1319,-2.1295,-2.1295,-2.1116,-2.1027,-2.1027,-2.0905,-2.0856,-2.0848,-2.0718,-2.0661,-2.0669,-2.0734,-2.0759,-2.0767,-2.0832,-2.0856,-2.0856,-2.0856,-2.0856,-2.0856,-2.0856,-2.0856,-2.0848,-2.0783,-2.0759,-2.0751,-2.0686,-2.0588,-2.0474,-2.0353,-2.032,-2.0385,-2.0677,-2.0807,-2.0921,-2.1222,-2.1343,-2.1384,-2.1384,-2.1384,-2.1384,-2.1384,-2.1384,-2.1384,-2.1384,-2.1384,-2.1384,-2.1384,-2.1384,-2.1384,-2.1384,-2.1384,-2.1384,-2.1384,-2.1384,-2.1384,-2.1384,-2.1384,-2.1408,-2.1473,-2.1199,-2.1276,-2.2017,-2.1622,-2.1664,-2.1887,-2.1064,-2.0262,-1.9458,-1.9001,-1.8762,-1.8762,-1.8762,-1.8762,-1.8762,-1.8762,-1.8762,-1.8762,-1.8762,-1.8762,-1.8762,-1.8762,-1.8762,-1.8762,-1.8762,-1.8762,-1.8762,-1.8762,-1.8762,-1.8762,0.0,0.0,0.0,0.0,0.0,0.0,0.0,0.0,-2.1384,-2.1384,0.0,0.0,0.0,0.0,-2.1384,-2.1384,-2.1384,-2.1384,-2.1384,-2.1384,0.0,0.0,0.0,0.0,-2.1384,-2.1254,-2.1254,-2.1384,-2.1148,-2.11,-2.1213,-2.1092,-2.1035,-2.1035,-2.1035,-2.097,-2.0856,-2.0921,-2.0945,-2.0954,-2.101,-2.1035,-2.1035,-2.1035,-2.1035,-2.1035,-2.1035,-2.1035,-2.1027,-2.0962,-2.0945,-2.0937,-2.0872,-2.0775,-2.0661,-2.0531,-2.0499,-2.0547,-2.0791,-2.0897,-2.1002,-2.1238,-2.1343,-2.1384,-2.1384,-2.1384,-2.1384,-2.1384,-2.1384,-2.1384,-2.1384,-2.1384,-2.1384,-2.1384,-2.1384,-2.1384,-2.1384,-2.1384,-2.1384,-2.1384,-2.1384,-2.1384,-2.1384,-2.1384,-2.1274,-2.1063,-2.0817,-2.1011,-2.1582,-2.1362,-2.1187,-2.1187,-2.0601,-1.9806,-1.8762,-1.8762,-1.8762,-1.8762,-1.8762,-1.8762,-1.8762,-1.8762,-1.8762,-1.8762,-1.8762,-1.8762,-1.8762,-1.8762,-1.8762,-1.8762,-1.8762,-1.8728,-1.8694,-1.8742,-1.8728,-1.8694,0.0,0.0,0.0,0.0,0.0,0.0,0.0,0.0,-2.1384,-2.1384,0.0,0.0,0.0,0.0,0.0,-2.1384,-2.1384,-2.1384,-2.1384,-2.1384,0.0,0.0,0.0,0.0,-2.1384,-2.1043,-2.1035,-2.1384,-2.1035,-2.1043,-2.1384,-2.1384,-2.1384,-2.1384,-2.1384,-2.1189,-2.088,-2.1059,-2.1132,-2.1148,-2.1319,-2.1384,-2.1384,-2.1384,-2.1384,-2.1384,-2.1384,-2.1384,-2.136,-2.1189,-2.1132,-2.11,-2.0921,-2.0864,-2.0864,-2.0856,-2.0856,-2.0856,0.0,0.0,0.0,-2.1132,-2.1254,-2.1384,-2.1384,-2.1384,-2.1384,-2.1384,-2.1384,-2.1384,-2.1384,-2.1384,-2.1384,-2.1384,-2.1384,-2.1384,-2.1384,-2.1384,-2.1384,-2.1384,-2.1384,-2.1384,-2.1384,-2.1384,-2.1172,-2.0513,-2.0274,-2.0335,-2.0899,-2.0766,-2.0601,-2.0601,-2.0023,-1.9342,-1.8762,-1.8762,-1.8762,-1.8762,-1.8762,-1.8762,-1.8762,-1.8762,-1.8762,-1.8762,-1.8762,-1.8762,-1.8762,-1.8762,-1.8762,-1.8762,-1.8762,-1.8674,-1.8552,-1.8708,-1.8674,-1.8565,0.0,0.0,0.0,0.0,0.0,-2.1384,-2.1384,-2.1384,-2.1384,0.0,0.0,0.0,-2.1384,-2.1384,-2.1384,-2.1384,-2.1384,-2.1384,-2.1384,-2.1384,-2.1384,-2.1384,-2.1384,-2.1384,-2.1384,-2.1278,-2.1278,-2.1384,-2.1278,-2.1278,-2.1384,-2.1384,-2.1384,-2.1384,-2.1384,-2.1319,-2.1238,-2.1295,-2.1319,-2.1319,-2.136,-2.1384,-2.1384,-2.1384,-2.1384,-2.1384,-2.1384,-2.1384,-2.1384,-2.1319,-2.1319,-2.1278,-2.1108,-2.1051,-2.1027,-2.0897,-2.0856,-2.088,-2.1019,0.0,0.0,0.0,0.0,0.0,-2.1384,-2.1384,-2.1384,-2.1384,-2.1384,-2.1384,-2.1384,-2.1384,-2.1384,-2.1384,-2.1384,-2.1384,-2.1384,-2.1384,-2.1384,-2.1384,-2.1384,-2.1384,-2.1384,-2.1384,-2.1172,-2.0513,-2.0274,-2.0117,-2.0335,-2.0093,-1.9907,-1.9907,-1.9342,-1.9001,-1.8762,-1.8762,-1.8762,-1.8762,-1.8762,-1.8762,-1.8762,-1.8762,-1.8762,-1.8762,-1.8762,-1.8762,-1.8762,-1.8762,-1.8762,-1.8762,-1.8762,-1.8742,-1.8708,-1.8742,-1.8728,-1.8708,0.0,0.0,0.0,0.0,0.0,-2.1384,-2.1384,-2.1384,-2.1384,0.0,0.0,0.0,-2.1384,-2.1384,-2.1384,-2.1384,-2.1384,-2.1384,-2.1384,-2.1384,-2.1384,-2.1384,-2.1384,-2.1384,-2.1384,-2.1238,-2.1238,-2.1384,-2.1238,-2.1238,-2.1384,-2.1384,-2.1384,-2.1384,-2.1384,-2.1384,-2.1384,-2.1384,-2.1384,-2.1384,-2.1384,-2.1384,-2.1384,-2.1384,-2.1384,-2.1384,-2.1384,-2.1384,-2.1384,-2.1384,-2.1384,-2.136,-2.1254,-2.1238,-2.1213,-2.1108,-2.1075,-2.11,-2.1205,-2.1238,-2.1254,-2.136,0.0,0.0,-2.1384,-2.1384,-2.1384,-2.1384,-2.1384,-2.1384,-2.1384,-2.1384,-2.1384,-2.1384,-2.1384,-2.1384,-2.1384,-2.1384,-2.1384,-2.1384,-2.1384,-2.1384,-2.1384,-2.1384,-2.1063,-2.0183,-2.0154,-2.0056,-1.9976,-1.9806,-1.9683,-1.9683,-1.9103,-1.8762,-1.8762,-1.8762,-1.8762,-1.8762,-1.8762,-1.8762,-1.8762,-1.8762,-1.8762,-1.8762,-1.8762,-1.8762,-1.8762,-1.8762,-1.8762,-1.8762,-1.8694,-1.8674,-1.8674,-1.8674,-1.8674,-1.8674,0.0,0.0,0.0,-2.1449,-2.1449,-2.1449,-2.1449,-2.1449,-2.1449,0.0,-2.1449,-2.1449,-2.1449,-2.1449,-2.1449,-2.1449,-2.1425,-2.1408,-2.1408,-2.1408,-2.1384,-2.1384,-2.1384,-2.1384,-2.1384,-2.1075,-2.1067,-2.1384,-2.1067,-2.1075,-2.1384,-2.1384,-2.1384,-2.1384,-2.1384,-2.1384,-2.1384,-2.1384,-2.1384,-2.1384,-2.1384,-2.1384,-2.1384,-2.1384,-2.1384,-2.1384,-2.1384,-2.1384,-2.1384,-2.1384,-2.1384,-2.1384,-2.1384,-2.1384,-2.1384,-2.1384,-2.1384,-2.1384,-2.1384,-2.1384,-2.1384,-2.1384,-2.1384,0.0,-2.1384,-2.1384,-2.1384,-2.1384,-2.1384,-2.1384,-2.1384,-2.1384,-2.1384,-2.1384,-2.1384,-2.1384,-2.1384,-2.1384,-2.1384,-2.1384,-2.1384,-2.1384,-2.1384,-2.1384,-2.0945,-1.975,-1.9938,-1.9917,-1.9661,-1.9567,-1.9567,-1.9567,-1.9103,-1.8762,-1.8762,-1.8762,-1.8762,-1.8762,-1.8762,-1.8762,-1.8762,-1.8762,-1.8762,-1.8762,-1.8762,-1.8762,-1.8762,-1.8762,-1.8762,-1.8742,-1.8599,-1.8552,-1.8552,-1.8552,-1.8552,-1.8586,0.0,-2.1831,-2.1831,-2.1831,-2.1831,-2.1831,-2.1831,-2.1831,-2.1831,-2.1831,-2.1831,-2.1831,-2.1831,-2.1831,-2.1831,-2.1831,-2.1701,-2.1595,-2.1595,-2.1465,-2.1384,-2.1384,-2.1384,-2.1384,-2.1384,-2.1319,-2.1319,-2.1384,-2.1319,-2.1319,-2.1384,-2.1384,-2.1384,-2.1384,-2.1384,-2.1384,-2.1384,-2.1384,-2.1384,-2.1384,-2.1384,-2.1384,-2.1384,-2.1384,-2.1384,-2.1384,-2.1384,-2.1384,-2.1384,-2.1384,-2.1384,-2.1384,-2.1384,-2.1384,-2.1384,-2.1384,-2.1384,-2.1384,-2.1384,-2.1384,-2.1384,-2.1384,-2.1384,0.0,-2.1384,-2.1384,-2.1384,-2.1384,-2.1384,-2.1384,-2.1384,-2.1384,-2.1384,-2.1384,-2.1384,-2.1384,-2.1384,-2.1384,-2.1384,-2.1384,-2.1384,-2.1384,-2.1384,-2.1384,-2.1063,-2.0395,-1.9714,-1.9249,-1.898,-1.9001,-1.9001,-1.9001,-1.8878,-1.8762,-1.8762,-1.8762,-1.8762,-1.8762,-1.8762,-1.8762,-1.8762,-1.8762,-1.8762,-1.8762,-1.8762,-1.8762,-1.8762,-1.8762,-1.8762,-1.8762,-1.8728,-1.8708,-1.8708,-1.8708,-1.8708,-1.8728,-2.1953,-2.1936,-2.1936,-2.1936,-2.1936,-2.1936,-2.1936,-2.1936,-2.1936,-2.1936,-2.1936,-2.1936,-2.1936,-2.1936,-2.1936,-2.1936,-2.1847,-2.179,-2.179,-2.1701,-2.162,-2.153,-2.1514,-2.1473,-2.1384,-2.1384,-2.1384,-2.1384,-2.1384,-2.1384,-2.1384,-2.1384,-2.1384,-2.1384,-2.1384,-2.1384,-2.1384,-2.1384,-2.1384,-2.1384,-2.1384,-2.1384,-2.1384,-2.1384,-2.1384,-2.1384,-2.1384,-2.1384,-2.1384,-2.1384,-2.1384,-2.1384,-2.1384,-2.1384,-2.1384,-2.1384,-2.1384,-2.1384,-2.1384,-2.1384,-2.1384,-2.1384,-2.1384,0.0,0.0,-2.1384,-2.1384,-2.1384,-2.1384,-2.1384,-2.1384,-2.1384,-2.1384,-2.1384,-2.1384,-2.1384,-2.1384,-2.1384,-2.1384,-2.1384,-2.1384,-2.1384,-2.1384,-2.1384,-2.1119,-2.0309,-1.9578,-1.9127,-1.8865,-1.8762,-1.8762,-1.8762,-1.8762,-1.8762,-1.8762,-1.8762,-1.8762,-1.8762,-1.8762,-1.8762,-1.8762,-1.8762,-1.8762,-1.8762,-1.8762,-1.8762,-1.8762,-1.8762,-1.8762,-1.8762,-1.8674,-1.8654,-1.8654,-1.8654,-1.8694,-1.8762,-2.2066,-2.2042,-2.2042,-2.2042,0.0,0.0,-2.2042,-2.2042,-2.2042,-2.2042,-2.2042,-2.2042,-2.2042,-2.2042,-2.2042,-2.2042,-2.2001,-2.1977,-2.1977,-2.1953,-2.1871,-2.1725,-2.1725,-2.162,-2.1449,-2.1449,-2.1425,-2.1384,-2.1384,-2.1384,-2.1384,-2.1384,-2.1384,-2.1384,-2.1384,-2.1384,-2.1384,-2.1384,-2.1384,-2.1384,-2.1425,-2.1449,-2.1425,-2.1408,-2.1408,-2.1425,-2.1408,-2.1384,-2.1384,-2.1384,-2.1384,-2.1384,-2.1384,-2.1384,-2.1384,-2.1384,-2.1384,-2.1384,-2.1384,-2.1384,-2.1384,-2.1384,-2.1384,-2.1384,0.0,0.0,0.0,-2.1384,-2.1384,-2.1384,-2.1384,-2.1384,-2.136,-2.1295,-2.1343,-2.136,-2.1295,-2.1343,-2.1384,-2.1384,-2.1384,-2.1384,-2.1384,-2.1384,-2.1088,-2.0215,-1.9665,-1.9249,-1.8865,-1.8762,-1.8762,-1.8762,-1.8762,-1.8762,-1.8762,-1.8762,-1.8762,-1.8762,-1.8762,-1.8762,-1.8762,-1.8762,-1.8762,-1.8762,-1.8762,-1.8762,-1.8762,-1.8762,-1.8742,-1.8708,-1.862,-1.8586,-1.8586,-1.8586,-1.8654,-1.8762,-2.2407,-2.2407,-2.2407,-2.2407,0.0,0.0,0.0,0.0,-2.2407,-2.2407,-2.2407,-2.2407,-2.2407,-2.2407,-2.2407,-2.2407,-2.2253,-2.2172,-2.2172,-2.2017,-2.1936,-2.1912,-2.1912,-2.1806,-2.1636,-2.1636,-2.1555,-2.1384,-2.1384,-2.1384,-2.1384,-2.1384,-2.1384,-2.1384,-2.1384,-2.1384,-2.1384,-2.1384,-2.1384,-2.1408,-2.1555,-2.1636,-2.162,-2.1449,-2.149,-2.162,-2.1449,-2.1384,-2.1384,-2.1384,-2.1384,-2.1384,-2.1384,-2.1384,-2.1384,-2.1384,-2.1384,-2.1384,-2.1384,-2.1384,-2.1384,-2.1384,-2.1384,-2.1384,-2.1384,0.0,-2.1384,-2.1384,0.0,-2.1384,-2.1384,0.0,0.0,-2.097,-2.1181,-2.1278,-2.0962,-2.1181,-2.1384,-2.1384,-2.1384,-2.1384,-2.1384,-2.1384,-2.1088,-2.0215,-2.0004,-1.9704,-1.8865,-1.8762,-1.8762,-1.8762,-1.8762,-1.8762,-1.8762,-1.8762,-1.8762,-1.8762,-1.8762,-1.8762,-1.8762,-1.8762,-1.8762,-1.8762,-1.8762,-1.8762,-1.8762,-1.8762,-1.8674,-1.8565,-1.8694,-1.8742,-1.8742,-1.8742,-1.8742,-1.8762,-2.2472,-2.2472,-2.2472,-2.2472,0.0,0.0,0.0,0.0,-2.2472,-2.2472,-2.2472,-2.2472,-2.2472,-2.2472,-2.2472,-2.2472,-2.2407,-2.2359,-2.2359,-2.2277,-2.2188,-2.2082,-2.2082,-2.2001,-2.1831,-2.1831,-2.1725,-2.1555,-2.1555,-2.149,0.0,0.0,-2.1384,-2.1384,-2.149,-2.1555,-2.1555,-2.166,-2.1701,-2.1701,-2.179,-2.1871,-2.1961,-2.1766,-2.1741,-2.1806,-2.1725,-2.1701,-2.1701,-2.1701,-2.1701,-2.1684,-2.1579,-2.1555,-2.153,-2.1408,-2.1384,-2.1384,-2.1384,-2.1384,-2.1384,-2.1384,-2.1384,-2.1384,-2.1384,-2.1384,-2.1384,-2.1384,0.0,0.0,0.0,0.0,0.0,0.0,-2.1278,-2.1343,-2.1181,-2.1295,-2.1384,-2.1384,-2.1384,-2.1384,-2.1384,-2.1384,-2.1207,-2.0643,-2.035,-1.9917,-1.9321,-1.9001,-1.8762,-1.8762,-1.8762,-1.8762,-1.8762,-1.8762,-1.8762,-1.8762,-1.8762,-1.8762,-1.8762,-1.8762,-1.8762,-1.8762,-1.8762,-1.8762,-1.8762,-1.8762,-1.8728,-1.8674,-1.8742,-1.8708,-1.864,-1.8728,-1.8762,-1.8762,-2.2472,-2.2472,-2.2472,-2.2472,-2.2472,0.0,0.0,-2.2472,-2.2472,-2.2472,-2.2472,-2.2472,-2.2472,-2.2472,-2.2472,-2.2472,-2.2472,-2.2472,-2.2472,-2.2472,-2.2407,-2.2277,-2.2277,-2.2188,-2.2001,-2.2001,-2.1912,-2.1741,-2.1741,-2.166,-2.153,-2.153,-2.153,-2.153,-2.1684,-2.1741,-2.1741,-2.1871,-2.1936,-2.1936,-2.1977,-2.2107,-2.2253,-2.2066,-2.1977,-2.1936,-2.1936,-2.1936,-2.1936,-2.1936,-2.1936,-2.1912,-2.179,-2.1741,-2.1701,-2.1514,-2.1465,-2.1449,-2.1408,-2.1384,-2.1384,-2.1384,-2.1384,-2.1384,-2.1384,-2.1384,-2.1384,-2.1384,-2.1384,0.0,0.0,0.0,-2.1343,-2.1254,0.0,-2.1343,-2.1254,-2.1319,-2.1384,-2.1384,-2.1384,-2.1384,-2.1384,-2.1384,-2.1317,-2.0996,-2.0448,-2.0038,-1.9669,-1.9103,-1.8762,-1.8762,-1.8762,-1.8762,-1.8762,-1.8762,-1.8762,-1.8762,-1.8762,-1.8762,-1.8762,-1.8762,-1.8762,-1.8762,-1.8762,-1.8762,-1.8762,-1.8762,-1.8762,-1.8762,-1.8762,-1.8694,-1.8599,-1.8728,-1.8762,-1.8762,-2.2472,-2.2472,-2.2472,-2.2472,-2.2472,-2.2472,-2.2472,-2.2472,-2.2472,-2.2472,-2.2472,-2.2472,-2.2472,-2.2472,-2.2472,-2.2472,-2.2472,-2.2472,-2.2472,-2.2472,-2.2472,-2.2464,-2.2464,-2.2383,-2.2188,-2.2188,-2.2107,-2.1936,-2.1936,-2.1912,-2.1912,-2.1912,-2.1912,-2.1912,-2.1912,-2.1936,-2.1936,-2.1936,-2.1936,-2.1953,-2.2107,-2.2302,-2.2448,-2.2253,-2.2082,-2.1936,-2.1936,-2.1936,-2.1936,-2.1936,-2.1936,-2.1936,-2.1936,-2.1936,-2.1896,-2.1701,-2.166,-2.162,-2.1425,-2.1384,-2.1384,-2.1384,-2.1384,-2.1384,-2.1384,-2.1384,-2.1384,-2.1384,-2.1384,-2.1384,-2.1384,-2.1384,-2.1278,-2.0929,-2.1157,0.0,0.0,-2.1165,-2.1384,-2.1384,-2.1384,-2.1384,-2.1384,-2.1384,-2.1317,-2.0996,-2.0448,-2.0038,-1.9669,-1.9103,-1.8762,-1.8762,-1.8762,-1.8762,-1.8762,-1.8762,-1.8762,-1.8762,-1.8762,-1.8762,-1.8762,-1.8762,-1.8762,-1.8762,-1.8762,-1.8762,-1.8762,-1.8762,-1.8762,-1.8762,-1.8762,-1.8762,-1.8762,-1.8762,-1.8762,-1.8762,-2.2472,-2.2472,-2.2472,-2.2472,-2.2472,-2.2472,-2.2472,-2.2472,-2.2472,-2.2472,-2.2472,-2.2472,-2.2472,-2.2472,-2.2472,-2.2472,-2.2472,-2.2472,-2.2472,-2.2472,-2.2472,-2.2472,-2.2472,-2.2448,-2.2383,-2.2383,-2.2277,-2.2107,-2.2107,-2.2042,-2.1936,0.0,0.0,-2.1936,-2.2066,-2.2107,-2.2107,-2.2237,-2.2294,-2.2294,-2.2359,-2.2407,-2.2464,-2.2407,-2.2342,-2.2294,-2.2294,-2.2294,-2.2294,-2.2294,-2.2294,-2.2277,-2.2147,-2.2107,-2.2066,-2.1896,-2.1847,-2.1831,-2.1766,-2.166,-2.1579,-2.1579,-2.1473,-2.1384,-2.1384,-2.1384,-2.1384,-2.1384,-2.1384,-2.1384,-2.1384,-2.1384,-2.1343,-2.1222,-2.1303,-2.1343,0.0,-2.1303,-2.1384,-2.1384,-2.1384,-2.1384,-2.1384,-2.1063,-2.0859,-2.0996,-2.0117,-1.9583,-1.9669,-1.9103,-1.8762,-1.8762,-1.8762,-1.8762,-1.8762,-1.8762,-1.8762,-1.8762,-1.8762,-1.8762,-1.8762,-1.8762,-1.8762,-1.8762,-1.8762,-1.8762,-1.8762,-1.8762,-1.8762,-1.8762,-1.8762,-1.8762,-1.8762,-1.8762,-1.8762,-1.8762,-2.2472,-2.2472,-2.2472,-2.2472,-2.2472,-2.2472,-2.2472,-2.2472,-2.2472,-2.2472,-2.2472,-2.2472,-2.2472,-2.2472,-2.2472,-2.2472,-2.2472,-2.2472,-2.2472,-2.2472,-2.2472,-2.2472,-2.2472,-2.2472,-2.2472,-2.2472,-2.2407,-2.2302,-2.2302,-2.2237,-2.2123,0.0,0.0,0.0,-2.2237,-2.2302,-2.2302,-2.2424,-2.2472,-2.2472,-2.2472,-2.2472,-2.2472,-2.2472,-2.2472,-2.2472,-2.2472,-2.2472,-2.2472,-2.2472,-2.2472,-2.2448,-2.2318,-2.2302,-2.2253,-2.2082,-2.2017,-2.2017,-2.1953,-2.1847,-2.1766,-2.1766,-2.166,-2.1571,-2.1571,-2.153,-2.149,-2.149,-2.1425,-2.1384,-2.1384,-2.1384,-2.1384,-2.1384,-2.1384,-2.1384,0.0,-2.1384,-2.1384,-2.1384,-2.1384,-2.1274,-2.1063,-2.0945,-2.0764,-2.0643,-1.9997,-1.9583,-1.9669,-1.9103,-1.8762,-1.8762,-1.8762,-1.8762,-1.8762,-1.8762,-1.8762,-1.8762,-1.8762,-1.8762,-1.8762,-1.8762,-1.8762,-1.8762,-1.8762,-1.8762,-1.8762,-1.8762,-1.8762,-1.8762,-1.8762,-1.8762,-1.8762,-1.8762,-1.8762,-1.8762,-2.2472,-2.2472,-2.2472,-2.2472,-2.2472,-2.2472,-2.2472,-2.2472,-2.2472,-2.2472,-2.2472,-2.2472,-2.2472,-2.2472,-2.2472,-2.2472,-2.2472,-2.2472,-2.2472,-2.2472,-2.2472,-2.2472,-2.2472,-2.2472,-2.2472,-2.2472,-2.2472,-2.2472,-2.2472,-2.2472,-2.2472,-2.2472,0.0,0.0,-2.2472,-2.2472,-2.2472,-2.2472,-2.2472,-2.2472,-2.2472,-2.2472,-2.2472,-2.2472,-2.2472,-2.2472,-2.2472,-2.2472,-2.2472,-2.2472,-2.2472,-2.2472,-2.2472,-2.2472,-2.2424,-2.2253,-2.2212,-2.2172,-2.2001,-2.1953,-2.1953,-2.1953,-2.1936,-2.1936,-2.1936,-2.1806,-2.1684,-2.1684,-2.153,-2.1408,-2.1408,-2.1384,-2.1384,-2.1384,-2.1384,-2.1384,-2.1384,-2.1384,-2.1384,-2.1384,-2.1384,-2.1172,-2.0623,-2.1055,-2.0993,-2.0215,-2.0117,-1.9917,-1.9661,-1.9103,-1.8878,-1.8762,-1.8762,-1.8762,-1.8762,-1.8762,-1.8762,-1.8762,-1.8762,-1.8762,-1.8762,-1.8762,-1.8762,-1.8762,-1.8762,-1.8762,-1.8762,-1.8762,-1.8762,-1.8762,-1.8762,-1.8762,-1.8762,-1.8762,-1.8762,-1.8762,-2.2472,-2.2472,-2.2472,-2.2472,-2.2472,-2.2472,-2.2472,-2.2472,-2.2472,-2.2472,-2.2472,-2.2472,-2.2472,-2.2472,-2.2472,-2.2472,-2.2472,-2.2472,-2.2472,-2.2472,-2.2472,-2.2472,-2.2472,-2.2472,-2.2472,-2.2472,-2.2472,-2.2472,-2.2472,-2.2472,-2.2472,0.0,0.0,0.0,-2.2472,-2.2472,-2.2472,-2.2472,-2.2472,-2.2472,-2.2472,-2.2472,-2.2472,-2.2472,-2.2472,-2.2472,-2.2472,-2.2472,-2.2472,-2.2472,-2.2472,-2.2472,-2.2472,-2.2472,-2.2464,-2.2407,-2.2407,-2.2383,-2.2342,-2.2237,-2.2123,-2.2123,-2.2017,-2.1936,-2.1936,-2.1896,-2.1871,-2.1871,-2.1725,-2.1595,-2.1595,-2.1473,-2.1384,-2.1384,-2.1384,-2.1384,-2.1384,-2.1384,-2.1384,-2.1384,-2.0945,-2.0835,-2.1172,-2.063,-2.0236,-2.0102,-1.9767,-1.9476,-1.9103,-1.9342,-1.9226,-1.8762,-1.8762,-1.8762,-1.8762,-1.8762,-1.8762,-1.8762,-1.8762,-1.8762,-1.8762,-1.8762,-1.8762,-1.8762,-1.8762,-1.8762,-1.8762,-1.8762,-1.8762,-1.8762,-1.8762,-1.8762,-1.8762,-1.8762,-1.8762,-1.8762,-2.2472,-2.2472,-2.2472,-2.2472,-2.2472,-2.2472,-2.2472,-2.2472,-2.2472,-2.2472,-2.2472,-2.2472,-2.2472,-2.2472,-2.2472,-2.2472,-2.2472,-2.2472,-2.2472,-2.2472,-2.2472,-2.2472,-2.2472,-2.2472,-2.2472,-2.2472,-2.2472,-2.2472,-2.2472,-2.2472,-2.2472,0.0,0.0,0.0,0.0,-2.2472,-2.2472,-2.2472,-2.2472,-2.2472,-2.2472,-2.2472,0.0,-2.2472,-2.2472,-2.2472,-2.2472,-2.2472,-2.2472,-2.2472,-2.2472,-2.2472,-2.2472,-2.2472,-2.2472,-2.2472,-2.2472,-2.2472,-2.2472,-2.2383,-2.2318,-2.2318,-2.2237,-2.2172,-2.2172,-2.2107,-2.2042,-2.2042,-2.1912,-2.179,-2.179,-2.1636,-2.1473,-2.1408,-2.1384,-2.1384,-2.1384,-2.1384,-2.1384,-2.1384,-2.1063,-2.1063,-2.1384,-2.0439,-1.9945,-2.0102,-1.9917,-1.9634,-1.9219,-1.956,-1.9458,-1.8762,-1.8762,-1.8762,-1.8762,-1.8762,-1.8762,-1.8762,-1.8762,-1.8762,-1.8762,-1.8762,-1.8762,-1.8762,-1.8762,-1.8762,-1.8762,-1.8762,-1.8762,-1.8762,-1.8762,-1.8762,-1.8762,-1.8762,-1.8762,-1.8762,-2.2472,-2.2472,-2.2472,-2.2472,-2.2472,-2.2472,-2.2472,-2.2472,-2.2472,-2.2472,-2.2472,-2.2472,-2.2472,-2.2472,-2.2472,-2.2472,-2.2472,-2.2472,-2.2472,-2.2472,-2.2472,-2.2472,-2.2472,-2.2472,-2.2472,-2.2472,-2.2472,-2.2472,-2.2472,-2.2472,-2.2472,0.0,0.0,0.0,0.0,-2.2472,-2.2472,-2.2472,-2.2472,-2.2472,-2.2472,-2.2472,-2.2472,-2.2472,-2.2472,-2.2472,-2.2472,-2.2472,-2.2472,-2.2472,-2.2472,-2.2472,-2.2472,-2.2472,-2.2472,-2.2472,-2.2472,-2.2472,-2.2472,-2.2472,-2.2472,-2.2472,-2.2472,-2.2472,-2.2472,-2.2342,-2.2237,-2.2237,-2.2082,-2.1977,-2.1977,-2.1831,-2.1636,-2.1371,-2.1441,-2.1425,-2.1237,-2.1331,-2.1315,-2.1315,-2.1197,0.0,-2.1425,-2.0558,-2.0042,-2.0215,-2.0387,-2.0208,-1.9784,-1.9799,-1.956,-1.8762,-1.8762,-1.8762,-1.8762,-1.8762,-1.8762,-1.8762,-1.8762,-1.8762,-1.8762,-1.8762,-1.8762,-1.8762,-1.8762,-1.8762,-1.8762,-1.8762,-1.8762,-1.8762,-1.8762,-1.8762,-1.8762,-1.8762,-1.8762,-1.8762,-2.2472,-2.2472,-2.2472,-2.2472,-2.2472,-2.2472,-2.2472,-2.2472,-2.2472,-2.2472,-2.2472,-2.2472,-2.2472,-2.2472,-2.2472,-2.2472,-2.2472,-2.2472,-2.2472,-2.2472,-2.2472,-2.2472,-2.2472,-2.2472,-2.2472,-2.2472,-2.2472,-2.2472,-2.2472,-2.2472,-2.2472,0.0,0.0,0.0,0.0,0.0,-2.2472,-2.2472,-2.2472,-2.2472,-2.2472,-2.2472,-2.2472,-2.2472,-2.2472,-2.2472,-2.2472,-2.2472,-2.2472,-2.2472,-2.2472,-2.2472,-2.2472,-2.2472,-2.2472,-2.2472,-2.2472,-2.2472,-2.2472,-2.2472,-2.2472,-2.2472,-2.2472,-2.2472,-2.2472,-2.2448,-2.2424,-2.2424,-2.2277,-2.2147,-2.2147,-2.2001,-2.1639,-2.115,-2.1375,-2.1335,-2.0469,-2.0578,-2.0827,-2.0827,-2.039,-2.0501,-2.15,-2.0961,-2.0624,-2.0786,-2.1061,-2.0667,-1.9784,-2.0146,-1.9907,0.0,-1.8762,-1.8762,-1.8762,-1.8762,-1.8762,-1.8762,-1.8762,-1.8762,-1.8762,-1.8762,-1.8762,-1.8762,-1.8762,-1.8762,-1.8762,-1.8762,-1.8762,-1.8762,-1.8762,-1.8762,-1.8762,-1.8762,-1.8762,-1.8762,-2.2472,-2.2472,-2.2472,-2.2472,-2.2472,-2.2472,-2.2472,-2.2472,-2.2472,-2.2472,-2.2472,-2.2472,-2.2472,-2.2472,-2.2472,-2.2472,-2.2472,-2.2472,-2.2472,-2.2472,-2.2472,-2.2472,-2.2472,-2.2472,-2.2472,-2.2472,-2.2472,-2.2472,-2.2472,-2.2472,-2.2472,-2.2472,0.0,0.0,0.0,-2.2472,0.0,-2.2472,-2.2472,-2.2472,-2.2472,-2.2472,-2.2472,-2.2472,-2.2472,-2.2472,-2.2472,-2.2472,-2.2472,-2.2472,-2.2472,-2.2472,-2.2472,-2.2472,-2.2472,-2.2472,-2.2472,-2.2472,-2.2472,-2.2472,-2.2472,-2.2472,-2.2472,-2.2472,-2.2472,-2.2472,-2.2472,-2.2472,-2.2161,-2.1737,-2.13,-2.1434,-2.1355,-2.0704,-2.0957,-2.103,-2.0215,-2.0275,-2.0446,-2.0446,-2.0117,-2.0334,-2.1223,-2.1014,-2.0973,-2.1136,-2.1323,-2.0865,-1.9799,0.0,-2.0023,0.0,0.0,-1.8762,-1.8762,0.0,-1.8762,-1.8762,-1.8762,-1.8762,-1.8762,-1.8762,-1.8762,-1.8762,-1.8762,-1.8762,-1.8762,-1.8762,-1.8762,-1.8762,-1.8762,-1.8762,-1.8762,-1.8762,-1.8762,-1.8762,-2.2472,-2.2472,-2.2472,-2.2472,-2.2472,-2.2472,-2.2472,-2.2472,-2.2472,-2.2472,-2.2472,-2.2472,-2.2472,-2.2472,-2.2472,-2.2472,-2.2472,-2.2472,-2.2472,-2.2472,-2.2472,-2.2472,-2.2472,-2.2472,-2.2472,-2.2472,-2.2472,-2.2472,-2.2472,-2.2424,-2.2359,-2.2424,-2.2472,-2.2472,-2.2472,-2.2472,-2.2472,-2.2472,-2.2472,-2.2472,-2.2472,-2.2472,-2.2472,-2.2472,-2.2472,-2.2472,-2.2472,-2.2472,-2.2472,-2.2472,-2.2472,-2.2472,-2.2472,-2.2472,-2.2472,-2.2472,-2.2472,-2.2472,-2.2472,-2.2472,-2.2472,-2.2472,-2.2472,-2.2472,-2.2472,-2.2472,-2.2472,-2.2472,-2.2003,-2.1264,-2.0452,-2.0766,-2.0942,-2.035,-2.0531,-2.0629,-2.01,-2.0078,-2.0063,-1.9943,-2.0177,-2.0509,-2.084,-2.1082,-2.1257,-2.1201,-2.1302,-2.1041,-1.9907,-2.0262,-1.9922,-1.8878,-1.8762,-1.8762,-1.8762,0.0,-1.8762,-1.8762,-1.8762,-1.8762,-1.8762,-1.8762,-1.8762,-1.8762,-1.8762,-1.8762,-1.8762,-1.8762,-1.8762,-1.8762,-1.8762,-1.8762,-1.8762,-1.8762,-1.8762,-1.8762,-2.2472,-2.2472,-2.2472,-2.2472,-2.2472,-2.2472,-2.2472,-2.2472,-2.2472,-2.2472,-2.2472,-2.2472,-2.2472,-2.2472,-2.2472,-2.2472,-2.2472,-2.2472,-2.2472,-2.2472,-2.2472,-2.2472,-2.2472,-2.2472,-2.2472,-2.2472,-2.2472,-2.2472,-2.2472,-2.2302,-2.2001,-2.2318,-2.2472,-2.2472,-2.2472,-2.2472,-2.2472,-2.2472,-2.2472,-2.2472,-2.2472,-2.2472,-2.2472,-2.2472,-2.2472,-2.2472,-2.2472,-2.2472,-2.2472,-2.2472,-2.2472,-2.2472,-2.2472,-2.2472,-2.2472,-2.2472,-2.2472,-2.2472,-2.2472,-2.2472,-2.2472,-2.2472,-2.2472,-2.2472,-2.2472,-2.2472,-2.2472,-2.2472,-2.2003,-2.1302,-2.0702,-2.0586,-2.0687,-2.0564,-2.043,-2.0171,-1.985,-2.0093,-2.0112,-1.9541,-2.0455,-2.1025,-2.0447,-2.1359,-2.1658,-2.0687,-2.1049,-2.1026,-2.0486,-2.0023,-1.9444,-1.8762,-1.8762,-1.8762,-1.8762,-1.8762,-1.8762,-1.8762,-1.8762,-1.8762,-1.8762,-1.8762,-1.8762,-1.8762,-1.8762,-1.8762,-1.8762,-1.8762,-1.8762,-1.8762,-1.8762,-1.8762,-1.8762,-1.8762,-1.8762,-1.8762,-2.2472,-2.2472,-2.2472,-2.2472,-2.2472,-2.2472,-2.2472,-2.2472,-2.2472,-2.2472,-2.2472,-2.2472,-2.2472,-2.2472,-2.2472,-2.2472,-2.2472,-2.2472,-2.2472,-2.2472,-2.2472,-2.2472,-2.2472,-2.2472,-2.2472,-2.2472,-2.2472,-2.2472,-2.2472,-2.2407,-2.2253,-2.2407,-2.2472,-2.2472,-2.2472,-2.2472,-2.2472,-2.2472,-2.2472,-2.2472,-2.2472,-2.2472,-2.2472,-2.2472,-2.2472,-2.2472,-2.2472,-2.2472,-2.2472,-2.2472,-2.2472,-2.2472,-2.2472,-2.2472,-2.2472,-2.2472,-2.2472,-2.2472,-2.2472,-2.2472,-2.2472,-2.2472,-2.2472,-2.2472,-2.2472,-2.2472,-2.2349,-2.2003,-2.1086,-2.0262,-1.9683,-1.9806,-1.9907,-1.9567,-1.9749,-1.9727,-1.9219,-1.9286,-1.9251,-1.9013,-1.9475,-1.9828,-1.9929,-2.0742,-2.1225,-2.1187,-2.1701,-2.1463,-2.0146,-2.0146,-1.9806,-1.8878,0.0,-1.8762,-1.8762,-1.8762,-1.8762,-1.8762,-1.8762,-1.8762,-1.8762,-1.8762,-1.8762,-1.8762,-1.8762,-1.8762,-1.8762,-1.8762,-1.8762,-1.8762,-1.8762,-1.8762,-1.8762,-1.8762,-1.8762,-1.8762,-2.2472,-2.2472,-2.2472,-2.2472,-2.2472,-2.2472,-2.2472,-2.2472,-2.2472,-2.2472,-2.2472,-2.2472,-2.2472,-2.2472,-2.2472,-2.2472,-2.2472,-2.2472,-2.2472,-2.2472,-2.2472,-2.2472,-2.2472,-2.2472,-2.2472,-2.2472,-2.2472,-2.2472,-2.2472,-2.2407,-2.2318,-2.2318,-2.2359,-2.2472,-2.2472,-2.2472,-2.2472,-2.2472,-2.2472,-2.2472,-2.2472,-2.2472,-2.2472,-2.2472,-2.2472,-2.2472,-2.2472,-2.2472,-2.2472,-2.2472,-2.2472,-2.2472,-2.2472,-2.2472,-2.2472,-2.2472,-2.2472,-2.2472,-2.2472,-2.2472,-2.2472,-2.2472,-2.2472,-2.2472,-2.2472,-2.2472,-2.2225,-2.1426,-2.0601,-1.9683,-1.8885,-1.9103,-1.9342,-1.9103,-1.9226,-1.9342,-1.9103,-1.9103,-1.9103,-1.9103,-1.9342,-1.9567,-1.9683,-2.0385,-2.0848,-2.0963,-2.1549,-2.131,-2.0023,-2.0146,-1.9806,-1.8878,-1.8762,-1.8762,-1.8762,-1.8762,-1.8762,-1.8762,-1.8762,-1.8762,-1.8762,-1.8762,-1.8762,-1.8762,-1.8762,-1.8762,-1.8762,-1.8762,-1.8762,-1.8762,-1.8762,-1.8762,-1.8762,-1.8762,-1.8762,-1.8762,-2.2472,-2.2472,-2.2472,-2.2472,-2.2472,-2.2472,-2.2472,-2.2472,-2.2472,-2.2472,-2.2472,-2.2472,-2.2472,-2.2472,-2.2472,-2.2472,-2.2472,-2.2472,-2.2472,-2.2472,-2.2472,-2.2472,-2.2472,-2.2472,-2.2472,-2.2472,-2.2472,-2.2472,-2.2472,-2.2294,-2.1936,-2.1936,-2.2123,-2.2472,-2.2472,-2.2472,-2.2472,-2.2472,-2.2472,-2.2472,-2.2472,-2.2472,-2.2472,-2.2472,-2.2472,-2.2472,-2.2472,-2.2472,-2.2472,-2.2472,-2.2472,-2.2472,-2.2472,-2.2472,-2.2472,-2.2472,-2.2472,-2.2472,-2.2472,-2.2472,-2.2472,-2.2472,-2.2472,-2.2472,-2.2472,-2.2472,-2.2126,-2.0848,-2.0601,-2.0262,-1.9001,-1.8762,-1.9001,-1.9567,-1.9219,-1.9001,-1.9567,-1.9683,-1.9683,-1.9683,-2.0724,-2.0963,-1.9806,-2.084,-2.0963,-1.9806,-2.0262,-2.0601,-2.0601,-2.0023,-1.9458,-1.8762,-1.8762,-1.8762,-1.8762,-1.8762,-1.8762,-1.8762,-1.8762,-1.8762,-1.8762,-1.8762,-1.8762,-1.8762,-1.8762,-1.8762,-1.8762,-1.8762,-1.8762,-1.8762,-1.8762,-1.8762,-1.8762,-1.8762,-1.8762,-1.8762,-2.2472,-2.2472,-2.2472,-2.2472,-2.2472,-2.2472,-2.2472,-2.2472,-2.2472,-2.2472,-2.2472,-2.2472,-2.2472,-2.2472,-2.2472,-2.2472,-2.2472,-2.2472,-2.2472,-2.2472,-2.2472,-2.2472,-2.2472,-2.2472,-2.2472,-2.2472,-2.2472,-2.2472,-2.2472,-2.2407,-2.2302,-2.2302,-2.2359,-2.2472,-2.2472,-2.2472,-2.2472,-2.2472,-2.2472,-2.2472,-2.2472,-2.2472,-2.2472,-2.2472,-2.2472,-2.2472,-2.2472,-2.2472,-2.2472,-2.2472,-2.2472,-2.2472,-2.2472,-2.2472,-2.2472,-2.2472,-2.2472,-2.2472,-2.2472,-2.2472,-2.2472,-2.2472,-2.2472,-2.2472,-2.2472,-2.1887,-2.1064,-2.0724,-1.9907,-1.9226,-1.8878,-1.8762,-1.8878,-1.9103,-1.8885,-1.8878,-1.9103,-1.9103,-1.9103,-1.9103,-1.9458,-1.9465,-1.9103,-1.9806,-2.0146,-1.9683,-2.0262,-2.0363,-2.0023,-1.9806,-1.9458,-1.8762,-1.8762,-1.8762,-1.8762,-1.8762,-1.8762,-1.8762,-1.8762,-1.8762,-1.8762,-1.8762,-1.8762,-1.8762,-1.8762,-1.8762,-1.8762,-1.8762,-1.8762,-1.8762,-1.8762,-1.8762,-1.8762,-1.8762,-1.8762,-1.8762,-2.2472,-2.2472,-2.2472,-2.2472,-2.2472,-2.2472,-2.2472,-2.2472,-2.2472,-2.2472,-2.2472,-2.2472,-2.2472,-2.2472,-2.2472,-2.2472,-2.2472,-2.2472,-2.2472,-2.2472,-2.2472,-2.2472,-2.2472,-2.2472,-2.2472,-2.2472,-2.2472,-2.2472,-2.2472,-2.2472,-2.2472,-2.2472,-2.2472,-2.2472,-2.2472,-2.2472,-2.2472,-2.2472,-2.2472,-2.2472,-2.2472,-2.2472,-2.2472,-2.2472,-2.2472,-2.2472,-2.2472,-2.2472,-2.2472,-2.2472,-2.2472,-2.2472,-2.2472,-2.2472,-2.2472,-2.2472,-2.2472,-2.2472,-2.2472,-2.2472,-2.2472,-2.2472,-2.2472,-2.2464,-2.2126,-2.1541,-2.084,-2.0385,-1.9683,-1.9103,-1.8878,-1.8762,-1.8762,-1.8762,-1.8762,-1.8762,-1.8762,-1.8762,-1.8878,-1.9103,-1.9103,-1.9103,-1.9103,-1.9444,-1.9567,-1.9342,-1.9683,-1.9799,-1.9342,-1.9567,-1.9458,-1.8762,-1.8762,-1.8762,-1.8762,-1.8762,-1.8762,-1.8762,-1.8762,-1.8762,-1.8762,-1.8762,-1.8762,-1.8762,-1.8762,-1.8762,-1.8762,-1.8762,-1.8762,-1.8762,-1.8762,-1.8762,-1.8762,-1.8762,-1.8762,-1.8762,-2.2472,-2.2472,-2.2472,-2.2472,-2.2472,-2.2472,-2.2472,-2.2472,-2.2472,-2.2472,-2.2472,-2.2472,-2.2472,-2.2472,-2.2472,-2.2472,-2.2472,-2.2472,-2.2472,-2.2472,-2.2472,-2.2472,-2.2472,-2.2472,-2.2472,-2.2472,-2.2472,-2.2472,-2.2472,-2.2472,-2.2472,-2.2472,-2.2472,-2.2472,-2.2472,-2.2472,-2.2472,-2.2472,-2.2472,-2.2472,-2.2472,-2.2472,-2.2472,-2.2472,-2.2472,-2.2472,-2.2472,-2.2472,-2.2472,-2.2472,-2.2472,-2.2472,-2.2472,-2.2472,-2.2472,-2.2472,-2.2472,-2.2472,-2.2472,-2.2472,-2.2472,-2.2472,-2.2472,-2.2349,-2.1664,-2.1426,-2.1086,-1.9922,-1.9683,-1.9465,-1.8878,-1.8762,-1.8762,-1.8762,-1.8762,-1.8762,-1.8762,-1.8762,-1.9001,-1.956,-1.9683,-1.9683,-1.9683,-1.9683,-1.9342,-1.8878,-1.8762,-1.8762,-1.8762,-1.9342,-1.9342,-1.8762,-1.8762,-1.8762,-1.8762,-1.8762,-1.8762,-1.8762,-1.8762,-1.8762,-1.8762,-1.8762,-1.8762,-1.8762,-1.8762,-1.8762,-1.8762,-1.8762,-1.8762,-1.8762,-1.8762,-1.8762,-1.8762,-1.8762,-1.8762,-1.8762,-2.2472,-2.2472,-2.2472,-2.2472,-2.2472,-2.2472,-2.2472,-2.2472,-2.2472,-2.2472,-2.2472,-2.2472,-2.2472,-2.2472,-2.2472,-2.2472,-2.2472,-2.2472,-2.2472,-2.2472,-2.2472,-2.2472,-2.2472,-2.2472,-2.2472,-2.2472,-2.2472,-2.2472,-2.2472,-2.2472,-2.2472,-2.2472,-2.2472,-2.2472,-2.2472,-2.2472,-2.2472,-2.2472,-2.2472,-2.2472,-2.2472,-2.2472,-2.2472,-2.2472,-2.2472,-2.2472,-2.2472,-2.2472,-2.2472,-2.2472,-2.2472,-2.2472,-2.2472,-2.2472,-2.2472,-2.2472,-2.2472,-2.2472,-2.2472,-2.2472,-2.2472,-2.2472,-2.2472,-2.2349,-2.1664,-2.1187,-2.0601,-1.9806,-1.9342,-1.9001,-1.8878,-1.8762,-1.8762,-1.8762,-1.8762,-1.8762,-1.8762,-1.8762,-1.8878,-1.9001,-1.9001,-1.9001,-1.9001,-1.9001,-1.9001,-1.8762,-1.8762,-1.8762,-1.8762,-1.8885,-1.9001,-1.8762,-1.8762,-1.8762,-1.8762,-1.8762,-1.8762,-1.8762,-1.8762,-1.8762,-1.8762,-1.8762,-1.8762,-1.8762,-1.8762,-1.8762,-1.8762,-1.8762,-1.8762,-1.8762,-1.8762,-1.8762,-1.8762,-1.8762,-1.8762,-1.8762,-2.2472,-2.2472,-2.2472,-2.2472,-2.2472,-2.2472,-2.2472,-2.2472,-2.2472,-2.2472,-2.2472,-2.2472,-2.2472,-2.2472,-2.2472,-2.2472,-2.2472,-2.2472,-2.2472,-2.2472,-2.2472,-2.2472,-2.2472,-2.2472,-2.2472,-2.2472,-2.2472,-2.2472,-2.2472,-2.2472,-2.2472,-2.2472,-2.2472,-2.2472,-2.2472,-2.2472,-2.2472,-2.2472,-2.2472,-2.2472,-2.2472,-2.2472,-2.2472,-2.2472,-2.2472,-2.2472,-2.2472,-2.2472,-2.2472,-2.2472,-2.2472,-2.2472,-2.2472,-2.2472,-2.2472,-2.2472,-2.2472,-2.2472,-2.2472,-2.2472,-2.2472,-2.2472,-2.2472,-2.2225,-2.1302,-2.0848,-2.0385,-1.9465,-1.8987,-1.8762,-1.8762,-1.8762,-1.8762,-1.8762,-1.8762,-1.8762,-1.8762,-1.8762,-1.8762,-1.8762,-1.8762,-1.8762,-1.8762,-1.8762,-1.8762,-1.8762,-1.8762,-1.8762,-1.8762,-1.8762,-1.8762,-1.8762,-1.8762,-1.8762,-1.8762,-1.8762,-1.8762,-1.8762,-1.8762,-1.8762,-1.8762,-1.8762,-1.8762,-1.8762,-1.8762,-1.8762,-1.8762,-1.8762,-1.8762,-1.8762,-1.8762,-1.8762,-1.8762,-1.8762,-1.8762,-1.8762,-2.2472,-2.2472,-2.2472,-2.2472,-2.2472,-2.2472,-2.2472,-2.2472,-2.2472,-2.2472,-2.2472,-2.2472,-2.2472,-2.2472,-2.2472,-2.2472,-2.2472,-2.2472,-2.2472,-2.2472,-2.2472,-2.2472,-2.2472,-2.2472,-2.2472,-2.2472,-2.2472,-2.2472,-2.2472,-2.2472,-2.2472,-2.2472,-2.2472,-2.2472,-2.2472,-2.2472,-2.2472,-2.2472,-2.2472,-2.2472,-2.2472,-2.2472,-2.2472,-2.2472,-2.2472,-2.2472,-2.2472,-2.2472,-2.2472,-2.2472,-2.2472,-2.2472,-2.2472,-2.2472,-2.2472,-2.2472,-2.2472,-2.2472,-2.2472,-2.2472,-2.2464,-2.2349,-2.2349,-2.2011,-2.0724,-2.0486,-2.0146,-1.8987,-1.8762,-1.8762,-1.8762,-1.8762,-1.8762,-1.8762,-1.8762,-1.8762,-1.8762,-1.8762,-1.8762,-1.8762,-1.8762,-1.8762,-1.8762,-1.8762,-1.8762,-1.8762,-1.8762,-1.8762,-1.8762,-1.8762,-1.8762,-1.8762,-1.8762,-1.8762,-1.8762,-1.8762,-1.8762,-1.8762,-1.8762,-1.8762,-1.8762,-1.8762,-1.8762,-1.8762,-1.8762,-1.8762,-1.8762,-1.8762,-1.8762,-1.8762,-1.8762,-1.8762,-1.8762,-1.8762,-1.8762,-1.8762,-2.2472,-2.2472,-2.2472,-2.2472,-2.2472,-2.2472,-2.2472,-2.2472,-2.2472,-2.2472,-2.2472,-2.2472,-2.2472,-2.2472,-2.2472,-2.2472,-2.2472,-2.2472,-2.2472,-2.2472,-2.2472,-2.2472,-2.2472,-2.2472,-2.2472,-2.2472,-2.2472,-2.2472,-2.2472,-2.2472,-2.2472,-2.2472,-2.2472,-2.2472,-2.2472,-2.2472,-2.2472,-2.2472,-2.2472,-2.2472,-2.2472,-2.2472,-2.2472,-2.2472,-2.2472,-2.2472,-2.2472,-2.2472,-2.2472,-2.2472,-2.2472,-2.2472,-2.2472,-2.2472,-2.2472,-2.2472,-2.2472,-2.2472,-2.2472,-2.2472,-2.2349,-2.1764,-2.1664,-2.131,-2.0146,-1.9806,-1.9683,-1.8885,-1.8762,-1.8762,-1.8762,-1.8762,-1.8762,-1.8762,-1.8762,-1.8762,-1.8762,-1.8762,-1.8762,-1.8762,-1.8762,-1.8762,-1.8762,-1.8762,-1.8762,-1.8762,-1.8762,-1.8762,-1.8762,-1.8762,-1.8762,-1.8762,-1.8762,-1.8762,-1.8762,-1.8762,-1.8762,-1.8762,-1.8762,-1.8762,-1.8762,-1.8762,-1.8762,-1.8762,-1.8762,-1.8762,-1.8762,-1.8762,-1.8762,-1.8762,-1.8762,-1.8762,-1.8762,-1.8762,-1.8762,-1.8762,-2.2472,-2.2472,-2.2472,-2.2472,-2.2472,-2.2472,-2.2472,-2.2472,-2.2472,-2.2472,-2.2472,-2.2472,-2.2472,-2.2472,-2.2472,-2.2472,-2.2472,-2.2472,-2.2472,-2.2472,-2.2472,-2.2472,-2.2472,-2.2472,-2.2472,-2.2472,-2.2472,-2.2472,-2.2472,-2.2472,-2.2472,-2.2472,-2.2472,-2.2472,-2.2472,-2.2472,-2.2472,-2.2472,-2.2472,-2.2472,-2.2472,-2.2472,-2.2472,-2.2472,-2.2472,-2.2472,-2.2472,-2.2472,-2.2472,-2.2472,-2.2472,-2.2472,-2.2472,-2.2472,-2.2472,-2.2472,-2.2472,-2.2472,-2.2472,-2.2472,-2.2349,-2.1664,-2.1541,-2.1202,-1.9922,-1.9683,-1.956,-1.8885,-1.8762,-1.8762,-1.8762,-1.8762,-1.8762,-1.8762,-1.8762,-1.8762,-1.8762,-1.8762,-1.8762,-1.8762,-1.8762,-1.8762,-1.8762,-1.8762,-1.8762,-1.8762,-1.8762,-1.8762,-1.8762,-1.8762,-1.8762,-1.8762,-1.8762,-1.8762,-1.8762,-1.8762,-1.8762,-1.8762,-1.8762,-1.8762,-1.8762,-1.8762,-1.8762,-1.8762,-1.8762,-1.8762,-1.8762,-1.8762,-1.8762,-1.8762,-1.8762,-1.8762,-1.8762,-1.8762,-1.8762,-1.8762,-2.2472,-2.2472,-2.2472,-2.2472,-2.2472,-2.2472,-2.2472,-2.2472,-2.2472,-2.2472,-2.2472,-2.2472,-2.2472,-2.2472,-2.2472,-2.2472,-2.2472,-2.2472,-2.2472,-2.2472,-2.2472,-2.2472,-2.2472,-2.2472,-2.2472,-2.2472,-2.2472,-2.2472,-2.2472,-2.2472,-2.2472,-2.2472,-2.2472,-2.2472,-2.2472,-2.2472,-2.2472,-2.2472,-2.2472,-2.2472,-2.2472,-2.2472,-2.2472,-2.2472,-2.2472,-2.2472,-2.2472,-2.2472,-2.2472,-2.2472,-2.2472,-2.2472,-2.2472,-2.2472,-2.2472,-2.2472,-2.2472,-2.2472,-2.2472,-2.2472,-2.2349,-2.1541,-2.1302,-2.0963,-1.9799,-1.9444,-1.9342,-1.8878,-1.8762,-1.8762,-1.8762,-1.8762,-1.8762,-1.8762,-1.8762,-1.8762,-1.8762,-1.8762,-1.8762,-1.8762,-1.8762,-1.8762,-1.8762,-1.8762,-1.8762,-1.8762,-1.8762,-1.8762,-1.8762,-1.8762,-1.8762,-1.8762,-1.8762,-1.8762,-1.8762,-1.8762,-1.8762,-1.8762,-1.8762,-1.8762,-1.8762,-1.8762,-1.8762,-1.8762,-1.8762,-1.8762,-1.8762,-1.8762,-1.8762,-1.8762,-1.8762,-1.8762,-1.8762,-1.8762,-1.8762,-1.8762,-2.2472,-2.2472,-2.2472,-2.2472,-2.2472,-2.2472,-2.2472,-2.2472,-2.2472,-2.2472,-2.2472,-2.2472,-2.2472,-2.2472,-2.2472,-2.2472,-2.2472,-2.2472,-2.2472,-2.2472,-2.2472,-2.2472,-2.2472,-2.2472,-2.2472,-2.2472,-2.2472,-2.2472,-2.2472,-2.2472,-2.2472,-2.2472,-2.2472,-2.2472,-2.2472,-2.2472,-2.2472,-2.2472,-2.2472,-2.2472,-2.2472,-2.2472,-2.2472,-2.2472,-2.2472,-2.2472,-2.2472,-2.2472,-2.2472,-2.2472,-2.2472,-2.2472,-2.2472,-2.2472,-2.2472,-2.2472,-2.2472,-2.2472,-2.2472,-2.2472,-2.2225,-2.0948,-2.0724,-2.0385,-1.9103,-1.8878,-1.8878,-1.8762,-1.8762,-1.8762,-1.8762,-1.8762,-1.8762,-1.8762,-1.8762,-1.8762,-1.8762,-1.8762,-1.8762,-1.8762,-1.8762,-1.8762,-1.8762,-1.8762,-1.8762,-1.8762,-1.8762,-1.8762,-1.8762,-1.8762,-1.8762,-1.8762,-1.8762,-1.8762,-1.8762,-1.8762,-1.8762,-1.8762,-1.8762,-1.8762,-1.8762,-1.8762,-1.8762,-1.8762,-1.8762,-1.8762,-1.8762,-1.8762,-1.8762,-1.8762,-1.8762,-1.8762,-1.8762,-1.8762,-1.8762,-1.8762,-2.2472,-2.2472,-2.2472,-2.2472,-2.2472,-2.2472,-2.2472,-2.2472,-2.2472,-2.2472,-2.2472,-2.2472,-2.2472,-2.2472,-2.2472,-2.2472,-2.2472,-2.2472,-2.2472,-2.2472,-2.2472,-2.2472,-2.2472,-2.2472,-2.2472,-2.2472,-2.2472,-2.2472,-2.2472,-2.2472,-2.2472,-2.2472,-2.2472,-2.2472,-2.2472,-2.2472,-2.2472,-2.2472,-2.2472,-2.2472,-2.2472,-2.2472,-2.2472,-2.2472,-2.2472,-2.2472,-2.2472,-2.2472,-2.2472,-2.2472,-2.2472,-2.2472,-2.2472,-2.2472,-2.2472,-2.2472,-2.225,-2.1887,-2.1887,-2.1887,-2.1664,-2.084,-2.0269,-1.9806,-1.9001,-1.8762,-1.8762,-1.8762,-1.8762,-1.8762,-1.8762,-1.8762,-1.8762,-1.8762,-1.8762,-1.8762,-1.8762,-1.8762,-1.8762,-1.8762,-1.8762,-1.8762,-1.8762,-1.8762,-1.8762,-1.8762,-1.8762,-1.8762,-1.8762,-1.8762,-1.8762,-1.8762,-1.8762,-1.8762,-1.8762,-1.8762,-1.8762,-1.8762,-1.8762,-1.8762,-1.8762,-1.8762,-1.8762,-1.8762,-1.8762,-1.8762,-1.8762,-1.8762,-1.8762,-1.8762,-1.8762,-1.8762,-1.8762,-1.8762,-1.8762,-1.8762,-2.2472,-2.2472,-2.2472,-2.2472,-2.2472,-2.2472,-2.2472,-2.2472,-2.2472,-2.2472,-2.2472,-2.2472,-2.2472,-2.2472,-2.2472,-2.2472,-2.2472,-2.2472,-2.2472,-2.2472,-2.2472,-2.2472,-2.2472,-2.2472,-2.2472,-2.2472,-2.2472,-2.2472,-2.2472,-2.2472,-2.2472,-2.2472,-2.2472,-2.2472,-2.2472,-2.2472,-2.2472,-2.2472,-2.2472,-2.2472,-2.2472,-2.2472,-2.2472,-2.2472,-2.2472,-2.2472,-2.2472,-2.2472,-2.2472,-2.2472,-2.2472,-2.2472,-2.2472,-2.2472,-2.2472,-2.2472,-2.2011,-2.1541,-2.1541,-2.1187,-2.0848,-2.0385,-2.0023,-1.956,-1.8885,-1.8762,-1.8762,-1.8762,-1.8762,-1.8762,-1.8762,-1.8762,-1.8762,-1.8762,-1.8762,-1.8762,-1.8762,-1.8762,-1.8762,-1.8762,-1.8762,-1.8762,-1.8762,-1.8762,-1.8762,-1.8762,-1.8762,-1.8762,-1.8762,-1.8762,-1.8762,-1.8762,-1.8762,-1.8762,-1.8762,-1.8762,-1.8762,-1.8762,-1.8762,-1.8762,-1.8762,-1.8762,-1.8762,-1.8762,-1.8762,-1.8762,-1.8762,-1.8762,-1.8762,-1.8762,-1.8762,-1.8762,-1.8762,-1.8762,-1.8762,-1.8762,-2.2472,-2.2472,-2.2472,-2.2472,-2.2472,-2.2472,-2.2472,-2.2472,-2.2472,-2.2472,-2.2472,-2.2472,-2.2472,-2.2472,-2.2472,-2.2472,-2.2472,-2.2472,-2.2472,-2.2472,-2.2472,-2.2472,-2.2472,-2.2472,-2.2472,-2.2472,-2.2472,-2.2472,-2.2472,-2.2472,-2.2472,-2.2472,-2.2472,-2.2472,-2.2472,-2.2472,-2.2472,-2.2472,-2.2472,-2.2472,-2.2472,-2.2472,-2.2472,-2.2472,-2.2472,-2.2472,-2.2472,-2.2472,-2.2472,-2.2472,-2.2472,-2.2472,-2.2472,-2.2472,-2.2464,-2.2464,-2.2003,-2.1541,-2.1541,-2.0601,-1.9683,-1.9683,-1.9683,-1.956,-1.8885,-1.8762,-1.8762,-1.8762,-1.8762,-1.8762,-1.8762,-1.8762,-1.8762,-1.8762,-1.8762,-1.8762,-1.8762,-1.8762,-1.8762,-1.8762,-1.8762,-1.8762,-1.8762,-1.8762,-1.8762,-1.8762,-1.8762,-1.8762,-1.8762,-1.8762,-1.8762,-1.8762,-1.8762,-1.8762,-1.8762,-1.8762,-1.8762,-1.8762,-1.8762,-1.8762,-1.8762,-1.8762,-1.8762,-1.8762,-1.8762,-1.8762,-1.8762,-1.8762,-1.8762,-1.8762,-1.8762,-1.8762,-1.8762,-1.8762,-1.8762,-1.8762,-2.2472,-2.2472,-2.2472,-2.2472,-2.2472,-2.2472,-2.2472,-2.2472,-2.2472,-2.2472,-2.2472,-2.2472,-2.2472,-2.2472,-2.2472,-2.2472,-2.2472,-2.2472,-2.2472,-2.2472,-2.2472,-2.2472,-2.2472,-2.2472,-2.2472,-2.2472,-2.2472,-2.2472,-2.2472,-2.2472,-2.2472,-2.2472,-2.2472,-2.2472,-2.2472,-2.2472,-2.2472,-2.2472,-2.2472,-2.2472,-2.2472,-2.2472,-2.2472,-2.2472,-2.2472,-2.2472,-2.2472,-2.2472,-2.2472,-2.2472,-2.2472,-2.2472,-2.2472,-2.2126,-2.1764,-2.1764,-2.1086,-2.0262,-2.0262,-1.9683,-1.9219,-1.9567,-1.9342,-1.9001,-1.8878,-1.8762,-1.8762,-1.8762,-1.8762,-1.8762,-1.8762,-1.8762,-1.8762,-1.8762,-1.8762,-1.8762,-1.8762,-1.8762,-1.8762,-1.8762,-1.8762,-1.8762,-1.8762,-1.8762,-1.8762,-1.8762,-1.8762,-1.8762,-1.8762,-1.8762,-1.8762,-1.8762,-1.8762,-1.8762,-1.8762,-1.8762,-1.8762,-1.8762,-1.8762,-1.8762,-1.8762,-1.8762,-1.8762,-1.8762,-1.8762,-1.8762,-1.8762,-1.8762,-1.8762,-1.8762,-1.8762,-1.8762,-1.8762,-1.8762,-1.8762,-1.8762,-2.2472,-2.2472,-2.2472,-2.2472,-2.2472,-2.2472,-2.2472,-2.2472,-2.2472,-2.2472,-2.2472,-2.2472,-2.2472,-2.2472,-2.2472,-2.2472,-2.2472,-2.2472,-2.2472,-2.2472,-2.2472,-2.2472,-2.2472,-2.2472,-2.2472,-2.2472,-2.2472,-2.2472,-2.2472,-2.2472,-2.2472,-2.2472,-2.2472,-2.2472,-2.2472,-2.2472,-2.2472,-2.2472,-2.2472,-2.2472,-2.2472,-2.2472,-2.2472,-2.2472,-2.2472,-2.2472,-2.2472,-2.2472,-2.2472,-2.2472,-2.2472,-2.2464,-2.2242,-2.1887,-2.1426,-2.1187,-2.0501,-1.9683,-1.9683,-1.9226,-1.8878,-1.9226,-1.9103,-1.8762,-1.8762,-1.8762,-1.8762,-1.8762,-1.8762,-1.8762,-1.8762,-1.8762,-1.8762,-1.8762,-1.8762,-1.8762,-1.8762,-1.8762,-1.8762,-1.8762,-1.8762,-1.8762,-1.8762,-1.8762,-1.8762,-1.8762,-1.8762,-1.8762,-1.8762,-1.8762,-1.8762,-1.8762,-1.8762,-1.8762,-1.8762,-1.8762,-1.8762,-1.8762,-1.8762,-1.8762,-1.8762,-1.8762,-1.8762,-1.8762,-1.8762,-1.8762,-1.8762,-1.8762,-1.8762,-1.8762,-1.8762,-1.8762,-1.8762,-1.8762,-1.8762,-1.8762,-2.2472,-2.2472,-2.2472,-2.2472,-2.2472,-2.2472,-2.2472,-2.2472,-2.2472,-2.2472,-2.2472,-2.2472,-2.2472,-2.2472,-2.2472,-2.2472,-2.2472,-2.2472,-2.2472,-2.2472,-2.2472,-2.2472,-2.2472,-2.2472,-2.2472,-2.2472,-2.2472,-2.2472,-2.2472,-2.2472,-2.2472,-2.2472,-2.2472,-2.2472,-2.2472,-2.2472,-2.2472,-2.2472,-2.2472,-2.2472,-2.2472,-2.2472,-2.2472,-2.2472,-2.2472,-2.2472,-2.2472,-2.2472,-2.2472,-2.2472,-2.2464,-2.2341,-2.1664,-2.1426,-2.1187,-2.0724,-2.0139,-1.9567,-1.9567,-1.9219,-1.8762,-1.8762,-1.8762,-1.8762,-1.8762,-1.8762,-1.8762,-1.8762,-1.8762,-1.8762,-1.8762,-1.8762,-1.8762,-1.8762,-1.8762,-1.8762,-1.8762,-1.8762,-1.8762,-1.8762,-1.8762,-1.8762,-1.8762,-1.8762,-1.8762,-1.8762,-1.8762,-1.8762,-1.8762,-1.8762,-1.8762,-1.8762,-1.8762,-1.8762,-1.8762,-1.8762,-1.8762,-1.8762,-1.8762,-1.8762,-1.8762,-1.8762,-1.8762,-1.8762,-1.8762,-1.8762,-1.8762,-1.8762,-1.8762,-1.8762,-1.8762,-1.8762,-1.8762,-1.8762,-1.8762,-1.8762,-2.2472,-2.2472,-2.2472,-2.2472,-2.2472,-2.2472,-2.2472,-2.2472,-2.2472,-2.2472,-2.2472,-2.2472,-2.2472,-2.2472,-2.2472,-2.2472,-2.2472,-2.2472,-2.2472,-2.2472,-2.2472,-2.2472,-2.2472,-2.2472,-2.2472,-2.2472,-2.2472,-2.2472,-2.2472,-2.2472,-2.2472,-2.2472,-2.2472,-2.2472,-2.2472,-2.2472,-2.2472,-2.2472,-2.2472,-2.2472,-2.2472,-2.2472,-2.2472,-2.2472,-2.2472,-2.2472,-2.2472,-2.2472,-2.2472,-2.2472,-2.2126,-2.1664,-2.1549,-2.0848,-2.0023,-1.9922,-1.9465,-1.9001,-1.9001,-1.8878,-1.8762,-1.8762,-1.8762,-1.8762,-1.8762,-1.8762,-1.8762,-1.8762,-1.8762,-1.8762,-1.8762,-1.8762,-1.8762,-1.8762,-1.8762,-1.8762,-1.8762,-1.8762,-1.8762,-1.8762,-1.8762,-1.8762,-1.8762,-1.8762,-1.8762,-1.8762,-1.8762,-1.8762,-1.8762,-1.8762,-1.8762,-1.8762,-1.8762,-1.8762,-1.8762,-1.8762,-1.8762,-1.8762,-1.8762,-1.8762,-1.8762,-1.8762,-1.8762,-1.8762,-1.8762,-1.8762,-1.8762,-1.8762,-1.8762,-1.8762,-1.8762,-1.8762,-1.8762,-1.8762,-1.8762,-1.8762,-2.2472,-2.2472,-2.2472,-2.2472,-2.2472,-2.2472,-2.2472,-2.2472,-2.2472,-2.2472,-2.2472,-2.2472,-2.2472,-2.2472,-2.2472,-2.2472,-2.2472,-2.2472,-2.2472,-2.2472,-2.2472,-2.2472,-2.2472,-2.2472,-2.2472,-2.2472,-2.2472,-2.2472,-2.2472,-2.2472,-2.2472,-2.2472,-2.2472,-2.2472,-2.2472,-2.2472,-2.2472,-2.2472,-2.2472,-2.2472,-2.2472,-2.2472,-2.2472,-2.2472,-2.2472,-2.2472,-2.2472,-2.2472,-2.2464,-2.2126,-2.1764,-2.1426,-2.084,-2.0262,-1.9683,-1.9342,-1.9103,-1.8762,-1.8762,-1.8762,-1.8762,-1.8762,-1.8762,-1.8762,-1.8762,-1.8762,-1.8762,-1.8762,-1.8762,-1.8762,-1.8762,-1.8762,-1.8762,-1.8762,-1.8762,-1.8762,-1.8762,-1.8762,-1.8762,-1.8762,-1.8762,-1.8762,-1.8762,-1.8762,-1.8762,-1.8762,-1.8762,-1.8762,-1.8762,-1.8762,-1.8762,-1.8762,-1.8762,-1.8762,-1.8762,-1.8762,-1.8762,-1.8762,-1.8762,-1.8762,-1.8762,-1.8762,-1.8762,-1.8762,-1.8762,-1.8762,-1.8762,-1.8762,-1.8762,-1.8762,-1.8762,-1.8762,-1.8762,-1.8762,-1.8762,-1.8762,-2.2472,-2.2472,-2.2472,-2.2472,-2.2472,-2.2472,-2.2472,-2.2472,-2.2472,-2.2472,-2.2472,-2.2472,-2.2472,-2.2472,-2.2472,-2.2472,-2.2472,-2.2472,-2.2472,-2.2472,-2.2472,-2.2472,-2.2472,-2.2472,-2.2472,-2.2472,-2.2472,-2.2472,-2.2472,-2.2472,-2.2472,-2.2472,-2.2472,-2.2472,-2.2472,-2.2472,-2.2472,-2.2472,-2.2472,-2.2472,-2.2472,-2.2472,-2.2472,-2.2472,-2.2472,-2.2472,-2.2472,-2.2464,-2.225,-2.1664,-2.131,-2.0963,-2.0023,-1.9683,-1.9458,-1.9001,-1.8762,-1.8762,-1.8762,-1.8762,-1.8762,-1.8762,-1.8762,-1.8762,-1.8762,-1.8762,-1.8762,-1.8762,-1.8762,-1.8762,-1.8762,-1.8762,-1.8762,-1.8762,-1.8762,-1.8762,-1.8762,-1.8762,-1.8762,-1.8762,-1.8762,-1.8762,-1.8762,-1.8762,-1.8762,-1.8762,-1.8762,-1.8762,-1.8762,-1.8762,-1.8762,-1.8762,-1.8762,-1.8762,-1.8762,-1.8762,-1.8762,-1.8762,-1.8762,-1.8762,-1.8762,-1.8762,-1.8762,-1.8762,-1.8762,-1.8762,-1.8762,-1.8762,-1.8762,-1.8762,-1.8762,-1.8762,-1.8762,-1.8762,-1.8762,-1.8762,-2.2472,-2.2472,-2.2472,-2.2472,-2.2472,-2.2472,-2.2472,-2.2472,-2.2472,-2.2472,-2.2472,-2.2472,-2.2472,-2.2472,-2.2472,-2.2472,-2.2472,-2.2472,-2.2472,-2.2472,-2.2472,-2.2472,-2.2472,-2.2472,-2.2472,-2.2472,-2.2472,-2.2472,-2.2472,-2.2472,-2.2472,-2.2472,-2.2472,-2.2472,-2.2472,-2.2472,-2.2472,-2.2472,-2.2472,-2.2472,-2.2472,-2.2472,-2.2472,-2.2472,-2.2472,-2.2472,-2.2472,-2.2126,-2.1664,-2.1549,-2.084,-1.9922,-1.9799,-1.9342,-1.8885,-1.8762,-1.8762,-1.8762,-1.8762,-1.8762,-1.8762,-1.8762,-1.8762,-1.8762,-1.8762,-1.8762,-1.8762,-1.8762,-1.8762,-1.8762,-1.8762,-1.8762,-1.8762,-1.8762,-1.8762,-1.8762,-1.8762,-1.8762,-1.8762,-1.8762,-1.8762,-1.8762,-1.8762,-1.8762,-1.8762,-1.8762,-1.8762,-1.8762,-1.8762,-1.8762,-1.8762,-1.8762,-1.8762,-1.8762,-1.8762,-1.8762,-1.8762,-1.8762,-1.8762,-1.8762,-1.8762,-1.8762,-1.8762,-1.8762,-1.8762,-1.8762,-1.8762,-1.8762,-1.8762,-1.8762,-1.8762,-1.8762,-1.8762,-1.8762,-1.8762,-1.8762,-2.2472,-2.2472,-2.2472,-2.2472,-2.2472,-2.2472,-2.2472,-2.2472,-2.2472,-2.2472,-2.2472,-2.2472,-2.2472,-2.2472,-2.2472,-2.2472,-2.2472,-2.2472,-2.2472,-2.2472,-2.2472,-2.2472,-2.2472,-2.2472,-2.2472,-2.2472,-2.2472,-2.2472,-2.2472,-2.2472,-2.2472,-2.2472,-2.2472,-2.2472,-2.2472,-2.2472,-2.2472,-2.2472,-2.2472,-2.2472,-2.2472,-2.2472,-2.2472,-2.2472,-2.2472,-2.2464,-2.2126,-2.1549,-2.0963,-2.0601,-2.0146,-1.9683,-1.9342,-1.9001,-1.8762,-1.8762,-1.8762,-1.8762,-1.8762,-1.8762,-1.8762,-1.8762,-1.8762,-1.8762,-1.8762,-1.8762,-1.8762,-1.8762,-1.8762,-1.8762,-1.8762,-1.8762,-1.8762,-1.8762,-1.8762,-1.8762,-1.8762,-1.8762,-1.8762,-1.8762,-1.8762,-1.8762,-1.8762,-1.8762,-1.8762,-1.8762,-1.8762,-1.8762,-1.8762,-1.8762,-1.8762,-1.8762,-1.8762,-1.8762,-1.8762,-1.8762,-1.8762,-1.8762,-1.8762,-1.8762,-1.8762,-1.8762,-1.8762,-1.8762,-1.8762,-1.8762,-1.8762,-1.8762,-1.8762,-1.8762,-1.8762,-1.7943,-1.6645,-1.6645,-1.5825,-1.4655]}]]